GFSGBSN_con_sbcape_000.txt.gz
CAPE
4 0 0 0 0 0 0 0 0 0 0 0 0 2 2 1 2 2 0 0 0 0 0 0 0 0 0 0 0 0 0 0 0 0 0 0 0 0 0 0 0 0 0 0 0 0 0
0 0 0 0 0 0 0 0 0 0 0 0 0 0 0 0 0 0 0 0 0 0 0 0 0 0 0 0 0 0 0 0 0 0 0 0 0 0 0 0 0 0 0 0 0 0 0
0 0 0 0 0 0 0 0 0 0 0 0 0 0 0 0 0 0 0 0 0 0 0 0 0 0 0 0 0 0 0 0 0 0 0 0 0 0 0 0 0 0 0 0 0 0 0
0 0 0 0 0 0 0 0 0 0 0 0 0 0 0 0 0 0 0 0 0 0 0 0 0 0 0 0 0 0 0 0 0 0 0 0 0 0 0 0 0 0 0 0 0 0 0
0 0 0 0 0 0 0 0 0 0 0 0 0 0 0 0 0 0 0 0 0 0 0 0 0 0 0 0 0 0 0 0 0 0 0 0 0 0 0 0 0 0 0 0 0 0 0
0 0 0 0 0 0 0 0 0 0 0 0 0 0 0 0 0 0 0 0 0 0 0 0 0 0 0 0 0 0 0 0 0 0 0 0 0 0 0 0 0 0 0 0 0 0 0
0 0 0 0 0 0 0 0 0 0 0 0 0 0 0 0 0 0 0 0 0 0 0 0 0 0 0 0 0 0 0 0 0 0 0 0 0 0 0 0 0 0 0 0 0 0 0
0 0 0 0 0 0 0 0 0 0 0 0 0 0 0 0 0 0 0 0 0 0 0 0 0 0 0 0 0 0 0 0 0 0 0 0 0 0 0 0 0 0 0 0 0 0 0
0 0 0 0 0 0 0 0 0 0 0 0 0 0 0 0 0 0 0 0 0 0 0 0 0 0 0 0 0 0 0 0 0 0 0 0 0 0 0 0 0 0 0 0 0 0 0
0 0 0 0 0 0 0 0 0 0 0 0 0 0 0 0 0 0 0 0 0 0 0 0 0 0 0 0 0 0 0 0 0 0 0 0 0 0 0 0 0 0 0 0 0 0 0
0 0 0 0 0 0 0 0 0 0 0 0 0 0 0 0 0 0 0 0 0 7 3 0 0 0 0 0 0 0 0 0 0 0 0 0 0 0 0 0 0 0 0 0 0 0 0
0 0 0 0 0 0 0 0 0 0 0 0 0 0 0 0 0 0 0 0 6 221 5 0 0 0 0 0 0 0 0 0 0 0 0 0 0 0 0 0 0 0 0 0 0 0 0
0 0 0 0 0 0 0 0 0 0 0 0 0 0 0 0 0 0 0 0 114 0 0 0 0 0 0 0 0 0 0 0 0 0 0 0 0 0 0 0 0 0 0 0 0 0 0
0 0 0 0 0 0 0 0 0 0 0 0 0 0 0 0 0 0 0 0 0 0 0 0 0 0 0 0 0 0 0 0 0 0 0 0 0 0 0 0 0 0 0 0 0 0 0
0 0 0 0 0 0 0 0 0 0 0 0 0 0 0 0 0 0 0 0 0 0 0 0 0 0 0 0 0 0 0 0 0 0 0 0 0 0 0 0 0 0 0 0 0 0 0
0 0 0 0 0 0 0 0 0 0 0 0 0 0 0 0 0 0 0 0 0 0 0 0 0 0 0 0 0 0 0 0 0 0 0 0 0 0 0 0 0 0 0 0 0 0 3
0 0 0 0 0 0 0 0 0 0 0 0 6 0 0 0 0 0 0 0 0 0 0 0 0 0 0 0 0 0 0 0 0 0 0 0 0 0 0 0 0 0 0 0 0 0 25
0 0 0 0 0 0 0 0 0 0 0 0 0 0 0 0 0 0 0 0 0 0 0 0 0 0 0 0 0 0 0 0 0 0 0 0 0 0 0 0 0 0 0 0 0 0 0
0 0 0 0 0 0 0 0 0 0 0 0 0 0 0 0 0 0 0 0 0 0 0 0 0 0 0 0 0 0 0 0 0 0 0 0 0 0 0 0 0 0 0 0 0 0 0
0 0 0 0 0 0 0 0 0 0 0 0 0 0 0 0 0 0 0 0 0 0 0 0 0 0 0 0 0 0 0 0 0 0 0 0 0 0 0 0 0 0 0 0 0 0 0
0 0 0 0 0 0 0 0 0 0 0 0 0 0 0 0 0 0 0 0 0 0 0 0 0 0 0 0 0 0 0 0 0 0 0 0 0 0 0 0 0 0 0 0 0 0 0
0 0 0 0 0 0 0 0 1 0 0 0 0 0 0 0 0 0 0 0 0 0 0 0 0 0 0 0 0 0 0 0 0 0 0 0 1 0 0 0 0 0 0 0 0 0 0
0 0 0 0 0 0 0 1 0 0 0 0 0 0 0 0 0 0 0 0 0 0 0 0 0 0 0 0 0 0 0 0 0 0 0 0 0 0 1 0 0 0 0 0 0 0 0
0 0 0 0 0 0 1 1 0 0 0 0 0 0 0 0 0 0 0 0 0 0 0 0 0 0 0 0 0 0 0 0 0 0 0 0 0 0 0 0 10 0 0 0 0 0 0
0 0 0 0 0 0 0 0 0 0 0 0 0 0 0 0 0 0 0 0 0 0 0 0 0 0 0 0 0 0 0 0 0 0 0 0 0 0 0 0 4 0 0 0 0 0 0
0 0 0 0 0 0 0 0 0 0 0 0 0 0 0 0 0 0 0 0 0 0 0 0 0 0 0 0 0 0 0 0 0 0 0 0 0 0 0 0 1 0 0 0 0 0 0
0 0 0 0 0 0 0 0 0 0 0 0 0 0 0 0 0 0 0 0 0 0 0 0 0 0 0 0 0 0 0 0 0 0 0 0 0 0 0 0 0 0 0 0 0 0 1
0 0 0 0 0 0 0 0 0 0 0 0 0 0 0 0 0 0 0 0 0 0 0 0 0 0 0 0 0 0 0 0 0 0 0 0 0 0 0 0 0 0 0 0 0 0 0
0 0 0 0 0 0 0 0 0 0 0 0 0 0 0 0 0 0 0 0 1 0 0 0 0 0 0 0 0 0 0 0 0 0 0 0 0 0 0 0 0 0 0 0 0 0 0

GFSGBSN_con_sbcape_006.txt.gz
CAPE
1 0 0 0 0 0 1 2 0 0 0 0 0 2 1 0 0 0 0 0 2 2 2 0 0 1 0 0 0 0 0 0 0 0 0 0 0 0 0 0 0 0 0 0 0 0 0
0 0 0 0 0 0 2 2 0 0 0 0 0 0 2 1 0 0 0 1 0 0 0 0 0 0 0 0 0 0 0 0 0 0 0 0 0 0 0 0 0 0 0 0 0 0 0
0 0 0 0 0 0 4 2 0 0 0 0 0 0 0 0 0 1 0 0 0 0 0 0 0 0 0 0 0 0 0 0 0 0 0 0 0 0 0 0 0 0 0 0 0 0 0
0 0 0 0 0 1 6 2 0 0 0 0 0 0 0 0 0 0 0 0 0 0 0 0 0 0 0 0 0 0 0 0 0 0 0 0 0 0 0 0 0 0 0 0 0 0 0
0 0 0 0 0 0 4 2 0 0 0 0 0 0 0 0 0 0 0 0 0 0 0 0 0 0 0 0 0 0 0 0 0 0 0 0 0 0 0 0 0 0 0 0 0 0 0
0 0 0 0 0 0 3 2 0 0 0 0 0 0 0 0 0 0 0 0 0 0 0 0 0 0 0 0 0 0 0 0 0 0 0 0 0 0 0 0 0 0 0 0 0 0 0
0 0 0 0 0 0 3 1 0 0 0 0 0 0 0 0 0 0 0 0 0 0 0 0 0 0 0 0 0 0 0 0 0 0 0 0 0 0 0 0 0 0 0 0 0 0 0
0 0 0 0 0 0 0 0 0 0 0 0 0 0 0 0 0 0 0 0 0 0 0 0 0 0 0 0 0 0 0 0 0 0 0 0 0 0 0 0 0 0 0 0 0 0 0
0 0 0 0 0 0 0 0 0 0 0 0 0 0 0 0 0 0 0 0 0 0 0 0 0 0 0 0 0 0 0 0 0 0 0 0 0 0 0 0 0 0 0 0 0 0 0
0 0 0 0 0 0 0 0 0 0 0 0 0 0 0 0 0 0 0 0 0 0 0 0 0 0 0 0 0 0 0 0 0 0 0 0 0 0 0 0 0 0 0 0 0 0 0
0 0 0 0 0 0 0 0 0 0 0 0 0 0 0 0 0 0 0 0 0 0 0 0 0 0 0 0 0 0 0 0 0 0 0 0 0 0 0 0 0 0 0 0 0 0 0
0 0 0 0 0 0 0 0 0 0 0 0 0 0 0 0 0 0 0 0 0 4 0 0 0 0 0 0 0 0 0 0 0 0 0 0 0 0 0 0 0 0 0 0 0 0 0
0 0 0 0 0 0 0 0 0 0 0 0 0 0 0 0 0 0 0 0 0 0 0 0 0 0 0 0 0 0 0 0 0 0 0 0 0 0 0 0 0 0 0 0 0 0 0
0 0 0 0 0 0 0 0 0 0 0 0 0 0 0 0 0 0 0 0 0 0 0 0 0 0 0 0 0 0 0 0 0 0 0 0 0 0 0 0 0 0 0 0 0 0 0
0 0 0 0 0 0 0 0 0 0 0 0 0 0 0 0 0 0 0 0 0 0 0 0 0 0 0 0 0 0 0 0 0 0 0 0 0 0 0 0 0 0 0 0 0 0 0
0 0 0 0 0 0 0 0 0 0 0 0 0 0 0 0 0 0 0 0 0 0 0 0 0 0 0 0 0 0 0 0 0 0 0 0 0 0 0 0 0 0 0 0 0 0 0
0 0 0 0 0 0 0 0 0 0 0 0 0 0 0 0 0 0 0 0 0 0 0 0 0 0 0 0 0 0 0 0 0 0 0 0 0 0 0 0 0 0 0 0 0 0 0
0 0 0 0 0 0 0 0 0 0 0 0 0 0 0 0 0 0 0 0 0 0 0 0 0 0 0 0 0 0 0 0 0 0 0 0 0 0 0 0 0 0 0 0 0 0 0
0 0 0 0 0 0 0 0 0 0 0 0 0 0 0 0 0 0 0 0 0 0 0 0 0 0 0 0 0 0 0 0 0 0 0 0 0 0 0 0 0 0 0 0 0 0 0
0 0 0 0 0 0 0 0 0 0 0 0 0 0 0 0 0 0 0 0 0 0 0 0 0 0 0 0 0 0 0 0 0 0 0 0 0 0 0 0 0 0 0 0 0 1 0
0 0 0 0 0 0 0 0 0 0 0 0 0 0 0 0 0 0 0 0 0 0 0 0 0 0 0 0 0 0 0 0 0 0 0 0 0 0 0 0 0 0 0 0 0 0 0
0 0 0 0 0 0 0 0 0 0 0 0 0 0 0 0 0 0 0 0 0 0 0 0 0 0 0 0 0 0 0 0 0 0 0 0 0 0 0 0 0 0 0 0 0 0 0
0 0 0 0 0 0 1 0 0 0 0 0 0 0 0 0 0 0 0 0 0 0 0 0 0 0 0 0 0 0 0 0 0 0 0 0 0 0 0 0 0 0 0 0 0 0 0
0 0 0 0 0 0 1 1 0 0 0 0 0 0 0 0 0 0 0 0 0 0 0 0 0 0 0 0 0 0 0 0 0 0 0 0 0 0 0 0 0 0 0 0 0 0 0
0 0 0 0 0 0 0 0 0 0 0 0 0 0 0 0 0 0 0 0 0 0 0 0 0 0 0 0 0 0 0 0 0 0 0 0 0 0 0 0 0 0 0 0 0 0 0
0 0 0 0 0 0 0 0 0 0 0 0 0 0 0 0 0 0 0 0 0 0 0 0 0 0 0 0 0 0 0 0 0 0 0 0 0 0 0 0 0 0 0 0 0 0 0
0 0 0 0 0 0 0 0 0 0 0 0 0 0 0 0 0 0 0 0 0 0 0 0 0 0 0 0 0 0 0 0 0 0 0 0 0 0 0 0 0 0 0 0 0 0 0
0 0 0 0 0 0 0 0 0 0 0 0 0 0 0 0 0 0 0 0 0 0 0 0 0 0 0 0 0 0 0 0 0 0 0 0 0 0 0 0 0 0 0 0 0 0 0
0 0 0 0 0 0 0 0 0 0 0 0 0 0 0 0 0 0 0 0 0 0 0 0 0 0 0 0 0 0 0 0 0 0 0 0 0 0 0 0 0 0 0 0 0 0 0

GFSGBSN_con_sbcape_009.txt.gz
CAPE
1 0 0 0 1 1 5 4 4 1 0 0 0 1 1 0 0 0 0 0 1 1 1 1 0 0 0 0 0 0 0 0 0 0 0 0 0 0 0 0 0 0 0 0 0 0 0
0 0 0 0 0 2 4 2 3 0 0 0 0 0 1 0 0 0 0 0 1 1 0 0 0 0 0 0 0 0 0 0 0 0 0 0 0 0 0 0 0 0 0 0 0 0 0
0 0 0 0 0 2 1 3 1 0 0 0 0 0 0 0 3 0 0 1 0 0 0 0 0 0 0 0 0 0 0 0 0 0 0 0 0 0 0 0 0 0 0 0 0 0 0
0 0 0 0 0 1 0 3 0 0 0 0 0 0 0 0 0 0 0 0 0 0 0 0 0 0 0 0 0 0 0 0 0 0 0 0 0 0 0 0 0 0 0 0 0 0 0
0 0 0 0 0 0 1 2 0 0 0 0 0 0 0 0 0 0 0 0 0 0 0 0 0 0 0 0 0 0 0 0 0 0 0 0 0 0 0 0 0 0 0 0 0 0 0
0 0 0 0 0 0 4 1 0 0 0 0 0 0 0 0 0 0 0 0 0 0 0 0 0 0 0 0 0 0 0 0 0 0 0 0 0 0 0 0 0 0 0 0 0 0 0
0 0 0 0 0 0 3 1 0 0 0 0 0 0 0 0 0 0 0 0 0 0 0 0 0 0 0 0 0 0 0 0 0 0 0 0 0 0 0 0 0 0 0 0 0 0 0
0 0 0 0 0 0 0 1 0 0 0 0 0 0 0 0 0 0 0 0 0 0 0 0 0 0 0 0 0 0 0 0 0 0 0 0 0 0 0 0 0 0 0 0 0 0 0
0 0 0 0 0 0 0 0 0 0 0 0 0 0 0 0 0 0 0 0 0 0 0 0 0 0 0 0 0 0 0 0 0 0 0 0 0 0 0 0 0 0 0 0 0 0 0
0 0 0 0 0 0 0 0 0 0 0 0 0 0 0 0 0 0 0 0 0 0 0 0 0 0 0 0 0 0 0 0 0 0 0 0 0 0 0 0 0 0 0 0 0 0 0
0 0 0 0 0 0 0 0 0 0 0 0 0 0 0 0 0 0 0 0 0 0 0 0 0 0 0 0 0 0 0 0 0 0 0 0 0 0 0 0 0 0 0 0 0 0 0
0 0 0 0 0 0 0 0 0 0 0 0 0 0 0 0 0 0 0 0 0 0 0 0 0 0 0 0 0 0 0 0 0 0 0 0 0 0 0 0 0 0 0 0 0 0 0
0 0 0 0 0 0 0 0 0 0 0 0 0 0 0 0 0 0 0 0 0 0 0 0 0 0 0 0 0 0 0 0 0 0 0 0 0 0 0 0 0 0 0 0 0 0 0
0 0 0 0 0 0 0 0 0 0 0 0 0 0 0 0 0 0 0 0 0 0 0 0 0 0 0 0 0 0 0 0 0 0 0 0 0 0 0 0 0 0 0 0 0 0 0
0 0 0 0 0 0 0 0 0 0 0 0 0 0 0 0 0 0 0 0 0 0 0 0 0 0 0 0 0 0 0 0 0 0 0 0 0 0 0 0 0 0 0 0 0 0 0
0 0 0 0 0 0 0 0 0 0 0 0 0 0 0 0 0 0 0 0 0 0 0 0 0 0 0 0 0 0 0 0 0 0 0 0 0 0 0 0 0 0 0 0 0 0 0
0 0 0 0 0 0 0 0 0 0 0 0 0 0 0 0 0 0 0 0 0 0 0 0 0 0 0 0 0 0 0 0 0 0 0 0 0 0 0 0 0 0 0 0 0 0 0
0 0 0 0 0 0 0 0 0 0 0 0 0 0 0 0 0 0 0 0 0 0 0 0 0 0 0 0 0 0 0 0 0 0 0 0 0 0 0 0 0 0 0 0 0 0 0
0 0 0 0 0 0 0 0 0 0 0 0 0 0 0 0 0 0 0 0 0 0 0 0 0 0 0 0 0 0 0 0 0 0 0 0 0 0 0 0 0 0 0 0 0 0 0
0 0 0 0 0 0 1 0 0 0 0 0 0 0 0 0 0 0 0 0 0 0 0 0 0 0 0 0 0 0 0 0 0 0 0 0 0 0 0 0 0 0 0 0 0 5 0
0 0 0 0 1 1 0 0 0 0 0 0 0 0 0 0 0 0 0 0 0 0 0 0 0 0 0 0 0 0 0 0 0 0 0 0 0 0 0 0 0 0 0 0 0 0 1
0 0 0 0 0 1 0 0 0 0 0 0 0 0 0 0 0 0 0 0 0 0 0 0 0 0 0 0 0 0 0 0 0 0 0 0 0 0 0 0 0 0 0 0 0 0 0
0 0 0 0 0 1 0 1 0 0 0 0 0 0 0 0 0 0 0 0 0 0 0 0 0 0 0 0 0 0 0 0 0 0 0 0 0 0 0 0 0 0 0 0 0 0 0
0 0 0 0 0 0 1 0 0 0 0 0 0 0 0 0 0 0 0 0 0 0 0 0 0 0 0 0 0 0 0 0 0 0 0 0 0 0 0 0 0 0 0 0 0 0 0
0 0 0 0 0 0 0 0 0 0 0 0 0 0 0 0 0 0 0 0 0 0 0 0 0 0 0 0 0 0 0 0 0 0 0 0 0 0 0 0 0 0 0 0 0 0 0
0 0 0 0 0 0 0 0 0 0 0 0 0 0 0 0 0 0 0 0 0 0 0 0 0 0 0 0 0 0 0 0 0 0 0 0 0 0 2 4 8 0 0 0 0 0 0
0 0 0 0 0 0 0 0 0 0 0 0 0 0 0 0 0 0 0 0 0 0 0 0 0 0 0 0 0 0 0 0 0 0 0 0 0 0 1 2 0 0 0 0 2 3 0
0 0 0 0 0 0 0 0 0 0 0 0 0 0 0 0 0 0 0 0 0 0 0 0 0 0 0 0 0 0 0 0 0 0 0 0 0 0 1 1 0 0 0 4 5 0 0
0 0 0 0 0 0 0 0 0 0 0 0 0 0 0 0 0 0 0 0 0 0 0 0 0 0 0 0 0 2 0 0 0 0 0 0 0 0 0 0 0 0 0 2 0 0 0

GFSGBSN_con_sbcape_012.txt.gz
CAPE
8 2 0 0 3 6 2 2 3 5 1 0 0 0 3 1 1 1 1 1 1 2 1 1 2 0 0 0 0 0 0 0 0 0 0 0 0 0 0 0 0 0 0 0 0 0 0
0 0 0 0 2 5 1 0 3 1 0 0 0 0 1 1 1 1 1 1 1 0 1 0 0 0 0 0 0 0 0 0 0 0 0 0 0 0 0 0 0 0 0 0 0 0 0
0 0 0 0 0 3 1 1 1 0 0 0 0 0 0 0 1 1 1 0 0 1 0 0 0 0 0 0 0 0 0 0 0 0 0 0 0 0 0 0 0 0 0 0 0 0 0
0 0 0 0 0 2 0 2 0 0 0 0 0 0 0 0 0 0 1 0 0 0 0 0 0 0 0 0 0 0 0 0 0 0 0 0 0 0 0 0 0 0 0 0 0 0 0
0 0 0 0 0 0 1 0 0 0 0 0 0 0 0 0 0 0 0 0 0 0 0 0 0 0 0 0 0 0 0 0 0 0 0 0 0 0 0 0 0 0 0 0 0 0 0
0 0 0 0 0 0 1 0 0 0 0 0 0 0 0 0 0 0 0 0 0 0 0 0 0 0 0 0 0 0 0 0 0 0 0 0 0 0 0 0 0 0 0 0 0 0 0
0 0 0 0 0 0 0 0 0 0 0 0 0 0 0 0 0 0 0 0 0 0 0 0 0 0 0 0 0 0 0 0 0 0 0 0 0 0 0 0 0 0 0 0 0 0 0
0 0 0 0 0 0 0 0 0 0 0 0 0 0 0 0 0 0 0 0 3 0 0 0 0 0 0 0 0 0 0 0 0 0 0 0 0 0 0 0 0 0 0 0 0 0 0
0 0 0 0 0 0 0 0 0 0 0 0 0 0 0 0 0 0 151 85 58 0 0 0 0 0 0 0 0 0 0 0 0 0 0 0 0 0 0 0 0 0 0 0 0 0 0
0 0 0 0 0 0 0 0 0 0 0 0 0 0 0 0 0 0 1 0 49 0 0 0 0 0 0 0 0 0 0 0 0 0 0 0 0 0 0 0 0 0 0 0 0 0 0
0 0 0 0 0 0 0 0 0 0 0 0 0 0 0 0 31 0 0 0 175 20 0 0 0 0 0 0 0 0 0 0 0 0 0 0 0 0 0 0 0 0 0 0 0 0 0
0 0 0 0 0 0 0 0 0 0 0 0 0 0 0 0 126 1 3 14 152 85 0 0 0 0 0 0 0 0 0 0 0 0 0 0 0 0 0 0 0 0 0 0 0 0 0
0 0 0 0 0 0 0 0 0 0 0 0 0 0 0 0 22 0 19 166 0 0 0 0 0 0 0 0 0 0 0 0 0 0 0 0 0 0 0 0 0 0 0 0 1 1 0
0 0 0 0 0 0 0 0 0 0 0 0 0 0 0 6 0 6 47 157 0 0 0 0 0 0 0 0 0 0 0 0 0 0 0 0 0 0 0 0 0 0 0 0 0 0 0
0 0 0 0 0 0 0 0 0 0 0 0 0 0 0 0 0 0 81 47 0 0 0 0 0 0 0 0 0 0 0 0 0 0 0 0 0 0 0 0 0 0 0 0 0 0 0
0 0 0 0 0 0 0 0 0 0 0 0 0 0 1 0 0 1 68 0 0 0 0 0 0 0 0 0 0 0 0 0 0 0 0 0 0 0 0 0 0 0 0 0 0 0 0
0 0 0 0 0 0 0 0 0 0 0 0 0 0 0 0 0 0 11 0 0 0 0 0 0 0 0 0 0 0 0 0 0 0 0 0 0 0 0 0 0 0 0 0 0 0 0
0 0 0 0 0 0 0 0 0 0 0 0 0 0 0 0 0 0 0 0 0 0 0 0 0 0 0 0 0 0 0 0 0 0 0 0 0 0 0 0 0 0 0 0 0 0 2
0 0 0 0 0 0 0 0 0 0 0 0 0 0 0 0 64 0 0 0 0 0 0 0 0 0 0 0 0 0 0 0 0 0 0 0 0 0 0 0 0 0 0 0 0 0 1
0 0 0 0 0 0 0 0 0 0 0 0 3 446 1 0 0 0 0 0 0 0 0 0 0 0 0 0 0 0 0 0 0 0 0 0 0 0 0 0 0 0 0 0 0 7 2
0 0 0 0 0 0 0 0 0 0 0 0 0 7 0 2 0 0 0 0 0 0 0 0 0 0 0 0 0 0 0 0 0 0 0 0 0 0 0 0 0 0 0 0 0 0 17
0 0 0 0 0 0 0 0 0 0 0 0 0 0 0 0 0 0 0 0 0 0 0 0 0 0 0 0 0 0 0 0 0 0 0 0 0 0 0 0 0 0 0 0 0 0 1
0 0 0 0 0 0 0 0 0 0 0 0 0 0 0 0 0 0 0 0 0 0 0 0 0 0 0 0 0 0 0 0 0 0 0 0 0 0 0 0 0 0 0 0 0 0 2
0 0 0 0 0 0 0 0 0 0 0 0 0 0 103 0 0 0 0 0 0 0 0 0 0 0 0 0 0 0 0 0 0 0 0 1 0 1 5 0 1 0 0 0 0 0 0
0 0 0 0 0 0 0 0 0 0 0 0 0 0 0 2 0 0 0 0 0 0 0 0 0 0 0 0 0 0 0 0 0 0 0 0 2 4 2 5 0 0 0 0 0 0 0
0 0 0 0 0 0 0 0 0 0 0 0 0 0 0 0 0 0 0 0 0 0 0 0 0 0 0 0 0 0 0 0 0 0 1 0 0 26 21 25 17 0 0 0 0 15 0
0 0 0 0 0 0 0 0 0 0 0 0 0 0 0 2 0 0 0 0 0 0 0 0 0 0 0 2 3 3 0 0 0 0 1 1 1 7 7 32 14 0 0 0 32 58 33
0 0 0 0 0 0 0 0 0 0 0 0 0 0 0 0 0 0 0 0 0 0 0 0 0 0 1 0 2 1 4 0 0 0 0 3 22 0 8 3 2 0 3 37 33 11 0
0 0 0 0 0 0 0 0 0 0 0 0 21 0 0 1 0 0 0 0 0 0 0 0 0 0 0 1 1 1 0 1 2 4 0 1 0 8 15 28 19 33 47 15 3 16 0

GFSGBSN_con_sbcape_015.txt.gz
CAPE
5 4 2 0 2 6 5 8 8 1 3 3 0 0 0 3 0 1 0 1 0 0 1 1 3 1 3 5 0 0 0 2 0 0 0 0 0 0 0 0 0 0 0 0 0 0 0
3 0 0 0 3 2 6 5 2 5 3 0 0 0 0 2 0 0 1 1 0 1 2 3 1 0 46 0 0 0 0 0 0 0 0 0 0 0 0 0 0 0 0 0 0 0 0
1 0 0 0 1 0 6 3 5 2 0 0 0 0 0 0 2 1 1 1 1 1 1 1 0 0 43 0 0 0 0 0 0 0 0 0 0 0 0 0 0 0 0 0 0 0 0
0 0 0 0 0 0 3 2 2 0 0 0 0 0 0 0 1 1 0 0 0 0 0 0 0 17 6 0 0 0 0 0 0 0 0 0 0 0 0 0 0 0 0 1 0 0 0
0 0 0 0 0 0 3 1 0 0 0 0 0 0 0 0 0 0 0 0 0 0 0 0 60 216 0 0 0 0 0 0 0 0 0 0 0 0 0 0 0 0 22 0 0 0 0
0 0 0 0 0 0 4 0 0 0 0 0 0 0 0 0 0 0 0 0 0 0 0 0 5 0 0 0 0 0 0 0 0 0 0 0 0 0 0 1 50 2 0 0 0 0 0
0 0 0 0 0 0 0 0 0 0 0 0 0 0 0 0 0 0 0 0 0 0 0 0 0 0 0 0 0 0 0 0 0 0 0 0 1 4 0 0 0 0 0 0 0 0 0
0 0 0 0 0 0 0 0 0 0 0 0 0 0 0 0 0 0 1 87 76 17 0 0 0 0 0 0 0 0 0 0 0 0 0 0 0 0 0 0 0 0 0 0 0 0 0
0 0 0 0 0 0 0 0 0 0 0 0 0 0 0 0 0 43 328 307 212 58 0 0 0 0 0 0 0 0 0 0 0 0 0 0 0 0 0 0 0 0 0 0 0 0 0
0 0 0 0 0 0 0 0 0 0 0 0 0 0 0 0 5 295 193 126 468 195 0 0 0 0 0 0 0 0 0 0 0 0 0 0 0 0 0 0 0 0 0 0 0 0 8
0 0 0 0 0 0 0 0 0 0 0 0 0 0 0 0 84 2 116 381 842 811 22 0 0 0 0 0 0 0 0 0 0 0 0 0 0 0 0 0 0 0 0 0 0 0 0
0 0 0 0 0 0 0 0 0 0 0 0 0 0 0 1 477 172 145 527 1063 454 1 0 0 0 0 0 0 0 0 0 0 0 0 0 0 0 0 0 0 0 0 0 0 27 27
0 0 0 0 0 0 0 0 0 0 0 0 0 0 0 84 144 332 521 698 0 146 0 0 0 0 0 0 0 0 0 0 0 0 0 0 0 0 0 0 0 0 1 163 186 148 207
0 0 0 0 0 0 0 0 0 0 0 0 0 0 38 314 237 590 476 51 116 0 0 0 0 0 0 0 0 0 0 0 0 0 0 0 17 0 0 0 0 0 1 113 1 48 49
0 0 0 0 0 0 0 0 0 0 0 0 0 381 356 417 495 396 123 249 18 0 0 0 0 0 0 0 0 0 0 0 0 0 0 0 0 0 0 0 0 3 0 0 0 0 2
0 0 0 0 0 0 0 0 0 0 0 0 0 0 72 264 417 581 497 7 0 0 0 0 0 0 0 0 0 0 0 0 0 0 0 0 7 0 0 0 0 0 0 21 1 0 0
0 0 0 0 0 0 0 0 0 0 0 0 2 0 275 291 141 187 291 1 0 0 0 0 0 0 0 0 0 0 0 0 0 0 0 0 0 0 0 0 0 2 4 0 0 0 2
0 0 0 0 0 0 0 0 0 0 0 0 20 10 69 113 10 193 80 0 0 0 0 0 0 0 0 0 0 0 0 0 0 0 0 0 0 0 0 0 0 0 0 0 0 0 4
0 0 0 0 0 0 0 1 0 0 0 361 3 77 30 235 374 345 0 0 0 0 0 0 0 0 0 0 0 0 0 0 0 0 0 0 0 0 0 0 0 0 0 0 0 0 0
0 0 0 0 0 0 0 0 0 0 0 79 40 448 30 83 15 0 0 0 0 0 0 0 0 0 0 0 0 0 0 0 0 0 0 0 0 0 0 0 0 0 0 0 2 13 17
0 0 0 0 0 0 0 0 0 0 0 81 84 205 49 157 64 4 0 0 0 0 0 0 0 0 0 0 0 0 0 0 0 0 0 0 0 0 0 0 0 0 0 0 0 1 30
0 0 0 0 0 0 0 0 0 0 0 101 3 25 0 46 0 0 0 0 0 0 0 0 0 0 0 0 0 0 0 0 0 0 0 0 0 0 0 0 0 0 0 0 0 3 7
0 0 0 0 0 0 0 0 0 0 0 34 0 0 98 0 1 0 0 0 0 0 0 0 0 0 0 0 0 0 0 0 0 0 0 0 0 0 0 0 0 0 0 0 2 13 27
0 0 0 0 0 0 0 0 0 0 0 118 19 2 420 6 4 0 0 0 0 0 0 0 0 0 0 0 0 0 0 0 0 0 0 0 0 1 2 0 0 3 0 0 1 1 13
0 0 0 0 0 0 0 0 0 0 0 26 0 19 24 175 0 0 0 0 0 0 0 0 0 0 0 0 0 0 0 0 0 0 0 0 4 2 14 1 0 0 0 0 0 0 4
0 0 0 0 0 0 0 0 0 0 0 14 1 0 34 2 35 0 0 0 0 0 0 0 0 0 0 0 0 0 0 0 0 0 0 0 3 18 15 12 12 10 13 0 0 18 4
0 0 0 0 0 0 0 0 0 0 0 66 45 1 42 210 0 0 5 0 0 0 1 0 0 0 0 0 81 2 0 0 0 0 1 6 6 40 14 38 5 2 0 0 12 50 33
0 0 0 0 0 0 0 0 0 0 0 28 61 0 123 56 0 0 0 0 0 0 0 0 0 0 1 0 1 2 1 0 0 0 0 0 5 2 16 18 8 0 9 45 35 62 39
0 0 0 0 0 0 0 0 0 0 0 0 89 0 16 79 37 0 0 0 0 0 0 0 0 0 0 5 4 16 14 2 0 0 0 0 0 9 24 13 22 27 50 38 41 51 1

GFSGBSN_con_sbcape_021.txt.gz
CAPE
0 0 6 2 1 0 2 7 6 1 0 0 0 0 2 4 1 1 1 1 0 1 3 1 1 0 0 105 3 0 162 64 0 0 0 2 0 0 0 0 0 0 0 0 0 0 0
0 6 5 0 0 0 2 3 4 3 0 0 4 3 2 0 0 0 0 0 0 2 0 0 2 1 9 0 0 0 0 0 0 0 6 0 0 0 0 0 0 0 0 0 0 0 0
0 7 0 0 0 0 0 0 4 1 2 3 1 0 0 0 0 0 1 0 2 0 0 1 1 0 65 130 0 0 0 0 0 0 0 0 0 0 0 0 0 0 0 0 0 0 0
0 0 0 0 0 0 0 0 2 1 1 0 0 0 0 0 0 0 0 0 0 0 1 0 0 0 47 0 0 0 0 0 0 0 0 0 0 0 0 0 0 0 0 0 0 0 0
0 0 0 0 0 0 0 0 0 0 0 0 0 0 0 0 0 0 0 0 0 0 0 0 0 61 62 0 0 0 0 0 0 0 0 0 0 0 0 0 0 0 0 0 0 0 0
0 0 0 0 0 0 0 0 0 0 0 0 0 0 0 0 0 0 0 0 0 0 0 0 0 35 71 0 0 0 0 0 0 0 0 0 0 0 0 0 0 0 0 0 0 0 0
0 0 0 0 0 0 0 0 0 0 0 0 0 0 0 0 0 0 0 0 0 0 0 0 0 27 0 0 0 0 0 0 0 0 0 0 0 0 0 0 0 0 0 0 0 0 0
0 0 0 0 0 0 0 0 0 0 0 0 0 0 0 0 0 0 0 31 24 62 0 0 0 0 0 0 0 0 0 0 0 0 0 0 0 0 0 0 0 0 0 0 0 0 0
0 0 0 0 0 0 0 0 0 0 0 0 0 0 0 0 0 0 0 154 122 327 8 0 0 0 0 0 0 0 0 0 0 0 0 0 0 0 0 0 0 0 0 0 0 0 0
0 0 0 0 0 0 0 0 0 0 0 0 0 0 0 0 0 46 5 114 475 691 0 0 0 0 0 0 0 0 0 0 0 0 0 0 0 0 0 0 0 0 0 0 0 0 0
0 0 0 0 0 0 0 0 0 0 0 0 0 0 0 0 0 452 207 386 628 719 4 0 0 0 0 0 0 0 0 0 0 0 0 0 0 0 0 0 0 0 0 0 0 0 0
0 0 0 0 0 0 0 0 0 0 0 0 0 0 0 0 0 396 621 858 480 487 15 0 0 0 0 0 0 0 0 0 0 0 0 0 0 0 0 0 0 0 0 0 0 0 0
0 0 0 0 0 0 0 0 0 0 0 0 0 0 0 0 771 601 688 626 0 179 0 0 0 0 0 0 0 0 0 0 0 0 0 0 0 0 0 0 0 0 0 3 8 5 34
0 0 0 0 0 0 0 0 0 0 0 0 0 0 20 852 973 808 821 193 80 27 0 0 0 0 0 0 0 0 0 0 0 0 0 0 0 0 0 0 0 0 0 0 0 0 0
0 0 0 0 0 0 0 0 0 0 0 0 0 89 807 868 879 542 451 301 216 5 0 0 0 0 0 0 0 0 0 0 0 0 0 0 0 0 0 0 0 0 0 0 0 0 0
0 0 0 0 0 0 0 0 0 0 0 0 4 401 333 602 783 581 344 480 91 0 0 0 0 0 0 0 0 0 0 0 0 0 0 0 0 0 0 0 0 0 0 0 0 0 0
0 0 0 0 0 0 0 0 0 0 0 0 80 0 413 795 385 78 210 548 0 0 0 0 1 0 1 0 0 1 0 0 0 0 0 0 0 0 0 0 0 0 0 0 0 0 0
0 0 0 0 0 0 0 0 0 0 0 0 215 0 530 639 0 0 46 199 0 0 0 0 0 0 0 0 1 0 0 0 0 0 0 0 0 0 0 0 0 0 0 0 0 0 0
0 0 0 0 0 0 0 0 0 0 0 40 164 225 494 666 0 0 67 0 0 0 0 0 0 0 0 0 0 0 0 0 0 0 0 0 0 0 0 0 0 0 0 0 0 0 0
0 0 0 0 0 0 0 0 0 0 0 0 355 2 122 83 107 259 107 0 0 0 0 0 0 0 0 0 0 0 0 0 0 0 0 0 0 0 0 0 0 0 0 0 0 0 0
0 0 0 0 0 0 0 0 0 0 0 0 174 63 0 0 0 0 86 0 0 0 0 0 0 0 0 0 0 0 0 0 0 0 0 0 0 0 0 0 0 0 0 0 0 0 0
0 0 0 0 0 0 0 0 0 0 0 15 272 325 2 5 0 0 0 0 0 0 0 0 0 0 0 0 0 0 0 0 0 0 0 0 0 0 0 0 0 0 0 0 0 0 0
0 0 0 0 0 0 0 0 0 0 0 73 151 128 325 15 0 5 0 0 0 0 0 0 0 0 0 0 0 0 0 0 0 0 0 0 0 0 0 0 0 0 0 0 0 0 0
0 0 0 0 0 0 0 0 0 0 0 252 282 445 0 0 6 5 7 0 0 0 0 0 0 0 0 0 0 0 0 0 0 0 0 0 0 0 0 0 0 0 0 0 0 0 0
0 0 0 0 0 0 0 0 0 0 0 144 80 511 0 0 69 18 0 0 0 0 0 0 0 0 0 0 0 0 0 0 0 0 0 0 0 0 0 0 0 0 0 0 0 0 0
0 0 0 0 0 0 0 0 0 0 0 61 12 30 41 1 19 58 0 0 0 0 0 0 0 0 0 0 0 0 0 0 0 0 0 0 0 0 0 0 0 0 0 0 0 0 0
0 0 0 0 0 0 0 0 0 0 0 68 30 30 538 52 0 10 13 0 0 0 0 0 0 0 0 0 0 0 0 0 0 0 0 0 0 0 0 0 0 0 0 0 0 0 0
0 0 0 0 0 0 0 0 0 0 0 41 3 8 122 17 0 15 0 13 9 0 0 0 0 0 0 0 0 0 0 0 0 0 0 0 0 0 0 0 0 0 0 0 0 0 0
0 0 0 0 0 0 0 0 0 0 0 0 50 15 58 65 23 0 0 0 0 17 1 0 0 0 0 0 0 0 0 0 0 0 0 0 0 0 0 0 0 0 0 0 0 0 0

GFSGBSN_con_sbcape_024.txt.gz
CAPE
0 0 0 0 4 0 0 5 4 1 1 1 1 0 0 0 3 5 0 0 1 0 0 2 0 0 0 82 6 0 14 109 7 0 0 0 0 0 0 0 0 0 0 0 0 0 0
0 0 0 3 0 0 0 3 1 0 1 1 0 1 1 3 2 1 0 1 0 0 2 0 0 0 0 17 0 0 0 0 0 0 0 0 0 0 0 0 0 0 0 0 0 0 0
0 0 0 0 0 0 0 0 0 0 1 1 3 0 0 0 0 0 0 0 0 1 0 0 0 0 16 38 0 0 0 0 0 0 0 0 0 0 0 0 0 0 0 0 0 0 0
0 0 0 0 0 0 0 0 0 0 1 1 0 0 0 0 0 0 0 1 0 0 0 0 1 0 1 0 0 0 0 0 0 0 0 0 0 0 0 0 0 0 0 0 0 0 0
0 0 0 0 0 0 0 0 0 0 0 0 0 0 0 0 0 0 0 0 0 0 0 0 0 12 0 0 0 0 0 0 0 0 0 0 0 0 0 0 0 0 0 0 0 0 0
0 0 0 0 0 0 0 0 0 0 0 0 0 0 0 0 0 0 0 0 0 0 0 0 0 2 1 8 0 0 0 0 0 0 0 0 0 0 0 0 0 0 0 0 0 0 0
0 0 0 0 0 0 0 0 0 0 0 0 0 0 0 0 0 0 0 0 0 0 0 0 0 11 1 0 0 0 0 0 0 0 0 0 0 0 0 0 0 0 0 0 0 0 0
0 0 0 0 0 0 0 0 0 0 0 0 0 0 0 0 0 0 0 5 0 25 0 0 0 0 0 0 0 0 0 0 0 0 0 0 0 0 0 0 0 0 0 0 0 0 0
0 0 0 0 0 0 0 0 0 0 0 0 0 0 0 0 0 0 0 0 29 78 68 0 0 0 0 0 0 0 0 0 0 0 0 0 0 0 0 0 0 0 0 0 0 0 0
0 0 0 0 0 0 0 0 0 0 0 0 0 0 0 0 0 0 0 0 0 10 0 0 0 0 0 0 0 0 0 0 0 0 0 0 0 0 0 0 0 0 0 0 0 0 0
0 0 0 0 0 0 0 0 0 0 0 0 0 0 0 0 0 93 90 299 234 28 0 0 0 0 0 0 0 0 0 0 0 0 0 0 0 0 0 0 0 0 0 0 0 0 0
0 0 0 0 0 0 0 0 0 0 0 0 0 0 0 0 0 4 208 401 0 8 0 0 0 0 0 0 0 0 0 0 0 0 0 0 0 0 0 0 0 0 0 0 0 0 0
0 0 0 0 0 0 0 0 0 0 0 0 0 0 0 0 628 245 284 0 0 30 0 0 0 0 0 0 0 0 0 0 0 0 0 0 0 0 0 0 0 0 0 0 0 12 1
0 0 0 0 0 0 0 0 0 0 0 0 0 0 0 7 424 222 6 0 1 7 0 0 0 0 0 0 0 0 0 0 0 0 0 0 0 0 0 0 0 0 0 0 0 0 0
0 0 0 0 0 0 0 0 0 0 0 0 0 0 228 401 358 18 0 6 49 0 0 0 0 0 0 0 0 0 0 0 0 0 0 0 0 0 0 0 0 0 0 0 0 0 0
0 0 0 0 0 0 0 0 0 0 0 0 0 10 0 226 72 0 122 187 48 0 0 0 0 0 0 0 0 0 0 0 0 0 0 0 0 0 0 0 0 0 0 0 0 0 0
0 0 0 0 0 0 0 0 0 0 0 0 0 0 0 222 0 0 19 141 37 0 0 0 0 0 0 0 0 0 0 0 0 0 0 0 0 0 0 0 0 0 0 0 0 0 0
0 0 0 0 0 0 0 0 0 0 0 0 0 0 0 0 0 0 0 60 0 0 0 0 0 0 0 0 0 0 0 0 0 0 0 0 0 0 0 0 0 0 0 0 0 0 0
0 0 0 0 0 0 0 0 0 0 0 0 0 62 31 0 0 0 0 0 0 0 0 0 0 0 0 0 0 0 0 0 0 0 0 0 0 0 0 0 0 0 0 0 0 0 0
0 0 0 0 0 0 0 0 0 0 0 0 23 0 0 0 0 0 12 0 0 0 0 0 0 0 0 0 0 0 0 0 0 0 0 0 0 0 0 0 0 0 0 0 0 0 0
0 0 0 0 0 0 0 0 0 0 0 0 5 0 0 0 0 0 0 0 0 0 0 0 0 0 0 0 0 0 0 0 0 0 0 0 0 0 0 0 0 0 0 0 0 0 0
0 0 0 0 0 0 0 0 0 0 0 0 74 117 0 0 0 0 0 0 0 0 0 0 0 0 0 0 0 0 0 0 0 0 0 0 0 0 0 0 0 0 0 0 0 0 0
0 0 0 0 0 0 0 0 0 0 0 3 9 0 0 0 0 0 0 0 0 0 0 0 0 0 0 0 0 0 0 0 0 0 0 0 0 0 0 0 0 0 0 0 0 0 0
0 0 0 1 0 0 0 0 0 0 0 71 68 5 0 0 0 0 0 0 0 0 0 0 0 0 0 0 0 0 0 0 0 0 0 0 0 0 0 0 0 0 0 0 0 0 0
0 0 0 0 0 0 0 0 0 0 0 3 0 3 0 0 0 0 0 0 0 0 0 0 0 0 0 0 0 0 0 0 0 0 0 0 0 0 0 0 0 0 0 0 0 0 0
0 0 0 0 0 0 0 0 0 0 0 0 0 0 0 0 0 0 0 0 0 0 0 0 0 0 0 0 0 0 0 0 0 0 0 0 0 0 0 0 0 0 0 0 0 0 0
0 0 0 0 0 0 0 0 0 0 0 0 0 0 0 0 0 0 0 0 0 0 0 0 0 0 0 0 0 0 0 0 0 0 0 0 0 0 0 0 0 0 0 0 0 0 0
0 0 0 0 0 0 0 0 0 0 0 0 0 0 0 0 0 0 0 0 0 0 0 0 0 0 0 0 0 0 0 0 0 0 0 0 0 0 1 0 0 0 0 0 0 0 0
0 0 0 0 0 0 0 0 0 0 0 0 0 0 0 0 0 0 0 0 0 0 0 0 0 0 0 0 0 0 0 0 0 0 0 0 0 0 0 0 0 0 0 0 0 0 0

GFSGBSN_con_sbcape_030.txt.gz
CAPE
0 3 8 6 0 0 0 4 6 0 0 1 0 4 3 0 1 1 0 1 6 0 1 1 0 0 0 0 0 31 243 140 0 0 0 0 0 0 0 0 0 0 0 0 0 0 0
0 0 0 0 0 0 0 4 3 0 0 0 0 4 2 0 1 1 1 3 1 0 0 0 1 0 0 0 0 0 0 0 0 0 0 0 0 0 0 0 0 0 0 0 0 0 0
0 0 0 0 0 0 0 0 0 0 0 0 0 0 0 4 1 3 5 1 0 0 0 0 0 0 0 0 0 0 0 0 0 0 0 0 0 0 0 0 0 0 0 0 0 0 0
0 0 0 0 0 0 0 0 0 0 0 0 1 2 0 0 2 1 0 0 0 0 0 3 0 0 0 0 0 0 0 0 0 0 0 0 0 0 0 0 0 0 0 0 0 0 0
0 0 0 0 0 0 0 0 0 0 0 0 0 0 0 0 0 0 0 0 0 0 1 1 0 2 0 0 0 0 0 0 0 0 0 0 0 0 0 0 0 0 0 0 0 0 0
0 0 0 0 0 0 0 0 0 0 0 0 0 0 0 0 0 0 0 0 0 0 0 1 0 0 0 0 0 0 0 0 0 0 0 0 0 0 0 0 0 0 0 0 0 0 0
0 0 0 0 0 0 0 0 0 0 0 0 0 0 0 0 0 0 0 0 0 0 0 0 0 0 0 0 0 0 0 0 0 0 0 0 0 0 0 0 0 0 0 0 0 0 0
0 0 0 0 0 0 0 0 0 0 0 0 0 0 0 0 0 0 0 0 0 0 24 0 0 0 0 0 0 0 0 0 0 0 0 0 0 0 0 0 0 0 0 0 0 0 0
0 0 0 0 0 0 0 0 0 0 0 0 0 0 0 0 0 0 0 0 0 0 24 0 0 0 0 0 0 0 0 0 0 0 0 0 0 0 0 0 0 0 0 0 0 0 0
0 0 0 0 0 0 0 0 0 0 0 0 0 0 0 0 0 0 0 0 0 0 0 0 0 0 0 0 0 0 0 0 0 0 0 0 0 0 0 0 0 0 0 0 0 0 0
0 0 0 0 0 0 0 0 0 0 0 0 0 0 0 0 0 0 0 95 1 0 0 0 0 0 0 0 0 0 0 0 0 0 0 0 0 0 0 0 0 0 0 0 0 0 0
0 0 0 0 0 0 0 0 0 0 0 0 0 0 0 0 0 0 0 0 0 0 0 0 0 0 0 0 0 0 0 0 0 0 0 0 0 0 0 0 0 0 0 0 0 0 0
3 0 0 0 0 0 0 0 0 0 0 0 0 0 0 0 128 5 0 0 0 0 0 0 0 0 0 0 0 0 0 0 0 0 0 0 0 0 0 0 0 0 0 0 0 0 0
27 0 0 0 0 0 0 0 0 0 0 0 0 0 0 0 0 0 0 0 0 0 0 0 0 0 0 0 0 0 0 0 0 0 0 0 0 0 0 0 0 0 0 0 0 0 0
4 0 0 0 0 0 0 0 0 0 0 0 0 0 0 0 0 0 0 0 0 0 0 0 0 0 0 0 0 0 0 0 0 0 0 0 0 0 0 0 0 0 0 0 0 0 0
5 0 0 0 0 0 0 0 0 0 0 0 0 0 0 0 0 0 0 0 11 0 0 0 0 0 0 0 0 0 0 0 0 0 0 0 0 0 0 0 0 0 0 0 0 0 0
7 0 0 0 0 0 0 0 0 0 0 0 0 0 0 0 0 0 0 0 31 17 0 0 0 0 0 0 0 0 0 0 0 0 0 0 0 0 0 0 0 0 0 0 0 0 0
6 0 0 0 0 0 1 0 0 0 0 0 0 0 0 0 0 0 0 0 2 0 0 0 0 0 0 0 0 0 0 0 0 0 0 0 0 0 0 0 0 0 0 0 0 0 0
1 0 0 0 0 0 1 0 0 0 0 0 3 125 0 0 0 0 0 0 0 0 0 0 0 0 0 0 0 0 0 0 0 0 0 0 0 0 0 0 0 0 0 0 0 0 0
0 0 0 0 0 0 0 0 0 0 0 0 0 31 0 0 0 0 0 0 0 0 0 0 0 0 0 0 0 0 0 0 0 0 0 0 0 0 0 0 0 0 0 0 0 0 0
0 0 0 0 0 0 0 0 0 0 0 0 0 0 0 0 0 0 0 0 0 0 0 0 0 0 0 0 0 0 0 0 0 0 0 0 0 0 0 0 0 0 0 0 0 0 0
0 0 0 0 0 0 0 0 0 0 0 0 50 0 0 0 0 0 0 0 0 0 0 0 0 0 0 0 0 0 0 0 0 0 0 0 0 0 0 0 0 0 0 0 0 0 0
0 0 0 0 0 0 0 0 0 0 0 0 0 0 0 0 0 0 0 0 0 0 0 0 0 0 0 0 0 0 0 0 0 0 0 0 0 0 0 0 0 0 0 0 0 0 0
0 0 0 0 0 0 0 0 0 0 0 0 0 0 0 0 0 0 0 0 0 0 0 0 0 0 0 0 0 0 0 0 0 0 0 0 0 0 0 0 0 0 0 0 0 0 0
0 0 0 0 0 0 0 0 0 0 0 5 0 0 0 0 0 0 0 0 0 0 0 0 0 0 0 0 0 0 0 0 0 0 0 0 0 0 0 0 0 0 0 0 0 0 0
0 0 0 0 0 0 0 0 0 0 0 1 0 0 0 0 0 0 0 0 0 0 0 0 0 0 0 0 0 0 0 0 0 0 0 0 0 0 0 0 0 0 0 0 0 0 0
0 0 0 0 0 0 0 0 0 0 0 0 0 0 0 0 0 0 0 0 0 0 0 0 0 0 0 0 0 0 0 0 0 0 0 0 0 0 0 0 0 0 0 0 0 0 0
0 0 0 0 0 0 0 0 0 0 0 19 1 0 0 0 0 0 0 0 0 0 0 0 0 0 0 0 0 0 0 0 0 0 0 0 0 0 1 0 0 0 0 0 0 0 0
0 0 0 0 0 0 0 0 0 0 0 0 0 0 0 0 0 0 0 0 0 0 0 0 0 0 0 0 0 0 0 0 0 0 0 0 0 0 0 0 0 0 0 0 0 0 0

GFSGBSN_con_sbcape_033.txt.gz
CAPE
0 0 0 0 0 0 0 0 0 0 0 0 0 2 4 1 1 5 0 2 4 1 0 0 0 1 0 0 0 19 221 185 0 0 0 0 0 0 0 0 0 0 0 0 0 0 0
0 0 0 0 0 0 0 0 0 0 0 0 0 0 2 1 1 1 0 0 0 0 0 0 0 0 0 0 0 15 0 0 0 0 0 0 0 0 0 0 0 0 0 0 0 0 0
0 0 0 0 0 0 0 0 0 0 0 0 0 0 0 2 2 2 0 1 0 1 0 1 1 1 0 0 0 0 0 0 0 0 0 0 0 0 0 0 0 0 0 0 0 0 0
0 0 0 0 0 0 0 0 0 0 0 0 0 0 0 0 1 3 2 0 1 0 0 0 1 0 0 0 0 0 0 0 0 0 0 0 0 0 0 0 0 0 0 0 0 0 0
11 0 0 0 0 0 0 0 0 0 0 0 0 0 0 0 0 0 0 0 0 0 0 3 0 0 1 0 0 0 0 0 0 0 0 0 0 0 0 0 0 0 0 0 0 0 0
0 1 0 0 0 0 0 0 0 0 0 0 0 0 0 0 0 0 0 0 0 0 0 0 0 0 0 0 0 0 0 0 0 0 0 0 0 0 0 0 0 0 0 0 0 0 0
1 3 0 0 0 0 0 0 0 0 0 0 0 0 0 0 0 0 0 0 0 0 0 0 0 0 0 0 0 0 0 0 0 0 0 0 0 0 0 0 0 0 0 0 0 0 0
0 0 4 0 0 0 0 0 0 0 0 0 0 0 0 0 0 0 0 0 0 0 11 0 0 0 0 0 0 0 0 0 0 0 0 0 0 0 0 0 0 0 0 0 0 0 0
0 1 11 0 0 0 0 0 0 0 0 0 0 0 0 0 0 2 0 0 0 0 79 0 0 0 0 0 0 0 0 0 0 0 0 0 0 0 0 0 0 0 0 0 0 0 0
14 0 8 0 0 0 0 0 0 0 0 0 0 0 0 0 0 0 0 0 0 0 0 0 0 0 0 0 0 0 0 1 0 0 0 0 0 0 0 0 0 0 0 0 0 0 0
12 0 0 0 0 0 0 0 0 0 0 0 0 0 0 0 0 0 0 1 0 0 0 0 0 0 0 0 0 0 0 0 0 0 0 0 0 0 0 0 0 0 0 0 0 0 0
33 0 0 3 0 0 0 0 0 0 0 0 0 0 0 1 0 0 0 0 0 0 0 0 0 0 0 0 0 0 0 0 0 0 0 0 0 0 0 0 0 0 0 0 0 0 0
71 0 0 1 0 0 0 0 0 0 0 0 0 0 0 0 0 0 0 0 0 0 0 0 0 0 0 0 0 0 0 0 0 0 0 0 0 0 0 0 0 0 0 0 12 0 0
103 16 0 0 0 0 0 0 0 0 0 0 0 0 0 0 0 0 0 0 0 0 0 0 0 0 0 0 0 0 0 0 0 0 0 0 0 0 0 0 0 0 0 0 0 0 0
112 30 0 0 0 0 0 0 0 0 0 0 0 0 0 0 0 0 0 0 0 0 0 0 0 0 0 0 0 0 0 0 0 0 0 0 0 0 0 0 0 0 0 0 0 0 0
122 41 10 5 1 0 0 0 0 0 0 0 0 0 0 0 0 0 0 0 0 0 0 0 0 0 0 0 0 0 0 0 0 0 0 0 0 0 0 0 0 0 0 0 0 0 0
86 11 12 55 15 0 0 0 0 0 0 0 0 0 0 0 0 0 0 0 0 1 0 0 0 0 0 0 0 0 0 0 0 0 0 0 0 0 0 0 0 0 0 0 0 0 0
83 65 59 3 15 0 0 0 0 0 0 0 0 0 0 0 0 0 0 0 1 0 0 0 0 0 0 0 0 0 0 0 0 0 0 0 0 0 0 0 0 0 0 0 0 0 0
89 47 19 12 1 0 0 0 0 0 0 0 0 31 0 0 0 0 0 0 0 0 0 0 0 0 0 0 0 0 0 0 0 0 0 0 0 0 0 0 0 0 0 0 0 0 0
40 29 25 31 0 0 0 0 0 0 0 0 19 53 1 0 0 0 0 0 0 0 0 0 0 0 0 0 0 0 0 0 0 0 0 0 0 0 0 0 0 0 0 0 0 0 0
40 47 36 3 0 0 0 0 0 0 0 0 0 0 2 0 0 0 0 0 0 0 0 0 0 0 0 0 0 0 0 0 0 0 0 0 0 0 0 0 0 0 0 0 0 0 0
64 32 33 0 0 0 0 0 0 0 0 0 0 0 0 0 0 0 0 0 0 0 0 0 0 0 0 0 0 0 0 0 0 0 0 0 0 0 0 0 0 0 0 0 0 0 0
39 26 0 0 0 0 0 0 0 0 0 0 0 0 0 0 0 0 0 0 0 0 0 0 0 0 0 0 0 0 0 0 0 0 0 0 0 0 0 0 0 0 0 0 0 0 0
48 1 1 0 0 0 0 0 0 0 0 0 0 0 0 0 0 0 0 0 0 0 0 0 0 0 0 0 0 0 0 0 0 0 0 0 0 0 0 0 0 0 0 0 0 0 0
0 1 0 0 0 0 0 0 0 0 0 0 0 0 0 0 0 0 0 0 0 0 0 0 0 0 0 0 0 0 0 0 0 0 0 0 0 0 0 0 0 0 0 0 0 0 0
1 2 1 0 0 0 0 0 0 0 0 0 0 0 0 0 0 0 0 0 0 0 0 0 0 0 0 0 0 0 0 0 0 0 0 0 0 0 0 0 0 0 0 0 0 0 0
0 0 0 0 0 0 0 0 0 0 0 0 0 0 0 0 0 0 0 0 0 0 0 0 0 0 0 0 0 0 0 0 0 0 0 0 0 0 0 0 0 0 0 0 0 0 0
0 0 0 0 0 0 0 0 0 0 0 29 0 0 0 0 0 0 0 0 0 0 0 0 0 0 0 0 0 0 0 0 0 0 0 0 0 0 0 0 0 0 0 0 0 0 0
0 0 0 0 0 0 0 0 0 0 0 3 0 0 0 0 0 0 0 0 0 0 0 0 0 0 0 0 0 0 0 0 0 0 0 0 0 0 0 0 0 0 0 0 0 0 0

GFSGBSN_con_sbcape_036.txt.gz
CAPE
11 1 0 0 0 0 0 0 0 0 0 0 0 0 0 2 5 2 1 3 1 1 5 1 1 1 0 1 0 132 198 127 0 0 0 0 0 0 0 0 0 0 0 0 0 0 46
0 1 0 0 0 0 0 0 0 0 0 0 0 0 0 0 3 0 0 3 1 2 2 0 0 1 0 0 0 82 104 0 0 0 0 0 0 0 0 0 0 0 0 0 0 0 10
0 0 0 0 0 0 0 0 0 0 0 0 0 0 0 0 2 1 0 1 1 3 0 0 2 0 0 1 0 100 0 0 0 0 0 0 0 0 0 0 0 0 0 0 0 0 0
9 1 4 0 0 0 0 0 0 0 0 0 0 0 0 0 0 0 0 1 2 1 0 1 1 1 12 0 0 1 0 3 0 0 0 0 0 0 0 0 0 0 0 0 0 0 0
30 0 0 2 0 0 0 0 0 0 0 0 0 0 0 0 0 0 0 0 0 0 0 0 1 5 26 0 0 0 2 0 0 0 0 0 0 0 0 0 0 0 0 0 0 0 0
55 13 0 1 0 0 0 0 0 0 0 0 0 0 0 0 0 0 0 0 0 0 0 1 0 141 130 3 2 5 0 0 8 0 0 0 0 0 0 0 0 2 0 0 0 0 0
49 46 11 0 1 0 0 0 0 0 0 0 0 0 0 0 0 0 0 0 0 0 0 0 0 18 0 3 0 0 0 3 0 15 19 0 24 0 0 0 0 0 3 0 0 0 0
67 48 30 0 0 0 0 0 0 0 0 0 0 0 0 0 0 0 0 0 0 0 6 0 0 0 0 0 27 0 0 3 2 7 40 65 48 0 0 0 0 0 8 34 0 0 2
58 53 46 8 0 10 0 0 0 0 0 0 0 0 0 0 0 3 0 0 0 0 262 0 0 1 0 0 17 5 0 18 8 14 70 73 37 9 29 9 36 50 64 39 12 0 0
57 59 52 24 0 2 0 0 0 0 0 0 0 0 0 0 0 0 0 0 0 0 40 0 0 0 0 3 1 0 0 22 57 2 99 114 13 53 76 55 52 102 11 0 1 25 76
71 62 59 21 0 0 0 0 0 0 0 0 0 0 0 0 0 0 0 0 0 34 0 0 0 0 0 2 0 0 0 30 19 18 27 124 77 74 101 46 1 78 0 8 8 43 57
60 65 61 41 0 0 0 0 0 0 0 0 0 0 0 2 0 0 1 189 116 231 10 0 0 0 0 0 0 2 31 10 21 80 107 86 29 69 65 7 8 17 85 97 87 69 64
71 75 70 34 0 0 5 0 0 0 0 0 0 0 3 0 0 96 27 137 66 0 0 0 0 0 0 0 0 1 35 33 79 144 178 108 87 19 17 71 29 73 68 8 28 64 17
103 87 70 60 0 0 0 0 0 0 0 0 0 0 4 0 0 0 53 111 0 0 0 0 0 0 0 0 1 16 63 49 17 84 171 113 113 1 0 48 44 27 14 0 0 0 0
146 114 102 79 10 2 0 0 0 0 0 0 0 12 7 0 0 0 16 21 0 0 0 0 0 0 4 0 0 10 62 68 28 61 65 84 29 0 0 0 0 0 0 0 4 0 2
149 148 111 92 7 3 0 0 0 0 0 0 2 4 0 0 0 0 43 1 0 0 0 0 0 0 0 0 0 0 31 0 0 0 9 72 37 0 0 0 0 3 0 0 0 0 0
200 172 128 116 37 8 0 0 0 0 1 0 1 0 37 40 16 51 23 0 0 79 0 0 0 0 0 0 0 0 4 0 0 0 0 43 22 2 0 0 0 0 0 0 0 0 0
186 153 133 115 43 13 0 0 0 1 0 0 1 10 229 54 111 181 4 0 27 0 4 0 0 0 0 7 6 0 0 0 0 0 19 0 14 64 0 0 0 0 0 0 0 0 0
192 167 141 106 27 1 14 5 0 1 0 1 3 178 28 0 120 22 0 0 94 0 0 1 0 0 14 32 14 21 26 0 0 0 0 0 0 15 2 0 0 0 0 0 0 0 0
192 205 125 86 43 24 9 29 0 1 0 70 74 276 329 16 6 4 0 0 2 0 0 9 34 86 95 67 30 69 18 0 0 0 0 0 0 0 0 0 0 0 0 0 0 0 0
175 186 99 77 32 59 24 16 1 1 0 107 211 136 164 125 2 0 0 0 7 37 3 27 63 108 127 131 50 62 5 0 0 0 0 0 0 0 0 0 0 0 0 0 0 0 0
203 114 54 47 33 26 19 2 1 0 0 425 153 154 16 120 0 0 0 2 16 6 56 61 180 120 141 187 66 140 27 0 0 0 0 0 0 0 0 0 0 0 0 0 0 0 0
152 55 17 33 10 6 13 0 1 0 0 235 244 0 107 1 0 1 1 13 10 191 5 0 191 121 114 23 1 16 0 0 0 0 0 0 0 0 0 0 0 0 0 0 0 0 0
83 43 39 19 1 15 1 0 0 0 0 316 472 76 313 39 0 0 0 34 104 110 193 0 10 138 0 0 0 0 0 0 0 0 0 0 0 0 0 0 0 0 0 0 0 0 0
69 45 30 6 16 1 0 0 0 0 0 785 271 217 133 45 0 0 3 92 19 6 18 2 0 0 0 0 0 0 0 0 0 0 0 0 0 0 4 0 0 0 0 0 0 0 0
37 27 14 5 1 0 0 0 0 0 0 482 205 23 236 90 0 0 8 118 193 188 11 0 0 0 0 0 0 51 18 0 0 0 0 0 0 0 0 65 178 0 0 0 0 0 0
15 7 1 1 0 0 0 0 0 0 0 509 244 13 348 467 0 23 18 66 41 128 156 0 0 0 0 0 545 132 7 0 0 0 0 0 0 0 0 0 0 0 0 0 0 0 0
0 0 0 0 0 0 0 0 0 0 0 378 206 30 593 342 41 10 0 6 0 192 319 0 0 0 0 147 319 19 130 0 0 0 0 0 0 2 0 8 0 0 0 0 0 0 0
0 1 0 0 0 0 0 0 0 0 0 55 332 0 65 316 41 0 0 0 0 6 17 0 92 2 2 52 2 0 2 0 0 0 0 0 0 0 0 0 0 0 0 0 0 0 0

GFSGBSN_con_sbcape_039.txt.gz
CAPE
3 2 4 0 0 0 0 0 0 0 0 0 0 0 0 0 1 3 1 2 2 3 0 3 1 0 0 10 0 200 369 359 0 0 0 0 0 0 0 0 0 0 0 0 0 0 2
10 4 0 6 0 0 0 0 0 0 0 0 0 0 0 0 0 0 0 2 0 3 2 0 2 1 0 0 0 25 69 2 0 0 0 0 0 0 1 1 0 0 0 0 0 11 45
24 26 4 0 5 0 0 0 0 0 0 0 0 0 0 0 0 2 3 0 1 3 1 0 0 0 0 0 0 125 109 43 18 0 2 0 0 0 5 7 0 0 0 0 0 3 47
35 32 26 0 0 0 0 0 0 0 0 0 0 0 0 0 0 0 1 0 2 3 0 0 0 0 0 0 0 30 176 147 72 39 6 12 1 0 2 0 0 0 0 0 1 44 58
29 37 39 8 0 5 0 0 0 0 0 0 0 0 0 0 0 0 0 0 0 0 0 0 0 3 36 0 0 12 63 87 48 32 12 0 3 8 4 0 0 0 1 2 24 42 17
29 32 38 34 0 0 3 0 0 0 0 0 0 0 0 0 0 0 0 0 0 0 0 0 0 122 234 4 2 57 37 23 132 93 91 13 19 46 16 0 0 0 2 10 8 0 0
24 20 38 38 27 0 4 0 0 0 0 0 0 0 0 0 0 0 0 0 0 0 0 0 3 1 2 27 13 27 0 14 139 183 241 103 20 16 0 1 0 0 0 1 3 0 0
29 32 36 48 51 14 0 6 0 0 0 0 0 0 0 0 0 0 0 0 0 0 4 0 0 0 7 6 45 23 0 58 80 139 47 39 9 0 0 1 0 0 9 2 6 0 2
23 25 33 48 52 46 0 12 0 0 0 0 0 0 0 0 0 2 0 0 0 0 130 0 0 0 9 9 48 62 8 60 95 24 66 43 45 21 10 14 1 3 4 10 66 6 0
29 25 29 43 50 54 4 0 0 0 0 0 0 0 0 0 0 0 0 0 0 0 129 0 0 0 0 7 56 39 10 48 38 2 1 19 34 77 39 22 4 40 61 54 56 63 51
39 35 34 40 43 40 0 0 19 0 0 0 0 0 0 0 0 0 0 0 0 292 93 0 0 0 0 2 2 11 0 8 39 2 18 123 103 85 70 129 98 29 54 105 84 67 20
58 41 43 45 44 45 7 0 11 0 0 0 0 0 0 4 0 0 0 0 80 318 81 0 0 0 1 2 0 10 0 1 65 25 0 3 130 155 97 97 75 128 149 138 101 87 181
61 65 55 63 55 50 11 0 1 0 0 0 0 0 2 0 0 0 0 602 165 45 1 0 0 0 0 8 1 1 0 1 22 34 101 142 137 151 137 156 153 146 199 277 183 158 167
29 62 67 72 64 57 27 0 0 0 0 0 0 0 1 0 0 81 201 393 36 0 12 0 0 0 0 5 0 0 0 10 3 53 90 136 204 138 139 204 179 168 141 187 40 50 69
28 84 74 78 80 70 38 0 4 0 0 0 0 13 10 0 0 17 211 147 3 5 2 0 0 0 0 2 2 0 3 17 21 60 25 204 40 56 44 91 64 144 40 114 87 168 26
29 49 91 78 85 75 45 0 0 4 0 0 5 16 0 0 0 7 196 29 11 6 0 0 0 0 3 6 0 1 13 16 74 87 156 130 138 36 5 27 39 58 59 39 6 0 0
62 34 118 95 76 90 61 15 0 2 0 0 44 20 40 3 1 51 134 27 9 0 0 0 0 0 1 1 1 0 17 75 86 107 174 108 88 113 0 8 30 100 22 2 9 13 0
88 42 130 122 112 101 63 15 0 1 0 0 115 33 165 263 0 35 102 47 8 14 24 0 0 0 10 36 31 8 7 48 65 85 85 138 99 62 34 4 1 6 35 42 8 0 0
21 31 80 128 139 107 65 23 0 1 0 40 125 204 273 39 11 269 63 63 34 8 71 0 0 0 0 43 31 1 0 70 40 133 47 139 0 2 33 38 5 1 0 0 0 0 0
32 68 73 108 117 136 90 3 0 1 0 129 210 272 93 187 6 163 154 57 14 30 33 0 0 0 0 0 1 20 4 9 0 13 0 8 0 1 38 45 53 64 0 0 0 4 0
99 113 141 169 154 161 85 18 3 2 0 79 248 130 31 110 125 108 203 48 16 14 52 68 32 42 20 59 32 160 140 12 0 0 0 29 65 1 0 1 0 0 0 0 0 0 14
76 159 164 166 165 150 90 76 10 4 0 32 306 210 158 21 118 252 138 116 23 60 117 120 0 74 112 171 236 189 281 126 44 5 35 0 40 0 0 0 0 0 0 0 0 0 0
125 172 180 201 146 127 100 57 30 20 4 23 447 364 581 281 439 186 154 81 41 258 231 208 63 89 246 316 430 395 280 163 137 190 151 82 18 0 0 0 0 0 0 0 0 0 0
94 189 221 191 132 71 81 19 5 16 24 148 600 542 788 551 653 66 138 100 91 306 291 371 360 355 225 67 54 45 7 1 2 2 74 36 16 0 0 0 0 0 0 0 0 0 0
95 205 178 151 81 40 28 38 28 1 0 13 562 666 577 856 392 105 161 139 119 353 358 363 93 191 108 152 125 23 39 0 0 0 0 0 0 0 0 0 0 0 0 0 0 0 0
148 122 103 33 34 39 5 0 13 0 1 10 39 895 812 1001 566 77 100 121 383 543 394 0 4 0 0 296 349 144 76 4 10 0 0 0 0 0 0 0 0 0 0 0 0 0 0
76 67 60 45 19 25 9 1 0 0 2 8 394 713 626 479 109 172 89 159 174 411 481 22 0 3 0 469 1276 456 248 18 17 20 0 0 0 0 0 15 0 0 0 0 0 0 0
29 20 24 41 22 1 0 0 0 1 1 2 759 813 1052 756 359 444 141 135 431 392 630 185 106 43 100 321 828 398 650 10 0 0 0 0 13 0 2 1 0 0 0 0 0 0 0
11 21 10 0 0 0 0 0 0 1 2 0 864 500 901 811 402 272 111 66 153 319 520 177 412 291 356 443 681 529 559 0 150 6 0 0 7 0 0 2 0 0 0 0 0 0 0

GFSGBSN_con_sbcape_042.txt.gz
CAPE
8 15 0 0 0 1 0 0 0 0 0 0 0 0 0 0 0 0 0 1 1 0 3 2 0 0 0 0 0 93 390 140 0 0 0 0 0 0 0 0 0 0 0 2 0 0 31
12 13 6 0 0 1 4 0 0 0 0 0 0 0 0 0 0 0 0 3 1 1 2 3 0 0 0 0 0 21 68 95 0 0 0 0 0 0 0 0 0 0 0 0 0 0 2
10 17 16 13 0 0 6 0 0 0 0 0 0 0 0 0 0 0 0 0 0 1 6 0 0 0 0 0 0 6 87 44 0 0 1 0 0 0 4 31 20 0 0 0 0 0 3
16 19 23 25 11 0 0 1 0 0 0 0 0 0 0 0 0 0 0 0 0 2 0 0 0 0 0 0 0 0 59 143 111 74 27 16 21 0 0 8 0 0 0 0 0 0 16
15 11 20 26 27 2 0 1 0 0 0 0 0 0 0 0 0 0 0 0 0 0 0 0 0 0 0 0 0 0 29 51 76 68 57 12 0 9 3 14 2 0 0 0 0 0 13
22 20 19 12 21 22 0 0 0 0 0 0 0 0 0 0 0 0 0 0 0 0 0 0 0 0 22 0 0 0 29 30 64 85 77 4 9 41 33 23 0 0 0 0 10 11 11
26 25 22 9 4 24 32 0 0 0 0 0 0 0 0 0 0 0 0 0 0 0 0 0 0 0 0 1 8 5 29 0 61 173 175 64 44 76 52 1 0 0 0 4 2 0 0
33 31 33 22 16 19 19 12 0 2 0 0 0 0 0 0 0 0 0 0 0 0 0 0 0 0 0 5 22 4 8 1 113 114 58 88 7 0 0 0 6 0 4 40 0 0 0
38 34 29 34 31 25 17 30 0 1 0 0 0 0 0 0 0 0 0 0 0 0 0 0 0 0 0 0 5 7 1 0 77 67 29 18 0 0 1 0 0 0 26 44 8 1 0
36 41 38 32 34 33 25 19 0 2 0 0 0 0 0 0 0 0 0 0 0 0 0 0 0 0 0 0 0 0 2 5 81 30 45 6 4 20 51 0 8 35 30 17 21 19 0
24 42 39 42 31 33 26 19 0 0 5 0 0 0 0 0 0 0 0 0 0 2 36 0 0 0 0 0 3 0 0 0 33 17 38 58 0 43 87 23 23 14 35 65 62 30 75
53 41 52 46 38 39 33 19 0 0 8 0 0 0 0 3 1 0 0 96 23 197 4 0 0 0 0 0 0 9 0 0 6 1 55 13 12 15 59 35 26 75 67 88 57 113 85
67 59 65 63 49 47 40 38 0 0 0 0 0 0 0 0 0 0 0 81 72 15 0 0 0 0 0 0 0 0 0 0 0 45 64 36 0 68 100 28 52 24 42 230 9 73 264
51 80 73 79 70 54 52 49 0 0 0 0 0 0 0 0 0 38 126 241 18 0 0 0 0 0 1 6 0 0 1 0 0 0 29 67 137 73 64 57 50 49 84 155 87 56 255
108 111 103 87 84 70 65 57 15 0 0 0 0 3 9 0 0 70 155 43 0 0 0 13 0 15 18 8 4 0 0 0 0 0 15 13 9 0 40 39 43 24 105 94 76 315 476
84 109 99 102 73 65 55 60 21 0 0 0 4 9 4 0 16 34 104 8 1 0 10 6 5 9 23 6 0 3 0 0 0 7 135 57 0 11 48 9 16 0 3 135 44 11 0
127 121 103 96 22 67 57 80 28 0 4 0 1 26 0 9 69 65 40 17 4 2 3 14 0 13 30 30 3 0 0 0 0 59 82 2 5 8 52 9 0 82 57 0 0 191 199
148 134 114 93 10 77 67 74 28 19 17 0 11 21 54 155 41 1 29 6 0 27 10 8 1 23 19 84 22 0 0 12 11 50 52 75 127 240 130 40 16 3 23 52 590 32 125
149 140 126 109 30 53 75 68 54 24 21 9 25 75 185 193 11 2 4 5 0 4 14 0 1 0 8 52 65 23 67 221 237 50 70 143 154 143 29 51 45 1 0 0 13 178 31
111 131 132 80 64 22 88 80 61 1 33 13 59 123 128 188 5 0 11 7 0 54 2 34 0 0 17 66 95 73 42 161 122 124 0 123 78 3 50 0 39 112 5 0 12 308 21
126 125 106 76 29 30 102 92 78 1 33 9 145 59 36 20 50 9 113 7 11 26 12 41 15 1 13 24 70 19 28 182 50 9 0 30 0 0 0 1 16 4 15 20 10 12 1
105 134 88 29 20 69 122 120 48 4 26 10 135 73 102 28 53 22 43 105 65 33 22 36 39 3 32 38 0 21 99 286 54 45 30 29 78 0 43 0 0 0 0 0 0 0 0
105 85 84 38 35 56 107 123 20 11 12 62 31 64 152 30 75 28 61 146 122 152 71 37 66 102 170 267 345 474 466 496 162 240 185 150 270 195 87 0 0 0 0 0 0 0 0
131 99 83 72 63 113 137 115 21 33 4 6 10 210 253 180 46 1 81 215 209 135 362 205 324 286 373 392 340 317 240 239 301 244 251 312 368 371 157 0 0 0 0 0 0 0 0
120 107 126 90 137 142 103 65 10 34 14 16 2 129 663 74 8 64 177 442 559 194 92 473 388 418 455 555 426 171 150 0 2 0 4 119 137 67 11 0 0 0 0 0 0 0 0
85 87 101 108 162 99 65 37 13 4 17 25 7 15 25 343 150 97 408 493 325 379 79 43 242 547 471 935 1008 401 420 99 45 0 0 0 45 146 0 12 0 0 0 0 0 0 0
65 81 118 175 176 95 34 46 25 10 0 18 13 14 15 396 604 388 280 303 354 41 187 62 0 63 201 924 769 986 507 11 199 118 0 0 36 0 0 52 0 0 0 0 0 0 0
33 93 154 174 131 42 9 10 1 1 1 35 5 11 28 422 753 679 458 434 403 0 56 285 350 235 1028 691 1305 1012 588 484 283 10 0 0 111 0 161 0 0 0 0 0 0 0 0
86 129 134 95 32 6 1 2 3 1 13 26 27 3 14 275 770 615 246 252 397 526 787 523 793 449 603 833 842 1329 360 0 241 246 0 90 93 271 15 26 0 0 0 0 0 0 0

GFSGBSN_con_sbcape_045.txt.gz
CAPE
13 11 12 5 0 0 1 2 0 0 0 0 0 0 0 0 0 0 0 0 0 0 4 3 4 2 0 0 0 0 74 50 0 0 0 0 0 0 0 0 0 0 0 0 233 70 30
10 13 16 19 9 0 0 1 2 0 0 0 0 0 0 0 0 0 0 0 0 0 0 2 2 1 0 0 0 27 6 0 0 0 0 0 0 0 0 0 0 0 0 0 0 15 53
6 9 9 17 17 6 0 0 1 0 0 0 0 0 0 0 0 0 0 0 0 0 0 4 0 0 0 0 0 0 0 6 0 0 0 0 0 0 0 0 3 0 0 0 0 24 16
18 12 8 4 8 9 0 0 0 1 0 0 0 0 0 0 0 0 0 0 0 0 0 3 0 0 0 0 0 0 0 4 3 0 0 0 7 6 0 0 0 0 0 0 0 0 2
19 20 14 9 7 6 0 0 0 1 2 0 0 0 0 0 0 0 0 0 0 0 0 0 0 0 0 0 0 0 0 0 69 50 13 17 0 2 1 2 0 0 0 0 0 0 12
32 23 22 18 17 10 8 0 0 0 0 0 0 0 0 0 0 0 0 0 0 0 0 0 0 0 0 0 0 0 0 0 12 28 32 1 0 1 0 0 0 0 0 0 0 0 10
40 38 28 20 17 13 18 24 0 0 0 0 0 0 0 0 0 0 0 0 0 0 0 0 0 0 0 0 0 0 0 0 0 23 77 23 13 14 0 0 0 0 0 0 0 0 0
28 44 33 33 24 10 4 17 6 0 0 0 0 0 0 0 0 0 0 0 0 0 0 0 0 0 0 0 0 0 0 0 0 35 107 11 0 4 6 0 0 0 0 0 0 0 0
23 32 41 38 34 26 19 12 0 0 0 0 0 0 0 0 0 0 0 0 0 0 0 0 0 0 0 0 0 0 0 0 0 6 7 10 0 2 0 0 0 21 19 3 3 2 0
48 27 43 19 14 16 25 9 14 5 0 0 0 0 0 0 0 0 0 0 0 0 0 0 0 0 0 0 0 0 0 0 0 29 1 12 16 0 3 0 10 65 14 4 5 7 0
71 47 27 42 42 27 20 19 15 18 0 0 0 0 0 0 0 0 0 0 0 0 0 0 0 0 0 0 0 0 0 0 0 2 12 61 10 1 2 5 1 1 8 3 9 6 5
83 81 50 43 29 32 34 22 28 11 0 0 0 0 0 0 0 0 0 0 0 26 0 0 0 0 0 0 0 0 0 0 0 0 0 0 0 0 0 0 0 27 1 28 6 6 0
116 85 48 51 40 51 42 34 32 17 0 0 0 0 0 0 0 0 0 0 5 31 0 0 0 0 0 0 0 0 0 0 0 0 2 0 0 0 0 0 14 10 24 20 3 0 4
86 94 84 69 69 53 54 40 30 30 0 0 0 0 0 0 0 0 0 42 12 0 0 0 0 0 0 0 0 0 0 0 0 0 0 0 13 0 2 42 87 4 46 0 6 0 0
111 119 100 88 8 91 69 65 40 40 0 0 0 1 1 0 0 0 12 44 0 0 0 0 0 0 0 0 0 0 0 0 0 0 0 10 2 38 22 50 6 35 40 37 6 0 11
135 110 83 90 30 86 84 76 51 54 4 5 9 5 1 0 0 0 41 2 0 0 0 2 0 0 0 0 0 0 0 0 0 0 0 23 43 3 1 18 3 3 0 11 3 0 0
135 121 116 124 88 103 104 78 60 68 25 39 45 36 3 0 0 19 5 13 0 0 0 0 0 0 0 0 0 0 0 0 0 3 10 2 0 0 0 55 29 18 7 1 0 0 0
125 108 108 104 111 94 85 98 58 73 56 39 64 35 6 1 12 8 4 0 0 0 0 0 0 0 0 0 11 0 0 0 0 32 27 7 0 0 16 0 1 13 11 24 0 0 0
98 131 148 91 118 108 89 95 61 64 60 19 40 86 33 0 0 0 1 0 0 0 0 0 0 0 0 2 44 0 1 118 67 48 52 40 0 0 26 0 9 13 0 0 0 0 0
97 113 111 62 114 112 120 92 78 87 69 36 72 69 114 19 0 0 0 0 0 0 0 0 0 0 0 0 6 20 71 111 95 2 0 54 29 0 0 0 0 14 1 0 0 0 0
79 124 127 10 79 152 120 21 106 88 67 70 72 36 33 30 8 0 0 0 0 0 0 0 0 0 8 1 9 40 80 39 70 0 0 0 0 0 0 0 0 6 1 1 0 2 0
125 115 73 0 149 144 108 55 14 89 84 52 81 71 71 28 22 16 0 0 0 0 0 6 0 0 6 0 0 11 108 65 16 0 0 0 0 0 0 0 0 0 0 0 0 0 0
119 99 49 56 142 133 77 55 17 117 84 36 13 22 63 23 8 16 0 0 0 0 1 7 0 9 0 0 12 147 8 58 24 0 0 8 0 0 0 0 0 0 0 0 0 0 0
97 128 131 138 111 46 0 20 57 112 61 30 12 27 96 12 30 0 0 0 0 0 24 43 17 36 55 11 33 9 0 68 97 35 20 13 4 0 0 0 0 0 0 0 0 0 0
96 118 134 144 111 46 58 78 112 73 53 12 0 15 86 15 2 0 0 0 0 6 12 116 162 121 63 144 21 2 0 0 0 0 0 31 0 0 0 0 0 0 0 0 0 0 0
99 138 133 101 59 53 45 85 74 35 40 1 0 9 12 3 0 0 0 0 0 51 33 49 103 21 279 356 123 14 0 0 0 0 0 0 0 0 0 0 0 0 0 0 0 0 0
106 95 34 50 58 33 45 61 54 23 52 3 0 1 16 12 10 0 0 0 119 86 18 17 17 57 98 3 71 8 35 0 0 0 0 0 0 0 0 0 0 0 0 0 0 0 0
113 76 58 68 57 66 68 72 45 24 10 0 0 11 9 23 0 22 4 39 88 3 1 14 16 9 138 107 101 183 29 0 3 0 0 0 0 0 0 0 0 0 0 0 0 0 0
99 68 61 46 63 73 57 55 29 24 9 0 0 5 41 29 3 2 83 9 10 0 2 23 115 7 21 174 187 9 51 0 0 0 0 0 0 0 0 0 0 0 0 0 0 0 0

GFSGBSN_con_sbcape_048.txt.gz
CAPE
16 12 11 6 3 0 0 0 1 0 0 0 0 0 0 0 0 0 0 0 0 0 0 0 2 1 0 0 0 0 0 41 0 0 0 0 0 0 0 0 0 0 0 0 17 12 12
15 16 11 13 10 7 0 0 1 3 0 0 0 0 0 0 0 0 0 0 0 0 0 0 5 0 0 0 0 0 0 0 0 0 0 0 0 0 0 0 0 0 0 4 33 57 3
22 17 11 13 17 12 16 0 0 0 1 0 0 0 0 0 0 0 0 0 0 0 0 2 1 0 0 0 0 0 0 0 0 0 0 0 0 0 0 0 0 0 0 0 15 29 48
22 22 18 15 12 7 6 1 0 0 1 0 0 0 0 0 0 0 0 0 0 0 0 1 0 0 0 0 0 0 0 0 0 0 0 0 0 0 0 0 0 1 0 0 0 0 5
26 28 24 19 18 17 10 5 0 0 0 0 0 0 0 0 0 0 0 0 0 0 0 0 0 0 0 0 0 0 0 0 0 0 0 0 0 5 2 1 0 0 0 0 0 0 22
43 23 31 23 17 21 18 10 0 0 0 0 0 0 0 0 0 0 0 0 0 0 0 0 0 0 0 0 0 0 0 0 0 0 0 0 0 0 0 0 10 0 0 0 0 0 10
48 40 30 22 22 22 29 23 13 0 0 0 0 0 0 0 0 0 0 0 0 0 0 0 0 0 0 0 0 0 0 0 0 0 0 18 11 1 1 0 0 0 0 0 0 0 1
55 52 47 42 32 26 25 25 16 12 0 0 0 0 0 0 0 0 0 0 0 0 0 0 0 0 0 0 0 0 0 0 0 2 9 0 3 2 0 0 0 0 0 0 0 0 0
85 59 48 55 54 33 29 24 12 12 0 0 0 0 0 0 0 0 0 0 0 0 0 0 0 0 0 0 0 0 0 0 0 0 0 0 0 0 3 0 0 0 0 0 0 0 0
81 64 51 53 75 48 31 28 22 22 7 0 0 0 0 0 0 0 0 0 0 0 0 0 0 0 0 0 0 0 0 0 0 0 0 0 0 0 0 0 0 0 0 0 2 0 0
69 65 62 60 44 37 25 26 28 27 28 0 0 0 0 0 0 0 0 0 0 0 0 0 0 0 0 0 0 0 0 0 0 0 0 0 0 0 0 0 0 0 0 0 0 0 0
100 68 70 64 50 41 33 27 25 24 30 5 0 2 0 0 0 0 0 0 0 0 0 0 0 0 0 0 0 0 0 0 0 0 0 0 0 0 0 0 0 0 0 0 0 0 0
61 99 70 79 78 46 38 29 25 23 31 11 0 0 0 0 0 0 0 0 1 2 0 0 0 0 0 0 0 0 0 0 0 0 0 0 0 0 1 0 0 0 0 1 1 0 0
14 79 94 72 86 78 50 40 32 25 31 10 0 0 0 0 0 0 0 27 3 0 0 0 0 0 0 0 0 0 0 0 0 0 0 0 0 0 0 0 0 1 6 1 0 0 0
74 37 118 82 82 72 74 45 47 34 30 13 4 18 2 0 0 0 3 13 0 0 0 0 0 0 0 0 0 0 0 0 0 0 0 0 0 0 0 1 7 2 10 3 0 0 4
122 62 62 103 88 73 85 78 69 47 41 19 12 35 14 0 0 0 17 4 0 0 0 0 0 0 0 0 0 0 0 0 0 0 0 0 1 0 21 0 0 0 0 9 5 0 0
96 65 36 105 60 89 89 55 62 68 57 49 14 61 19 0 2 6 5 0 0 0 0 0 0 0 0 0 0 0 0 0 0 0 0 6 0 0 0 3 0 0 0 0 0 0 0
79 92 30 81 77 81 101 15 67 87 64 64 20 17 7 2 0 0 10 7 0 0 0 0 0 1 0 0 0 0 0 0 0 0 3 1 0 2 0 0 0 0 0 0 0 0 0
82 102 86 129 62 59 107 55 60 65 72 46 21 41 8 0 0 0 2 9 0 0 0 0 0 0 0 0 0 0 0 4 29 1 2 9 5 7 8 0 0 27 0 0 0 0 0
87 130 173 147 89 113 116 67 75 73 82 39 40 46 62 26 0 0 0 0 8 0 0 0 0 0 0 0 0 0 0 26 20 5 0 16 0 3 0 0 0 0 0 0 0 0 0
90 104 154 99 98 112 161 109 102 89 75 51 36 21 4 20 15 0 0 0 14 0 0 0 0 0 0 0 0 0 0 18 9 0 8 1 11 0 0 0 0 0 0 0 0 0 0
63 123 114 80 100 158 173 173 81 77 91 50 25 28 27 0 13 5 0 0 0 0 0 0 0 0 0 0 0 0 0 0 0 1 1 0 0 0 0 0 0 0 0 0 0 0 0
56 43 71 66 96 134 193 75 109 76 92 44 3 1 26 0 0 10 0 0 0 0 0 0 0 0 0 0 0 0 12 6 5 0 0 0 0 0 0 0 0 0 0 0 0 0 0
76 63 52 67 109 47 80 70 81 96 82 34 4 4 65 10 15 0 0 0 0 0 0 0 0 0 0 0 0 0 0 0 0 0 0 0 0 0 0 0 0 0 0 0 0 0 0
64 68 97 111 84 32 44 97 117 71 10 37 8 9 17 28 7 23 1 0 2 0 0 0 7 2 0 0 7 8 4 3 0 0 0 0 0 0 0 0 0 0 0 0 0 0 0
61 77 100 101 66 58 125 132 66 47 14 23 6 0 3 9 3 59 8 0 0 0 0 0 79 8 76 0 0 0 13 0 0 0 0 0 0 0 0 0 0 0 0 0 0 0 0
72 86 109 110 110 74 120 64 17 13 2 28 7 2 3 3 16 49 33 0 0 0 0 25 59 72 0 0 20 9 0 0 0 0 0 0 0 0 0 0 0 0 0 0 0 0 0
85 93 105 101 103 110 107 59 19 0 46 41 4 5 14 10 1 0 0 0 0 0 0 0 61 13 0 15 3 0 0 0 0 0 0 0 0 0 0 0 0 0 0 0 0 0 0
72 79 96 99 74 61 57 37 102 96 94 1 9 35 52 31 10 1 0 0 0 0 0 0 1 2 1 0 0 0 14 0 0 0 0 0 0 0 0 0 0 0 0 0 0 0 0

GFSGBSN_con_sbcape_051.txt.gz
CAPE
24 24 18 17 15 3 2 0 0 2 0 0 0 0 0 0 0 0 0 0 0 0 0 1 1 0 0 0 0 0 0 0 0 0 0 0 0 0 0 0 0 0 0 0 0 5 0
14 27 23 18 20 8 0 9 0 0 2 0 0 0 0 0 0 0 0 0 0 0 0 1 2 0 0 0 0 0 0 0 0 0 0 0 0 0 0 0 0 0 0 14 32 47 51
34 25 30 25 18 21 17 17 8 0 0 2 0 0 0 0 0 0 0 0 0 0 0 0 1 0 0 0 0 0 0 0 0 0 0 0 0 0 0 0 0 0 0 39 51 67 79
42 23 29 25 19 23 24 13 11 1 0 0 0 0 0 0 0 0 0 0 0 0 0 0 0 0 0 0 0 0 0 0 0 0 0 0 0 0 0 0 0 4 0 51 13 49 44
47 39 39 32 21 19 22 26 18 11 1 0 1 1 0 0 0 0 0 0 0 0 0 0 0 0 0 0 0 0 0 0 0 0 0 0 0 0 0 0 0 0 0 0 7 1 2
59 47 39 34 31 24 22 25 24 18 8 0 0 1 0 0 0 0 0 0 0 0 0 0 0 0 0 0 0 0 0 0 0 0 0 0 0 0 0 0 2 1 0 0 0 0 11
82 78 53 50 34 42 29 21 23 18 8 3 0 0 0 0 0 0 0 0 0 0 0 0 0 0 0 0 0 0 0 0 0 0 0 0 0 0 0 0 0 0 0 0 0 0 0
69 86 76 57 44 45 40 32 23 22 15 10 0 0 0 0 0 0 0 0 0 0 0 0 0 0 0 0 0 0 0 0 0 0 0 0 0 0 0 1 0 0 0 0 0 0 0
43 68 85 75 57 53 52 36 27 21 20 8 0 0 1 0 0 0 0 0 0 0 0 0 0 0 0 0 0 0 0 0 0 0 0 0 0 0 0 0 0 0 0 0 0 0 0
48 48 68 87 77 58 59 52 27 29 21 6 0 0 2 0 0 0 0 0 0 0 0 0 0 0 0 0 0 0 0 0 0 0 0 0 0 0 0 0 0 0 0 0 0 0 0
34 60 72 76 78 56 54 61 34 29 32 25 0 0 4 0 0 0 0 0 0 0 0 0 0 0 0 0 0 0 0 0 0 0 0 0 0 0 0 0 0 0 0 0 0 0 0
41 54 50 52 68 66 47 61 44 27 27 29 13 0 3 0 0 0 0 0 0 0 0 0 0 0 0 0 0 0 0 0 0 0 0 0 0 0 0 0 0 0 0 0 0 0 0
34 33 40 16 48 70 59 51 47 36 27 27 21 0 2 0 0 0 0 0 1 0 0 0 0 0 0 0 0 0 0 0 0 0 0 0 0 0 0 0 0 0 0 0 0 0 0
32 28 40 30 3 86 78 57 54 58 29 27 23 1 8 0 0 0 0 50 0 0 0 0 0 0 0 0 0 0 0 0 0 0 0 0 0 0 0 0 0 0 0 0 0 0 0
60 35 35 27 16 8 93 68 55 54 40 38 33 10 28 3 0 0 18 51 0 0 0 0 0 0 0 0 0 0 0 0 0 0 0 0 0 0 0 0 0 0 0 0 0 0 0
81 57 42 39 40 13 85 78 63 61 57 47 36 19 6 4 0 0 18 5 0 0 0 0 0 0 0 0 0 0 0 0 0 0 0 0 0 0 0 0 0 0 0 0 0 0 0
84 66 42 41 39 13 93 84 81 72 59 54 27 38 0 0 0 0 7 1 2 0 0 0 0 0 0 0 0 0 0 0 0 0 0 0 0 0 0 0 0 0 0 0 0 0 0
67 63 42 46 53 13 48 91 82 65 57 49 12 12 0 5 8 1 1 14 0 0 0 0 0 0 0 0 0 0 0 0 0 0 0 0 0 0 0 0 0 0 0 0 0 0 0
30 55 47 42 44 47 97 101 66 73 87 30 19 15 14 0 9 0 1 0 0 0 0 0 0 0 0 0 0 0 0 0 0 0 0 0 0 0 1 0 0 0 0 0 0 0 0
28 30 40 42 65 44 112 55 44 44 90 11 61 13 50 60 0 2 1 3 0 0 0 0 0 0 0 0 0 0 0 0 0 0 0 0 0 0 0 0 0 6 4 0 0 0 0
37 21 29 35 80 24 115 52 65 25 81 17 43 7 2 6 20 24 7 1 10 2 0 0 0 0 0 0 0 0 0 0 0 0 0 0 0 0 0 0 0 0 0 0 0 0 0
29 26 25 35 53 55 98 82 54 5 8 20 34 33 24 1 1 13 13 6 1 1 0 0 0 0 0 0 0 0 0 0 0 0 0 0 0 0 0 0 0 0 0 0 0 0 0
48 33 29 60 64 73 73 63 57 5 8 13 0 2 12 0 1 9 1 0 0 6 0 0 0 0 0 0 0 0 0 0 0 0 0 0 0 0 2 0 0 0 0 0 0 0 0
48 38 48 73 94 94 73 53 59 41 7 46 0 8 39 0 0 0 0 4 0 0 0 0 0 0 0 0 0 0 0 0 0 0 0 0 0 0 0 0 0 0 0 0 0 0 0
41 44 83 86 117 85 56 78 90 64 51 16 0 21 63 41 14 2 0 0 2 0 0 0 0 0 0 0 0 6 5 6 0 0 0 0 0 0 0 0 0 0 0 0 0 0 0
36 83 83 96 88 80 79 76 73 108 45 0 9 27 8 28 39 25 0 0 0 0 0 0 0 0 4 0 0 0 44 0 1 0 0 0 0 0 0 0 0 0 0 0 0 0 0
84 86 73 52 36 41 17 36 103 113 102 21 70 52 48 9 16 49 37 0 0 0 0 0 0 48 0 0 0 0 0 0 0 0 0 0 0 0 0 0 0 0 0 0 0 0 0
64 39 35 50 61 37 17 41 141 61 31 8 15 39 8 9 0 29 0 8 0 0 0 0 18 10 0 4 0 0 0 0 0 0 0 0 0 0 0 0 0 0 0 0 0 0 0
68 66 59 55 31 42 86 127 135 88 87 16 31 44 20 2 11 4 0 0 0 0 0 0 0 0 0 3 0 0 0 0 0 0 0 0 0 0 0 0 0 0 0 0 0 0 0

GFSGBSN_con_sbcape_054.txt.gz
CAPE
24 26 31 25 31 34 16 15 6 0 0 0 0 0 0 0 0 0 0 0 0 0 0 0 3 0 0 0 0 0 0 0 0 0 0 0 0 0 0 0 0 0 0 0 0 3 26
31 36 35 35 23 23 18 20 21 10 0 0 0 0 0 0 0 0 0 0 0 0 0 0 2 0 0 0 0 0 0 0 0 0 0 0 0 0 0 0 0 0 0 17 7 14 23
23 35 31 36 28 24 23 22 23 23 8 0 0 1 0 0 0 0 0 0 0 0 0 0 1 0 0 0 0 0 0 0 0 0 0 0 0 0 0 0 0 0 0 66 72 32 118
51 34 33 31 36 27 20 16 21 18 19 1 0 0 4 0 0 0 0 0 0 0 0 0 0 0 0 0 0 0 0 0 0 0 0 0 0 0 0 0 0 0 0 21 8 57 1
60 53 45 35 31 35 29 24 19 24 24 18 0 0 0 0 0 0 0 0 0 0 1 0 0 0 0 0 0 0 0 0 0 0 0 0 0 0 0 0 0 0 0 0 45 9 38
31 73 60 42 32 34 40 33 6 22 24 19 6 0 0 0 0 0 0 0 0 0 0 1 0 0 0 0 0 0 0 0 0 0 0 0 0 0 0 0 0 2 4 0 0 0 18
67 66 72 63 48 38 38 39 34 21 22 20 19 4 0 0 0 0 0 0 0 0 0 0 0 0 0 0 0 0 0 0 0 0 0 0 0 0 0 0 0 0 0 0 0 0 2
41 60 50 65 65 56 44 42 33 29 26 29 23 13 0 0 0 0 0 0 0 0 0 0 0 0 0 0 0 0 0 0 0 0 0 0 0 0 0 0 0 0 0 0 0 0 0
27 27 60 28 50 65 55 46 40 28 30 24 23 7 0 0 0 0 0 0 0 0 0 0 0 0 0 0 0 0 0 0 0 0 0 0 0 0 0 0 0 0 0 0 0 0 0
47 26 19 61 78 63 66 51 47 41 23 23 21 0 0 8 0 0 0 0 0 0 0 0 0 0 0 0 0 0 0 0 0 0 0 0 0 0 0 0 0 0 0 0 0 0 0
52 46 30 38 71 77 60 45 43 53 30 22 20 9 1 3 0 0 0 0 0 0 0 0 0 0 0 0 0 0 0 0 0 0 0 0 0 0 0 0 0 0 0 0 0 0 0
65 55 41 33 35 68 80 56 48 47 51 22 18 23 1 21 0 0 0 0 0 0 0 0 0 0 0 0 0 0 0 0 0 0 0 0 0 0 0 0 0 0 0 0 0 0 0
81 66 48 31 27 41 58 74 59 57 56 28 23 21 31 30 11 0 0 0 13 0 0 0 0 0 0 0 0 0 0 0 0 0 0 0 0 0 0 0 0 0 0 0 0 0 0
99 82 61 34 27 28 52 83 72 58 60 34 24 20 15 30 0 0 3 36 2 0 0 0 0 0 0 0 0 0 0 0 0 0 0 0 0 0 0 0 0 0 0 0 0 0 0
114 105 81 39 45 23 38 40 90 61 72 45 25 20 28 3 0 0 40 35 0 0 0 0 0 0 0 0 0 0 0 0 0 0 0 0 0 0 0 0 0 0 0 0 0 0 0
103 108 103 48 33 15 24 31 101 86 73 72 32 24 5 11 5 0 8 2 0 0 0 0 0 0 0 0 0 0 0 0 0 0 0 0 0 0 0 0 0 0 0 0 0 0 0
85 87 95 58 23 19 13 41 54 98 77 70 42 33 0 36 37 10 1 3 1 0 0 0 0 0 0 0 0 0 0 0 0 0 0 0 0 0 0 0 0 0 0 0 0 0 0
60 68 80 64 22 25 20 30 14 83 95 62 17 4 0 35 45 20 17 1 1 0 0 0 0 0 0 0 0 0 0 0 0 0 0 0 0 0 0 0 0 0 0 0 0 0 0
48 65 81 63 34 30 21 26 2 99 110 9 7 3 68 0 2 18 16 1 0 0 0 0 0 0 0 0 0 0 0 0 0 0 0 0 0 0 0 0 0 0 0 0 0 0 0
77 71 76 64 32 47 22 26 11 57 101 29 13 0 69 50 0 2 22 20 0 0 0 0 0 0 0 0 0 0 0 0 0 0 0 0 0 0 0 0 0 0 0 0 0 0 0
63 73 62 47 30 48 37 44 4 64 95 65 15 0 12 27 8 7 2 3 4 0 0 0 0 0 0 0 0 0 0 0 0 0 0 0 0 0 0 0 0 0 0 0 0 0 0
73 43 65 26 28 48 53 48 21 85 116 79 4 0 32 0 0 13 30 8 4 0 0 0 0 0 0 0 0 0 0 0 0 0 0 0 0 0 0 0 0 0 0 0 0 0 0
49 12 48 20 29 55 57 36 74 75 101 60 0 3 50 0 3 5 3 6 2 0 0 0 0 0 0 0 0 0 0 0 0 0 0 0 0 0 0 0 0 0 0 0 0 0 0
58 0 45 28 26 48 45 46 65 51 41 3 0 15 53 0 11 0 0 13 3 0 0 0 0 0 0 0 0 0 0 0 0 0 0 0 0 0 0 0 0 0 0 0 0 0 0
66 55 35 31 36 48 43 58 62 61 65 38 0 20 55 18 2 9 2 0 6 0 0 0 0 0 0 0 0 0 0 0 0 0 0 0 0 0 0 0 0 0 0 0 0 0 0
92 82 40 34 40 26 59 69 72 40 59 29 4 0 40 42 25 10 0 0 1 0 0 0 0 0 0 0 0 0 7 0 0 0 0 0 0 0 0 0 0 0 0 0 0 0 0
65 41 43 46 23 47 66 33 44 40 37 52 3 0 12 14 22 37 4 0 0 0 0 0 0 0 0 0 0 0 0 0 0 0 0 0 0 0 0 0 0 0 0 0 0 0 0
22 40 41 35 63 65 42 15 45 46 56 35 10 3 18 23 0 6 1 5 0 0 0 0 0 4 0 0 1 6 0 0 0 0 0 0 1 0 0 0 0 0 0 0 0 0 0
36 34 64 71 67 63 40 40 87 73 88 30 17 82 52 15 6 0 0 0 0 0 0 0 0 0 0 0 0 0 0 0 0 0 0 1 0 0 0 0 0 0 0 0 0 0 0

GFSGBSN_con_sbcape_057.txt.gz
CAPE
18 19 33 28 31 25 6 7 32 15 3 0 0 0 1 0 0 0 0 0 0 0 0 0 0 0 0 0 0 0 0 0 0 0 0 0 0 0 0 0 0 0 0 0 0 0 17
36 32 31 37 32 31 21 26 10 22 16 2 0 0 0 0 0 0 0 0 0 0 0 0 0 0 0 0 0 0 0 0 0 0 0 0 0 0 0 0 0 0 0 12 67 15 48
41 45 34 28 26 34 35 21 23 20 23 13 5 0 0 0 1 0 0 0 0 0 0 0 0 0 0 0 0 0 0 0 0 0 0 0 0 0 0 0 0 0 0 20 118 72 110
49 40 48 35 23 27 31 33 28 27 20 27 25 4 0 0 0 0 0 0 0 0 0 0 0 0 0 0 0 0 0 0 0 0 0 0 0 0 0 0 0 0 0 20 39 144 27
50 49 32 55 32 28 24 28 33 28 25 22 34 19 0 0 0 1 0 0 0 0 0 0 0 0 0 0 0 0 0 0 0 0 0 0 0 0 0 0 0 0 0 0 22 59 86
23 23 52 63 56 36 36 26 32 29 22 20 21 18 5 0 0 0 0 0 0 0 0 4 0 0 0 0 0 0 0 0 0 0 0 0 0 0 0 0 0 10 1 0 0 0 55
43 36 32 55 78 37 46 43 27 32 25 14 25 24 7 0 0 1 0 0 0 0 0 0 0 0 0 0 0 0 0 0 0 0 0 0 0 0 0 0 0 0 0 0 0 0 56
64 51 54 37 48 74 55 49 34 30 31 28 11 29 13 0 0 0 0 0 0 0 0 0 0 0 0 0 0 0 0 0 0 0 0 0 0 0 0 0 0 0 1 3 0 0 0
68 62 57 49 27 53 70 58 39 37 31 33 20 23 16 0 1 0 0 0 0 0 0 0 0 0 0 0 0 0 0 0 0 0 0 0 0 0 0 0 0 0 0 0 1 0 0
70 65 67 67 46 35 66 89 66 45 40 29 26 18 5 0 2 0 0 0 0 0 0 0 0 0 0 0 0 0 0 0 0 0 0 0 0 0 0 0 0 0 0 0 0 0 1
59 69 70 69 69 41 17 37 86 61 52 46 25 20 9 7 0 0 0 0 0 0 0 0 0 0 0 0 0 0 0 0 0 0 0 0 0 0 0 0 0 0 0 0 0 0 0
80 68 68 76 61 48 34 31 64 77 53 52 33 24 21 11 22 0 0 0 0 2 0 0 0 0 0 0 0 0 0 0 0 0 0 0 0 0 0 0 0 0 0 0 0 0 0
99 95 87 74 69 65 51 44 46 66 63 65 47 28 38 52 5 0 0 0 14 3 0 0 0 0 0 0 0 0 0 0 0 0 0 0 0 0 0 0 0 0 0 0 0 0 0
97 93 100 99 75 75 65 42 30 53 60 59 59 29 27 21 20 0 20 16 7 0 0 0 0 0 0 0 0 0 0 0 0 0 0 0 0 0 0 0 0 0 0 3 0 0 0
98 97 86 89 101 78 73 48 29 43 69 60 84 41 20 10 0 0 54 34 0 0 0 0 0 0 0 0 0 0 0 0 0 0 0 0 0 0 0 0 0 0 0 0 0 0 0
118 97 91 73 86 102 71 54 36 41 82 57 34 56 34 5 10 17 16 3 0 0 0 0 0 0 0 0 0 0 0 0 0 0 0 0 0 0 0 0 0 0 0 0 1 0 0
87 126 110 78 63 83 75 55 35 45 90 71 39 37 3 21 63 26 12 9 2 0 0 0 0 0 0 0 0 0 0 0 0 0 0 0 0 0 0 0 0 0 0 0 0 0 0
84 121 130 93 60 74 64 49 37 31 86 49 30 3 0 30 13 31 21 12 2 0 0 0 0 0 0 0 0 0 0 0 0 0 0 0 0 0 0 0 0 0 0 0 0 0 0
82 83 87 97 69 62 55 34 17 27 81 11 25 27 21 3 4 10 12 25 8 0 0 0 0 0 0 0 0 0 0 0 0 0 0 0 0 0 0 0 0 0 0 0 0 0 0
77 74 82 127 103 67 55 29 12 22 95 7 12 7 79 55 3 0 19 18 29 5 0 0 0 0 0 0 0 0 0 0 0 0 0 0 0 0 0 0 0 0 0 0 3 0 0
64 67 75 86 90 63 55 31 13 17 65 12 3 15 2 32 13 0 3 2 8 11 0 0 0 0 0 0 0 0 0 0 0 0 0 0 0 0 0 0 0 0 0 0 0 0 0
86 64 66 76 48 75 47 26 21 28 83 10 1 5 1 18 7 22 30 11 8 8 0 0 0 0 0 0 0 0 0 0 0 0 0 0 0 0 0 0 0 0 0 0 0 0 0
84 82 63 86 85 65 39 27 35 59 103 8 4 0 2 0 12 12 8 9 16 4 0 0 0 0 0 0 0 0 0 0 0 0 0 0 0 0 0 0 0 0 0 0 0 0 0
85 83 74 89 69 74 30 28 48 50 37 21 2 0 54 13 7 1 1 25 6 3 0 0 0 0 0 0 0 0 0 0 0 0 0 0 0 0 0 0 0 0 0 0 0 0 0
66 81 56 114 101 53 23 39 41 30 57 14 0 3 64 10 17 1 0 22 36 25 1 0 0 0 0 0 0 0 0 0 0 0 0 0 0 0 0 0 0 0 0 0 0 0 0
66 59 66 91 68 28 22 35 30 26 104 18 0 0 22 69 31 10 0 0 21 5 0 0 0 0 0 0 0 0 0 0 0 0 0 0 0 0 0 0 0 0 0 0 0 0 0
31 14 37 56 25 22 30 31 27 53 102 16 2 0 26 78 34 54 32 0 1 0 0 0 0 0 0 0 0 0 0 0 0 0 0 0 0 0 0 0 0 0 0 0 0 0 0
32 28 54 11 23 35 23 34 44 55 59 6 4 0 42 103 15 41 1 11 0 0 0 0 0 0 0 0 0 0 0 0 0 0 0 0 0 0 0 0 0 0 0 0 0 0 0
29 9 15 23 35 31 31 40 55 77 48 15 9 8 18 23 58 0 0 0 0 0 0 0 0 0 0 0 0 0 0 0 0 0 0 0 0 0 0 0 0 0 0 0 0 0 0

GFSGBSN_con_sbcape_060.txt.gz
CAPE
48 21 30 28 31 38 23 36 17 13 11 16 1 0 0 0 15 1 0 0 0 0 0 0 0 0 0 0 0 0 0 0 0 0 0 0 0 0 0 0 0 0 1 11 28 110 7
36 38 49 30 27 28 25 34 29 20 13 12 9 2 0 0 2 7 0 0 0 0 0 0 0 0 0 0 0 0 0 0 0 0 0 0 0 0 0 0 5 1 6 32 153 101 121
26 34 36 48 41 30 30 24 28 20 19 16 12 12 9 0 1 1 2 0 0 0 0 0 0 0 0 0 0 0 0 0 0 0 0 0 0 0 0 0 0 6 26 54 334 318 487
17 15 29 36 41 36 30 27 26 29 24 15 14 20 10 0 0 0 0 0 0 0 0 0 0 0 0 0 0 0 0 0 0 0 0 0 0 0 0 0 0 0 13 73 266 403 387
32 31 22 34 41 49 46 29 27 27 35 22 15 13 9 0 0 0 1 1 0 0 0 0 0 0 0 0 0 0 0 0 0 0 0 0 0 0 0 0 1 1 73 43 177 388 380
40 43 45 37 31 43 59 64 28 28 23 26 21 18 14 0 0 0 1 0 0 0 1 3 0 0 0 0 0 0 0 0 0 0 0 0 0 0 0 1 6 5 40 51 43 168 260
38 63 50 48 33 33 45 77 62 33 28 24 24 21 15 7 0 0 0 12 0 0 4 0 0 0 0 0 0 0 0 0 0 0 0 0 0 0 0 0 11 17 28 44 50 30 175
39 39 57 64 52 39 14 27 46 55 33 31 29 19 20 17 0 0 2 22 1 0 0 0 0 0 0 0 0 0 0 0 0 0 0 0 0 0 0 0 0 33 19 20 14 4 24
45 44 54 68 70 63 44 27 27 49 37 30 30 22 17 15 1 9 5 17 0 0 0 0 0 0 0 0 0 0 0 0 0 0 0 0 0 0 0 2 6 34 60 35 40 19 24
62 53 59 65 85 79 66 46 34 44 62 40 40 28 14 7 3 13 16 1 0 0 1 0 0 0 0 0 0 0 0 0 0 0 0 0 0 0 0 0 0 12 12 14 12 23 66
76 73 72 78 61 59 63 53 28 45 63 52 53 40 20 17 23 1 9 0 0 11 0 0 0 0 0 0 0 0 0 0 0 0 0 0 0 0 0 0 0 5 0 20 31 46 49
77 75 71 86 88 75 63 62 46 27 29 74 43 55 31 32 12 3 0 6 1 14 0 0 0 0 0 0 0 0 0 0 0 0 0 0 0 0 0 0 0 0 13 27 77 76 91
71 75 81 79 61 88 87 72 64 31 23 39 52 60 52 34 8 3 13 16 37 1 0 0 0 0 0 0 0 0 0 0 0 0 0 0 0 0 0 1 0 1 17 129 111 101 104
60 69 78 77 87 79 87 81 70 36 27 38 60 44 56 60 14 44 35 85 0 0 0 0 0 0 0 0 0 0 0 0 0 0 0 0 0 0 0 0 20 13 53 91 21 31 39
95 81 79 80 76 93 87 90 79 57 32 37 70 95 70 69 29 72 91 33 0 0 0 0 0 0 0 0 0 0 0 0 0 0 0 0 0 0 0 0 2 35 36 24 115 11 92
97 96 88 78 77 68 79 85 87 73 37 68 83 72 54 53 102 24 39 0 0 0 0 0 0 0 0 0 0 0 0 0 0 0 0 0 0 0 0 0 0 43 15 59 96 21 9
80 99 96 86 75 67 65 80 78 69 47 86 95 22 34 41 106 29 9 0 0 0 0 0 0 0 0 0 0 0 0 0 0 0 0 0 0 0 1 0 23 22 50 30 49 39 61
57 59 73 80 81 76 62 68 68 60 57 116 44 4 141 81 35 29 27 4 0 0 0 0 0 0 4 0 0 0 0 0 0 0 0 0 0 0 0 0 0 26 72 85 60 20 31
78 78 73 110 72 71 56 66 58 47 73 141 39 21 194 146 18 20 29 36 9 0 0 0 0 0 11 22 0 0 0 0 0 0 0 0 0 0 0 0 0 4 13 19 25 3 11
68 66 78 105 120 112 73 82 54 44 64 176 36 13 52 86 12 3 48 42 27 9 0 2 0 2 5 10 14 0 0 0 0 0 0 0 0 0 0 1 1 3 8 9 30 54 0
73 71 69 90 109 144 188 145 59 40 58 80 25 66 3 2 38 7 20 22 42 40 3 9 2 0 7 13 51 19 0 2 0 0 0 0 2 0 0 0 0 0 0 0 4 0 18
101 75 64 62 88 99 127 174 41 35 63 45 21 50 65 15 12 10 15 52 35 28 0 3 1 0 8 38 55 22 3 16 8 0 0 0 0 0 0 0 0 0 0 0 0 0 17
100 102 80 49 66 98 118 107 47 33 61 28 20 38 67 8 22 51 49 8 32 65 24 2 0 0 10 18 16 10 0 0 0 2 0 9 10 3 3 0 0 0 0 0 1 10 42
96 125 120 84 70 90 99 60 20 28 54 57 26 62 81 63 63 13 13 8 8 57 38 54 7 1 0 7 0 6 1 0 0 8 25 13 11 16 2 1 55 0 0 8 12 6 38
75 121 134 100 87 80 80 47 18 21 56 58 7 90 56 105 19 27 14 20 26 60 53 65 16 0 18 3 0 0 6 5 20 11 23 25 17 15 81 3 0 0 0 0 25 16 32
168 71 117 92 84 64 57 62 26 29 57 59 27 170 110 96 35 29 18 27 52 102 126 68 37 35 40 40 40 0 0 0 72 35 0 0 0 81 0 26 47 0 0 0 0 40 46
127 75 87 87 63 49 41 39 18 36 68 44 107 104 181 42 54 71 83 39 77 138 132 88 47 37 17 36 88 40 0 16 60 86 3 0 0 24 15 27 2 0 0 0 3 175 39
46 58 68 59 47 30 22 12 23 39 68 78 67 84 204 78 71 95 123 87 118 219 179 101 145 14 66 63 33 49 173 8 52 42 39 44 48 15 31 85 11 0 0 0 61 3 4
32 40 34 38 19 12 11 21 32 51 54 48 40 57 69 101 138 60 49 131 96 88 146 218 0 0 5 36 59 24 133 45 18 26 32 110 60 120 9 65 31 0 22 0 1 5 0

GFSGBSN_con_sbcape_063.txt.gz
CAPE
15 17 21 31 31 26 20 28 24 17 15 10 11 2 0 0 0 1 1 1 0 0 0 0 0 0 0 0 0 0 0 0 0 0 0 0 0 0 0 0 0 0 0 14 11 19 69
12 19 9 31 14 37 16 30 23 21 18 14 15 13 6 0 0 0 0 1 1 0 0 0 0 0 0 0 0 0 0 0 0 0 0 0 0 0 0 0 0 11 3 3 23 28 40
16 25 27 23 26 27 24 32 27 23 20 21 17 15 20 15 4 0 0 0 0 0 0 0 0 0 0 0 0 0 0 0 0 0 0 0 0 0 0 0 0 0 3 11 20 72 25
36 30 25 24 23 27 30 45 41 28 26 23 23 21 18 16 0 0 0 0 0 0 0 0 0 0 0 0 0 0 0 0 0 0 0 0 0 0 0 0 0 0 2 30 7 49 65
53 45 35 32 23 22 22 27 51 46 29 25 26 18 13 15 3 0 0 0 0 0 0 0 0 0 0 0 0 0 0 0 0 0 0 0 0 0 0 0 2 21 22 5 65 49 68
22 37 52 52 33 26 18 17 28 48 43 26 29 26 17 14 6 0 0 0 0 0 0 1 0 0 0 0 0 0 0 0 0 0 0 0 0 0 0 8 34 27 22 61 42 53 32
22 31 41 41 58 50 43 33 17 26 53 40 28 30 26 15 15 0 0 0 1 9 20 0 0 0 0 0 0 0 0 0 0 0 0 0 0 0 35 46 4 18 50 46 70 38 23
38 43 46 45 37 58 44 45 28 17 27 54 41 30 25 21 22 0 18 0 0 0 0 0 0 0 0 0 0 0 0 0 0 0 0 3 0 1 4 0 0 17 69 40 51 15 22
45 43 49 48 55 52 60 73 46 26 16 27 53 39 26 16 17 1 10 0 3 7 1 0 0 0 0 0 0 0 0 0 0 0 0 1 5 1 0 0 0 26 59 47 51 58 23
54 46 46 60 69 65 66 75 74 47 21 22 41 29 30 15 0 0 3 0 5 5 0 0 0 0 0 0 0 0 0 0 0 0 0 0 2 0 0 1 10 51 24 2 16 19 48
63 56 52 56 65 66 64 58 65 68 41 30 46 40 42 12 1 17 27 7 7 18 0 0 0 0 0 0 0 0 0 0 0 0 0 0 0 0 0 4 12 30 5 0 11 84 114
66 66 67 58 50 56 63 70 55 54 54 40 53 50 39 43 28 0 24 29 149 38 0 0 0 0 0 0 0 0 0 0 0 0 0 0 0 0 0 1 0 7 0 5 17 95 165
57 65 64 62 56 47 58 71 82 61 55 50 60 60 56 52 37 0 2 149 51 0 0 0 0 0 0 0 0 0 0 0 0 0 0 0 1 0 0 0 0 1 17 86 145 114 147
56 57 59 60 59 63 64 62 71 75 60 50 48 56 59 64 34 54 183 152 8 0 0 0 0 0 0 0 0 0 0 0 0 0 0 0 2 0 0 0 37 24 44 174 117 170 10
69 69 65 68 65 66 79 73 72 75 85 44 64 75 53 92 61 15 24 95 0 0 0 0 0 0 0 0 0 0 0 0 0 0 0 1 1 2 2 0 5 74 67 93 124 99 70
86 89 92 78 66 56 58 69 76 80 79 53 91 74 55 80 120 63 18 32 0 0 0 0 0 0 0 0 0 0 0 0 0 0 0 2 36 0 0 0 0 33 75 85 83 108 150
80 93 86 87 79 57 51 53 61 73 62 54 82 64 47 123 236 99 14 1 16 0 0 1 0 0 1 0 0 0 0 0 0 0 0 8 19 15 18 0 10 10 93 73 102 120 187
68 74 68 67 55 50 54 59 63 58 53 57 79 37 59 152 39 85 8 3 5 0 5 28 31 5 16 10 0 0 0 2 0 0 0 1 5 85 3 1 0 28 37 82 111 95 77
78 75 61 59 61 63 67 59 68 58 48 53 31 50 158 178 41 77 2 0 2 46 4 44 41 50 27 54 11 0 0 1 0 0 2 0 7 33 43 25 2 9 63 98 103 82 59
57 70 71 95 99 85 73 71 70 58 43 36 27 12 90 109 59 9 1 1 12 3 34 50 57 62 98 94 86 29 6 0 0 0 0 9 5 11 27 14 10 3 11 44 73 170 37
65 58 64 103 131 105 100 54 54 60 29 26 32 55 17 32 56 29 23 21 0 1 1 49 81 54 97 70 96 104 37 0 0 0 0 1 10 4 4 27 29 18 16 21 41 43 58
70 72 81 86 114 117 100 108 53 46 29 19 17 56 80 55 58 44 30 58 34 0 14 35 76 55 83 150 123 177 89 47 9 4 2 5 29 9 17 12 20 13 5 12 9 11 5
66 81 79 83 70 110 85 79 51 61 25 9 43 22 124 68 87 107 53 22 48 22 26 57 38 72 106 202 72 40 49 18 24 76 25 66 103 51 26 16 28 52 0 5 5 10 10
111 87 79 77 79 96 85 111 97 105 38 16 44 34 123 65 96 22 22 11 20 54 14 84 92 89 104 14 3 25 35 0 2 0 66 68 77 156 83 10 64 0 1 1 4 0 7
65 89 80 61 82 65 59 88 92 59 43 28 30 133 138 109 59 37 43 38 66 66 67 122 118 93 85 11 17 8 6 0 0 4 47 153 156 222 138 77 0 0 0 0 3 0 11
73 57 81 70 57 50 47 75 101 86 26 25 112 164 237 161 57 54 44 57 97 117 87 120 224 180 148 74 70 14 3 0 14 0 9 78 221 287 100 45 43 0 0 2 25 39 14
92 127 51 87 95 50 49 61 63 30 30 24 114 349 201 107 28 22 57 15 63 133 146 159 247 238 182 160 215 73 1 0 38 89 24 94 142 178 118 84 2 0 2 23 82 170 49
89 67 43 94 78 56 53 53 39 42 31 28 95 252 284 76 76 77 80 55 74 218 239 162 235 300 333 210 99 54 197 10 47 54 123 92 111 171 134 188 77 0 2 52 205 162 87
35 46 45 59 48 52 48 39 29 37 34 42 190 238 208 205 127 121 172 108 103 101 180 256 101 105 63 92 171 106 263 211 31 193 124 94 163 165 139 110 104 3 108 58 137 218 188

GFSGBSN_con_sbcape_066.txt.gz
CAPE
15 6 6 7 8 8 26 34 24 19 15 19 10 14 8 0 0 2 0 0 0 5 6 0 0 0 0 0 0 0 0 0 0 0 0 0 0 0 0 0 0 0 0 0 0 0 0
22 14 11 11 1 0 9 13 41 24 20 16 15 17 15 10 1 0 0 0 0 0 11 2 0 0 0 0 0 0 0 0 0 0 0 0 0 0 0 0 0 0 2 0 0 0 0
16 30 30 33 27 17 1 16 29 43 27 25 19 24 18 21 15 0 0 0 0 0 2 1 1 0 0 0 0 0 0 0 0 0 0 0 0 0 0 0 0 0 0 0 0 0 0
15 36 35 31 28 23 22 19 15 29 44 32 27 21 26 16 15 8 0 0 0 0 0 0 0 1 1 0 0 0 0 0 0 0 0 0 0 0 0 0 0 0 0 0 0 1 2
29 29 25 39 36 30 22 16 14 21 34 49 36 28 23 19 15 11 0 0 0 0 0 0 0 0 0 0 0 0 0 0 0 0 0 0 0 0 0 0 0 0 0 0 4 7 10
18 35 38 35 31 39 39 28 17 16 19 29 46 31 28 25 19 14 0 0 0 0 0 1 5 0 0 0 0 0 0 0 0 0 0 0 0 0 0 0 0 2 4 11 6 0 27
20 28 43 42 39 42 38 57 42 26 17 27 41 47 30 25 27 16 0 0 0 3 10 0 0 0 0 0 0 0 0 0 0 0 0 0 0 0 0 0 2 16 0 9 11 5 20
43 42 33 37 55 55 20 32 35 39 31 19 22 34 44 31 27 24 2 0 0 3 0 0 0 0 0 0 0 0 0 0 0 0 0 0 0 0 0 7 0 0 0 7 20 7 0
48 55 53 47 56 63 47 61 38 40 40 21 22 30 41 32 27 3 2 0 0 22 1 0 0 0 0 0 0 0 0 0 0 0 0 0 0 0 0 3 0 0 0 3 43 10 10
52 56 55 56 56 63 76 84 77 67 58 35 16 30 38 24 0 0 0 0 0 15 2 0 0 0 0 0 0 0 0 0 0 0 0 0 0 5 4 0 0 2 0 7 15 23 26
61 54 59 63 65 54 52 62 79 86 79 56 32 37 37 29 1 11 3 10 71 110 0 0 0 0 0 0 0 0 0 0 0 0 0 0 0 0 0 0 0 16 0 12 0 4 33
59 63 67 64 62 56 55 58 61 67 85 85 51 54 52 38 24 0 0 1 87 58 0 0 0 0 0 0 0 0 0 0 0 0 0 0 0 0 0 0 2 5 1 0 0 2 30
72 73 68 62 59 61 67 63 64 67 77 87 68 64 56 39 16 2 12 15 87 4 0 0 0 0 0 0 0 0 0 0 0 0 0 0 0 1 0 0 1 0 0 9 52 82 144
66 58 56 56 64 57 60 66 60 62 68 78 61 61 39 38 32 31 153 57 60 0 0 0 0 0 0 0 0 0 0 0 0 0 0 0 0 0 0 0 2 0 0 41 30 1 130
62 60 59 61 66 67 68 68 66 63 63 62 51 101 82 59 41 224 52 81 15 0 0 0 0 5 1 0 0 0 0 0 0 0 0 0 0 0 0 0 0 14 21 16 41 37 121
54 54 55 59 59 61 62 67 69 66 68 52 79 120 78 96 161 144 59 10 0 0 0 0 0 5 24 0 0 0 0 0 0 0 1 0 37 2 0 0 0 0 7 49 80 5 36
39 39 50 54 54 54 60 62 61 54 58 49 50 42 41 87 195 80 20 5 0 0 0 0 0 0 0 20 0 0 0 0 0 0 0 6 18 51 45 0 0 0 4 53 59 71 123
40 48 47 63 65 62 61 54 55 58 46 60 27 27 49 109 58 10 13 5 2 0 0 0 0 0 9 6 30 0 0 0 0 0 14 11 60 87 17 0 0 4 3 72 142 99 109
66 67 66 62 62 54 63 64 63 56 55 39 15 31 50 126 26 0 16 0 10 6 3 14 0 18 91 104 41 29 0 11 11 0 0 21 16 81 13 14 3 0 5 8 58 95 122
98 90 87 66 65 73 78 65 57 52 51 30 12 2 80 54 44 22 13 1 10 0 13 7 5 9 108 60 95 36 18 7 48 34 0 41 101 75 76 15 3 5 3 39 75 106 119
63 65 65 66 67 62 62 69 58 59 48 26 7 23 42 20 27 31 34 14 17 13 7 14 50 7 25 65 39 65 92 14 0 1 26 104 150 118 28 23 15 1 0 0 0 26 74
56 60 55 58 79 66 59 50 81 71 64 12 1 25 74 15 28 45 42 40 25 5 19 0 42 51 78 143 102 63 114 62 35 6 53 73 115 132 105 28 4 6 13 1 0 0 9
70 73 71 69 70 75 62 54 49 80 65 5 13 1 67 14 51 53 33 22 4 21 12 6 2 92 86 3 123 47 32 60 40 88 71 99 111 99 50 22 11 0 6 14 14 18 16
61 65 71 86 81 63 65 59 53 64 87 6 17 4 128 64 74 18 7 16 16 24 41 19 24 212 102 26 46 1 1 5 6 19 30 181 205 100 129 36 10 0 0 1 3 2 5
55 79 86 100 111 73 54 49 51 75 73 10 20 65 104 94 17 38 33 65 22 70 60 78 58 38 332 157 74 12 30 7 11 18 1 43 268 148 123 50 14 0 0 2 7 2 8
69 70 76 78 89 71 35 65 58 95 88 26 25 26 195 230 68 9 56 72 73 94 69 62 35 409 349 117 11 30 9 18 29 10 0 0 247 154 229 61 22 51 0 0 12 1 0
50 46 50 61 52 62 36 53 47 86 135 31 29 55 265 170 225 123 88 20 49 84 87 67 58 253 417 161 49 88 50 18 30 32 0 17 104 70 67 63 71 13 10 4 21 51 97
38 50 70 106 59 53 38 46 70 93 75 22 46 36 339 108 84 10 52 108 125 130 52 71 236 116 277 259 195 70 141 6 6 0 61 37 80 60 61 49 36 45 34 16 66 269 258
23 56 88 40 33 46 41 38 52 97 63 36 42 46 350 229 34 63 84 89 212 43 224 259 160 104 111 152 119 178 505 302 4 0 24 39 51 110 102 89 204 62 117 114 271 396 304

GFSGBSN_con_sbcape_069.txt.gz
CAPE
14 13 10 4 0 2 3 12 20 27 23 18 18 9 9 15 14 13 1 0 0 0 0 0 21 6 0 0 0 0 0 0 0 0 0 0 0 0 0 0 0 0 0 0 0 0 0
34 23 30 16 16 9 6 3 17 18 24 27 20 17 19 5 11 20 11 0 0 0 0 1 13 3 2 0 0 0 0 0 0 0 0 0 0 0 0 0 0 0 0 0 0 0 0
11 30 45 38 35 30 18 16 18 21 14 24 33 30 5 16 7 10 13 0 0 0 0 0 5 34 5 0 0 0 0 0 0 0 0 0 0 0 0 0 0 0 0 0 0 0 0
16 14 22 29 34 43 33 23 21 15 23 18 32 32 29 4 5 4 11 3 0 0 0 0 4 16 0 0 0 0 0 0 0 0 0 0 0 0 0 0 0 0 0 0 0 0 0
31 17 16 30 31 28 31 40 33 26 21 17 24 21 30 28 5 3 6 4 0 0 0 0 9 0 1 0 0 0 0 0 0 0 0 0 0 0 0 0 0 0 0 0 0 0 0
14 21 32 34 34 33 36 37 43 38 24 22 26 28 23 30 25 19 7 0 0 0 0 0 5 0 0 0 0 0 0 0 0 0 0 0 0 0 0 0 0 0 0 0 0 0 3
19 20 26 38 40 41 35 38 32 30 38 29 22 30 36 28 31 28 3 0 0 0 0 0 0 0 0 0 0 0 0 0 0 0 0 0 0 0 0 0 0 0 0 0 0 0 1
27 20 28 42 58 45 45 50 37 26 24 42 29 25 31 24 41 25 2 0 0 0 0 0 0 0 0 0 0 0 0 0 0 0 0 0 0 0 0 0 0 0 0 0 2 0 0
37 37 30 35 45 60 55 72 66 59 46 31 49 31 42 36 40 2 0 0 0 0 0 0 0 0 0 0 0 0 0 0 0 0 0 0 0 0 0 0 0 0 0 0 0 0 0
34 34 43 35 44 56 59 61 60 64 74 57 49 49 36 51 0 0 0 0 0 0 1 0 0 0 0 0 0 0 0 0 0 0 0 0 0 0 0 0 0 0 0 0 4 1 0
47 49 47 48 52 52 51 55 67 77 79 76 71 58 47 67 0 0 0 0 0 22 0 0 0 0 0 0 0 0 0 0 0 0 0 0 0 0 0 0 0 0 7 0 7 0 0
54 56 54 60 63 64 60 60 55 63 71 80 77 74 63 56 23 0 0 0 1 54 1 0 0 0 0 0 0 0 0 0 0 0 0 0 0 0 0 0 0 0 0 0 0 0 0
64 59 61 58 59 67 73 70 70 68 71 75 73 98 70 9 6 0 3 2 67 16 0 0 0 0 0 0 0 0 0 0 0 0 0 0 0 0 0 0 0 0 0 0 0 0 0
72 71 69 75 82 79 75 71 68 70 68 74 64 75 67 20 0 2 21 8 32 0 0 0 0 0 0 0 0 0 0 0 0 0 0 0 0 0 0 0 0 0 0 0 0 0 22
81 79 87 82 75 76 72 70 69 71 67 64 46 44 53 10 0 14 66 36 0 0 0 0 0 1 0 0 0 0 0 0 0 0 0 0 0 0 0 0 0 0 0 1 25 3 0
101 78 63 60 57 55 56 60 70 77 65 46 51 33 24 4 0 30 35 18 0 0 0 0 0 0 26 12 0 0 0 0 0 0 0 0 0 0 0 0 0 0 5 13 39 0 1
69 63 56 45 41 42 53 62 69 76 67 44 40 18 16 0 41 35 2 0 1 0 0 0 0 0 0 0 12 0 0 0 0 0 0 0 0 0 0 0 0 0 0 16 30 5 0
53 53 48 43 40 52 58 71 74 72 60 32 25 2 2 6 35 24 4 2 2 0 0 0 0 0 0 0 0 6 0 0 0 0 0 0 0 0 0 0 0 0 0 4 13 14 10
57 56 55 58 69 67 77 74 81 65 71 37 10 10 8 7 12 12 23 7 9 1 0 0 0 0 0 0 0 73 31 0 0 0 0 0 0 0 0 0 0 0 0 0 44 20 15
69 73 68 68 73 70 78 78 64 62 79 42 1 1 22 32 0 0 4 4 9 1 1 0 0 0 0 0 0 59 59 0 0 0 0 0 0 0 0 0 0 0 0 0 0 0 0
87 91 96 98 104 81 99 70 70 65 56 38 5 1 0 26 16 8 9 9 7 9 0 0 0 0 0 0 0 2 33 33 0 2 0 0 0 0 0 1 0 0 0 0 0 9 35
55 51 48 55 62 68 81 85 77 53 62 24 0 0 3 0 16 24 23 8 5 0 0 0 0 0 0 0 11 38 22 12 0 0 0 0 0 0 0 0 0 0 0 0 0 0 0
74 78 71 68 62 71 80 85 95 79 69 56 2 0 0 0 6 10 1 2 10 6 0 0 0 0 0 0 83 78 12 0 0 1 0 0 1 1 0 0 0 0 0 0 0 0 0
74 73 78 83 91 89 85 77 74 56 56 3 1 0 6 1 2 5 6 10 7 0 0 0 0 0 0 150 217 98 44 1 0 0 3 36 0 1 0 3 0 0 0 0 0 0 0
72 89 77 72 77 74 73 71 59 58 71 35 20 1 4 0 0 10 1 0 0 0 1 0 0 0 0 304 125 33 3 0 0 0 2 18 77 49 0 0 0 0 0 0 0 0 0
54 57 89 75 69 51 21 45 50 56 85 49 20 6 18 1 1 0 0 0 0 0 0 0 0 0 3 116 42 0 20 10 16 0 0 0 0 31 45 22 0 0 0 9 0 0 0
36 31 40 76 82 74 70 48 49 38 69 56 1 0 20 9 8 10 2 0 0 0 0 0 0 10 81 36 17 4 3 16 31 14 0 0 2 0 4 29 5 0 1 17 9 0 0
51 45 38 57 87 86 82 82 80 45 82 45 21 0 30 25 5 20 11 9 1 0 0 0 3 2 2 26 17 14 15 0 2 51 0 0 3 4 3 18 0 10 0 21 0 0 10
39 48 60 47 46 48 58 54 54 40 64 34 17 9 68 72 27 29 42 53 13 28 25 4 0 14 0 0 7 10 8 0 0 0 55 26 0 10 17 0 0 0 0 3 58 57 100

GFSGBSN_con_sbcape_072.txt.gz
CAPE
31 22 9 10 12 12 2 0 13 14 17 16 23 20 20 22 19 10 15 13 7 0 0 0 3 2 3 0 0 0 0 0 0 0 0 0 0 0 0 0 0 0 0 0 0 0 0
19 35 41 25 21 20 14 20 16 15 19 13 18 25 23 15 6 6 6 10 6 0 0 0 0 34 5 0 0 0 0 0 0 0 0 0 0 0 0 0 0 0 0 0 0 0 0
11 33 32 31 25 26 25 30 25 18 17 21 20 19 26 31 5 7 11 9 4 2 0 0 0 17 6 0 0 0 0 0 0 0 0 0 0 0 0 0 0 0 0 0 0 0 0
16 18 20 34 28 30 24 19 34 32 24 17 24 26 19 13 26 8 11 2 0 0 0 0 0 4 2 0 0 0 0 0 0 0 0 0 0 0 0 0 0 0 0 0 0 0 0
19 19 14 32 36 39 35 34 33 39 41 27 22 22 30 13 12 22 14 2 0 0 0 0 1 4 0 0 0 0 0 0 0 0 0 0 0 0 0 0 0 0 0 0 0 0 0
20 19 22 31 34 39 41 35 35 38 37 42 29 24 25 29 12 11 6 0 0 0 0 0 2 3 0 0 0 0 0 0 0 0 0 0 0 0 0 0 0 0 0 0 0 0 0
16 14 13 11 19 16 20 36 34 31 31 39 46 44 37 44 37 8 0 0 0 0 0 0 0 0 0 0 0 0 0 0 0 0 0 0 0 0 0 0 0 0 0 0 0 0 6
18 12 15 12 17 21 34 56 59 49 39 32 29 50 39 45 47 9 0 0 0 0 0 0 0 0 0 0 0 0 0 0 0 0 0 0 0 0 0 0 0 0 0 0 0 0 0
39 24 23 25 32 35 41 56 64 63 60 59 53 50 60 46 25 0 0 0 0 0 0 0 0 0 0 0 0 0 0 0 0 0 0 0 0 0 0 0 0 0 0 0 0 0 0
42 38 37 27 34 40 53 58 69 67 64 60 71 61 62 42 0 0 0 0 0 0 0 0 0 0 0 0 0 0 0 0 0 0 0 0 0 0 0 0 0 0 0 0 0 0 0
36 42 49 51 47 59 53 58 68 84 62 58 57 74 67 45 0 0 0 0 0 0 0 0 0 0 0 0 0 0 0 0 0 0 0 0 0 0 0 0 0 0 0 0 1 0 0
49 48 56 54 51 52 54 73 80 77 87 72 66 76 72 59 0 0 0 0 7 21 0 0 0 0 0 0 0 0 0 0 0 0 0 0 0 0 0 0 0 0 0 0 0 0 0
40 34 42 51 56 52 62 85 84 79 77 67 77 76 79 24 0 0 0 4 56 13 0 0 0 0 0 0 0 0 0 0 0 0 0 0 0 0 0 0 0 0 0 0 0 0 0
39 29 43 53 57 53 65 86 69 66 53 62 62 49 48 51 0 0 34 44 29 0 0 0 0 0 0 0 0 0 0 0 0 0 0 0 0 0 0 0 0 0 0 0 0 0 0
42 38 45 56 65 70 84 81 82 73 69 70 56 43 38 7 0 3 33 0 3 0 0 0 0 0 0 0 0 0 0 0 0 0 0 0 0 0 0 0 0 0 0 0 0 0 0
57 62 62 68 72 78 81 89 84 83 77 72 50 35 32 0 0 29 22 9 0 0 0 0 0 0 0 0 0 0 0 0 0 0 0 0 0 0 0 0 0 0 0 19 6 4 0
62 66 77 84 82 73 75 73 74 74 75 72 56 22 18 0 15 12 14 3 7 0 0 0 0 0 0 0 0 0 0 0 0 0 0 0 0 0 0 0 0 0 0 36 22 0 0
71 74 74 73 70 63 63 62 60 63 66 54 54 1 2 0 11 1 14 11 4 0 0 0 0 0 0 0 0 5 0 0 0 0 0 0 0 0 0 0 0 0 0 1 8 0 0
84 84 80 71 65 56 53 52 53 65 80 40 28 8 4 0 3 4 1 7 13 10 0 0 0 0 0 0 0 6 0 0 0 0 0 0 0 0 0 0 0 0 0 0 21 0 0
80 76 73 74 74 71 70 69 70 78 95 41 1 1 18 10 0 5 6 8 15 12 1 0 0 0 0 0 0 0 0 20 6 1 0 0 0 0 0 0 0 0 0 0 8 11 0
82 84 75 86 92 94 89 84 81 79 88 64 1 0 0 7 8 9 8 3 14 22 13 1 0 0 0 0 0 0 57 19 2 0 0 0 0 0 0 0 0 0 0 0 0 0 3
66 60 61 61 70 72 82 60 67 62 64 61 0 3 0 0 6 15 20 1 12 11 11 0 0 0 0 0 0 0 43 0 26 0 0 0 0 0 0 0 0 0 0 0 0 0 0
70 69 53 58 65 73 67 70 57 62 71 25 0 0 0 0 4 4 1 14 3 15 0 0 0 0 0 0 0 127 45 59 7 0 0 0 0 0 0 0 0 0 0 0 0 0 0
63 67 74 80 80 84 83 72 61 77 73 24 0 6 3 0 1 4 8 9 12 6 0 0 0 0 0 50 71 151 91 58 7 0 0 0 0 0 0 0 0 0 0 0 0 0 0
74 72 78 80 93 88 71 80 70 63 78 41 0 11 8 0 0 6 8 0 0 0 0 0 0 0 0 0 27 8 0 0 0 0 8 0 0 0 2 0 0 0 0 0 0 0 0
77 76 74 66 65 76 70 68 84 81 98 70 1 0 28 1 0 0 0 0 0 0 0 0 0 0 0 13 47 2 1 9 15 0 7 0 0 0 0 0 0 0 0 0 0 0 0
52 61 68 71 64 51 76 65 68 86 115 67 3 15 8 6 0 0 0 0 0 0 0 0 0 0 0 0 14 0 5 12 16 0 3 0 0 2 0 16 13 0 0 0 0 0 0
49 59 62 76 58 36 74 64 64 58 103 79 12 1 1 3 0 0 0 0 0 0 0 0 0 0 0 0 0 0 1 0 0 3 6 1 0 0 0 0 5 0 0 9 0 0 0
49 56 30 53 62 41 72 66 59 74 89 73 22 13 0 21 1 10 0 0 0 0 0 0 0 0 0 0 1 0 15 0 0 0 7 1 0 4 0 0 0 6 29 0 0 0 1

GFSGBSN_con_sbcape_075.txt.gz
CAPE
17 20 28 35 29 25 23 21 21 21 24 19 14 25 14 32 21 16 13 13 9 9 4 0 0 0 4 0 0 0 0 0 0 0 0 0 0 0 0 0 0 0 0 0 0 0 0
21 24 21 20 15 8 11 22 42 28 23 23 23 23 23 22 32 15 10 8 5 3 4 0 0 0 6 0 0 0 0 0 0 0 0 0 0 0 0 0 0 0 0 0 0 0 0
15 16 22 30 24 12 11 27 27 35 32 28 21 25 38 19 13 9 11 3 0 0 0 0 0 4 2 0 0 0 0 0 0 0 0 0 0 0 0 0 0 0 0 0 0 0 0
24 23 22 28 31 28 27 28 24 19 26 36 39 25 24 17 16 8 0 0 0 0 0 0 0 4 0 0 0 0 0 0 0 0 0 0 0 0 0 0 0 0 0 0 0 0 0
28 31 24 38 40 34 30 25 27 14 8 24 39 41 28 23 21 0 0 0 0 0 0 0 1 2 0 0 0 0 0 0 0 0 0 0 0 0 0 0 0 0 0 0 0 0 0
35 27 21 23 37 32 32 35 31 34 29 26 25 38 37 29 25 0 0 0 0 0 0 0 2 1 0 0 0 0 0 0 0 0 0 0 0 0 0 0 0 0 0 0 0 0 0
35 36 14 14 19 17 20 23 49 45 49 53 41 50 54 47 24 0 0 0 0 0 0 0 0 0 0 0 0 0 0 0 0 0 0 0 0 0 0 0 0 0 0 0 0 0 0
46 40 38 11 9 14 13 15 36 47 58 53 57 54 52 70 16 0 0 0 0 0 1 0 0 0 0 0 0 0 0 0 0 0 0 0 0 0 0 0 0 0 0 0 0 0 0
46 49 33 15 16 15 20 20 42 51 44 55 60 62 54 60 5 0 0 0 0 0 3 0 0 0 0 0 0 0 0 0 0 0 0 0 0 0 0 0 0 0 0 0 0 0 0
47 57 35 31 26 25 28 38 52 60 59 63 63 68 48 51 0 0 0 0 0 0 0 0 0 0 0 0 0 0 0 0 0 0 0 0 0 0 0 0 0 0 0 0 0 0 0
43 21 38 26 23 49 63 61 44 59 78 83 55 53 50 11 0 0 0 0 0 0 0 0 0 0 0 0 0 0 0 0 0 0 0 0 0 0 0 0 0 0 0 0 0 0 0
55 42 26 29 44 57 61 64 62 79 93 90 66 63 54 51 0 0 0 0 4 0 0 0 0 0 0 0 0 0 0 0 0 0 0 0 0 0 0 0 0 0 0 0 0 0 0
47 52 36 40 45 45 54 55 67 73 95 64 59 64 54 26 0 0 0 0 19 4 0 0 0 0 0 0 0 0 0 0 0 0 0 0 0 0 0 0 0 0 0 0 0 0 0
35 54 50 42 49 49 60 54 58 72 87 64 57 47 54 16 0 0 0 3 3 0 0 0 0 0 0 0 0 0 0 0 0 0 0 0 0 0 0 0 0 0 0 0 0 0 0
44 52 52 50 48 52 58 52 60 69 81 72 63 47 53 29 0 0 4 13 0 0 0 0 0 0 0 0 0 0 0 0 0 0 0 0 0 0 0 0 0 0 0 0 0 0 0
35 50 48 47 48 51 55 64 77 83 81 67 48 55 49 0 0 10 15 0 0 0 0 0 0 0 0 0 0 0 0 0 0 0 0 0 0 0 0 0 0 0 0 0 0 0 0
57 52 50 45 49 52 57 84 93 91 91 87 50 24 27 0 8 20 0 5 0 0 0 0 0 0 0 0 0 0 0 0 0 0 0 0 0 0 0 0 0 0 0 0 0 0 0
47 48 53 60 64 70 85 87 94 94 80 71 50 2 9 0 0 5 0 0 0 0 0 0 0 0 0 0 0 0 0 0 0 0 0 0 0 0 0 0 0 0 0 0 0 3 0
65 85 99 93 89 83 86 91 93 91 81 54 14 8 11 0 0 2 9 1 0 1 0 0 2 0 0 0 0 0 0 0 0 0 0 0 0 0 0 0 0 0 0 0 0 0 0
103 95 86 85 83 82 79 72 67 68 83 43 1 1 11 7 1 0 14 2 0 0 0 0 0 0 0 0 0 0 0 1 44 4 3 0 0 0 0 0 0 0 0 0 0 0 0
85 81 77 81 83 80 73 68 67 67 74 66 1 1 1 0 2 3 3 7 4 3 0 0 0 0 0 1 0 0 0 10 0 3 0 0 0 0 0 0 0 0 0 0 0 0 0
89 78 57 47 64 83 89 92 74 74 85 47 0 2 4 0 13 12 16 6 10 1 6 0 5 0 0 0 0 0 0 14 16 32 0 0 0 0 0 0 0 0 0 0 0 0 0
83 78 66 64 66 62 57 51 43 52 64 24 12 0 7 3 11 5 2 11 3 10 0 0 0 0 0 0 0 0 0 3 105 43 2 3 0 0 0 0 0 0 0 0 0 0 0
71 82 82 71 66 67 62 60 68 63 69 41 19 8 6 3 7 3 6 4 9 1 0 0 0 0 0 0 0 0 0 0 20 33 22 14 1 0 0 0 0 0 0 0 0 0 0
90 92 88 89 88 76 69 69 73 81 88 28 1 12 14 2 5 4 7 0 0 3 0 0 0 0 0 0 0 0 0 21 2 0 0 6 17 1 0 0 0 0 0 0 0 0 0
82 89 89 86 78 78 74 79 84 81 85 48 31 13 16 19 3 0 2 1 0 0 0 0 0 0 0 0 2 2 0 0 9 0 0 3 22 3 0 0 0 0 0 0 0 0 0
65 72 76 75 65 64 65 63 82 78 92 44 42 22 6 5 0 0 1 0 0 0 0 0 0 0 0 0 6 0 1 20 2 0 32 0 4 13 0 0 0 0 0 0 0 0 0
49 52 55 65 50 58 66 59 61 87 86 68 29 24 1 3 0 0 0 0 0 0 0 0 0 0 0 0 0 0 0 0 0 0 1 13 19 1 0 0 5 0 1 9 0 0 0
36 33 46 56 57 62 68 75 46 93 82 92 36 5 9 11 12 0 1 0 0 0 0 0 0 0 0 0 0 0 7 0 0 0 0 12 0 0 17 0 0 7 43 0 0 0 0

GFSGBSN_con_sbcape_078.txt.gz
CAPE
27 22 21 23 23 16 14 26 40 34 25 23 17 6 0 0 0 12 12 6 1 2 7 0 0 0 0 0 0 0 0 0 0 0 0 0 0 0 0 0 0 0 0 0 0 0 0
23 24 34 24 24 18 15 13 7 24 30 28 27 22 14 0 0 0 0 0 0 0 1 4 0 5 0 0 0 0 0 0 0 0 0 0 0 0 0 0 0 0 0 0 0 0 0
30 27 26 34 32 27 19 20 16 22 25 31 32 33 31 8 0 0 0 0 0 0 0 0 0 6 5 0 0 0 0 0 0 0 0 0 0 0 0 0 0 0 0 0 0 0 0
34 34 39 55 48 46 38 35 17 12 21 22 12 27 35 25 15 1 0 0 0 0 0 0 1 6 0 0 0 0 0 0 0 0 0 0 0 0 0 0 0 0 0 0 0 0 0
43 45 43 38 47 52 38 33 28 14 11 34 35 30 33 34 24 1 0 0 0 0 0 8 5 2 0 0 0 0 0 0 0 0 0 0 0 0 0 0 0 0 0 0 0 0 0
58 35 44 45 44 43 42 34 24 23 38 41 32 45 35 33 31 1 0 0 0 0 0 2 6 0 0 0 0 0 0 0 0 0 0 0 0 0 0 0 0 0 0 0 0 0 0
68 61 47 49 33 37 32 23 34 26 35 47 47 52 43 35 15 11 0 0 0 0 0 0 0 0 0 0 0 0 0 0 0 0 0 0 0 0 0 0 0 0 0 0 0 0 0
66 63 44 37 37 33 29 17 36 35 49 58 56 53 58 53 23 18 0 0 0 0 1 0 0 0 0 0 0 0 0 0 0 0 0 0 0 0 0 0 0 0 0 0 0 0 0
64 59 62 51 45 38 28 20 38 45 55 60 52 53 54 54 25 0 0 0 0 0 4 0 0 0 0 0 0 0 0 0 0 0 0 0 0 0 0 0 0 0 0 0 0 0 0
78 81 66 57 48 33 31 20 27 47 54 52 50 59 51 41 0 0 0 0 0 0 0 0 0 0 0 0 0 0 0 0 0 0 0 0 0 0 0 0 0 0 0 0 0 0 0
65 76 69 59 46 47 45 25 35 32 48 61 53 58 58 36 0 0 0 0 0 0 0 0 0 0 0 0 0 0 0 0 0 0 0 0 0 0 0 0 0 0 0 0 0 0 0
84 63 78 63 53 50 51 44 44 34 58 77 62 59 54 35 0 0 0 0 2 1 0 0 0 0 0 0 0 0 0 0 0 0 0 0 0 0 0 0 0 0 0 0 0 0 0
63 73 74 65 54 46 36 37 58 49 63 76 64 68 53 37 0 0 0 1 9 2 0 0 0 0 0 0 0 0 0 0 0 0 0 0 0 0 0 0 0 0 0 0 0 0 0
66 72 64 47 47 51 48 49 52 51 60 86 59 61 56 44 0 0 0 8 12 0 0 0 0 0 0 0 0 0 0 0 0 0 0 0 0 0 0 0 0 0 0 0 0 0 0
53 59 55 39 52 55 59 62 60 52 59 76 86 39 59 45 0 0 0 4 0 0 0 0 0 0 0 0 0 0 0 0 0 0 0 0 0 0 0 0 0 0 0 0 0 0 0
56 61 44 66 69 65 63 69 69 61 66 95 54 72 65 54 0 4 5 0 0 0 0 0 0 0 0 0 0 0 0 0 0 0 0 0 0 0 0 0 0 0 0 0 0 0 0
50 51 70 71 63 60 62 60 67 68 103 124 75 67 67 37 8 4 1 0 0 0 0 0 0 0 0 0 0 0 0 0 0 0 0 0 0 0 0 0 0 0 0 0 0 0 0
63 70 71 65 63 63 59 69 79 84 124 116 73 23 61 11 41 2 4 0 0 0 0 0 0 0 0 0 0 0 0 0 0 0 0 0 0 0 0 0 0 0 0 0 0 0 0
77 75 72 71 71 76 76 82 85 91 136 91 69 15 72 26 14 0 0 4 1 0 0 0 0 0 0 0 0 0 0 0 3 5 2 2 1 0 0 0 0 0 0 0 0 0 0
75 75 76 79 84 91 96 90 88 67 119 92 3 1 16 37 1 4 2 3 12 0 0 0 2 0 0 0 0 0 0 0 0 2 64 32 5 0 0 0 0 0 0 0 0 0 0
82 92 78 79 80 88 94 103 91 79 96 113 0 1 0 0 1 3 1 0 12 4 0 0 0 0 0 0 0 0 0 0 0 55 72 33 1 0 0 0 0 0 0 0 0 0 0
92 74 63 66 69 77 72 82 100 93 77 40 0 4 7 0 0 5 6 5 7 4 0 0 0 0 0 0 0 0 0 0 0 48 31 38 6 0 0 0 0 0 0 0 0 0 0
101 85 78 74 73 63 52 65 76 93 77 22 10 0 7 0 0 4 2 3 5 9 0 0 0 0 0 0 0 0 0 0 0 0 27 48 3 0 0 0 0 0 0 0 0 0 0
91 97 95 89 88 64 82 76 67 64 70 18 19 8 22 1 6 7 9 5 10 1 0 0 0 0 0 0 0 0 0 0 0 0 0 15 1 0 0 0 0 0 0 0 0 0 0
101 101 100 95 88 81 74 76 79 83 44 5 20 6 7 2 13 13 18 2 0 6 2 0 0 0 0 0 0 0 0 0 0 0 0 23 39 0 1 1 0 0 0 0 0 0 0
74 72 88 74 79 86 79 75 69 85 74 33 14 7 29 4 10 19 14 3 0 1 2 0 0 0 0 0 1 13 6 1 5 32 0 0 38 55 1 2 16 0 0 0 0 0 0
64 74 84 88 74 72 94 88 78 84 111 41 12 0 19 6 9 16 14 7 0 0 0 0 0 0 1 0 12 11 3 6 2 41 12 30 21 73 23 52 0 0 2 0 0 0 0
35 42 46 57 61 64 67 82 84 87 115 69 28 2 8 5 5 4 0 0 0 0 0 0 0 0 0 1 13 4 0 1 3 0 18 12 2 9 0 2 12 3 42 8 0 0 0
42 56 54 41 52 51 57 51 67 73 81 107 6 36 15 40 20 5 1 0 0 0 0 0 0 0 0 0 0 0 0 0 0 0 0 0 0 7 3 12 0 0 91 14 0 0 0

GFSGBSN_con_sbcape_081.txt.gz
CAPE
28 28 23 26 25 21 18 19 24 25 21 27 22 5 3 3 0 0 0 0 0 0 0 0 0 5 0 0 0 0 0 0 0 0 0 0 0 0 0 0 0 0 0 0 0 0 0
26 33 33 35 29 17 18 25 27 27 31 32 34 32 16 6 7 0 0 0 0 0 0 0 0 14 0 0 0 0 0 0 0 0 0 0 0 0 0 0 0 0 0 0 0 0 0
24 33 35 44 61 33 22 41 24 30 33 31 25 25 33 13 17 10 1 0 0 0 0 0 0 6 7 0 0 0 0 0 0 0 0 0 0 0 0 0 0 0 0 0 0 0 0
42 47 35 59 55 56 42 41 32 26 25 22 21 26 29 35 26 8 0 0 0 0 0 0 0 9 0 0 0 0 0 0 0 0 0 0 0 0 0 0 0 0 0 0 0 0 0
62 61 48 50 60 52 50 45 26 18 13 23 48 45 35 34 23 20 16 3 0 0 0 3 4 1 0 0 0 0 0 0 0 0 0 0 0 0 0 0 0 0 0 0 0 0 0
44 49 59 50 50 48 53 49 45 35 30 31 44 50 51 41 18 21 12 0 0 0 1 6 4 0 0 0 0 0 0 0 0 0 0 0 0 0 0 0 0 0 0 0 0 0 0
38 50 66 62 43 49 46 49 48 44 27 32 45 58 52 48 27 22 0 0 0 0 0 0 0 0 0 0 0 0 0 0 0 0 0 0 0 0 0 0 0 0 0 0 0 0 0
61 60 60 56 56 53 59 43 51 42 35 41 52 55 56 54 26 24 0 0 0 0 2 0 0 0 0 0 0 0 0 0 0 0 0 0 0 0 0 0 0 0 0 0 0 0 0
68 62 72 63 49 56 58 37 49 43 41 55 58 66 63 53 19 0 0 0 0 0 6 0 0 0 0 0 0 0 0 0 0 0 0 0 0 0 0 0 0 0 0 0 0 0 0
77 74 52 55 48 60 53 39 46 37 60 62 60 62 58 53 0 0 0 0 0 0 0 0 0 0 0 0 0 0 0 0 0 0 0 0 0 0 0 0 0 0 0 0 0 0 0
55 106 89 62 55 69 73 70 39 35 29 52 59 65 65 55 0 0 0 0 0 0 0 0 0 0 0 0 0 0 0 0 0 0 0 0 0 0 0 0 0 0 0 0 0 0 0
75 53 47 69 64 76 88 62 50 41 30 41 65 70 57 48 1 0 0 0 2 6 0 0 0 0 0 0 0 0 0 0 0 0 0 0 0 0 0 0 0 0 0 0 0 0 0
52 64 48 63 62 78 84 64 48 33 47 49 57 74 75 65 3 0 0 4 4 2 0 0 0 0 0 0 0 0 0 0 0 0 0 0 0 0 0 0 0 0 0 0 0 0 0
49 61 69 61 73 71 60 56 63 53 48 59 67 65 33 75 0 0 0 4 8 0 0 0 0 0 0 0 0 0 0 0 0 0 0 0 0 0 0 0 0 0 0 0 0 0 0
19 44 60 54 58 71 58 49 68 59 72 60 84 10 24 40 0 0 8 8 0 0 0 0 0 0 0 0 0 0 0 0 0 0 0 0 0 0 0 0 0 0 0 0 0 0 0
65 57 84 95 97 66 42 74 51 54 94 110 52 41 1 30 1 5 21 0 0 0 0 0 0 0 0 0 0 0 0 0 0 0 0 0 0 0 0 0 0 0 0 0 0 0 0
62 65 70 65 66 68 61 56 64 54 79 117 66 63 5 50 29 26 5 5 0 0 0 0 0 0 0 0 0 0 0 0 0 0 0 0 0 0 0 0 0 0 0 0 0 0 0
48 63 67 69 72 67 70 56 70 61 105 96 58 24 50 95 46 2 3 0 1 0 0 0 0 0 0 0 0 0 0 0 0 0 0 0 0 0 0 0 0 0 0 0 0 0 0
52 79 66 62 72 69 62 78 87 98 154 62 45 34 94 111 8 0 31 4 1 0 0 0 0 0 0 0 0 0 0 0 8 0 0 0 7 0 0 0 0 0 0 0 0 0 0
58 67 66 69 72 68 69 78 80 95 131 77 37 22 44 94 5 13 21 33 10 3 0 0 0 0 0 0 0 0 0 0 0 0 62 4 7 16 0 0 0 0 0 0 0 0 0
68 77 73 71 76 75 51 83 101 94 121 58 2 0 2 13 6 6 40 15 7 8 0 0 0 0 0 0 0 0 0 0 0 0 128 32 0 0 3 0 0 0 0 0 0 0 0
75 79 73 67 65 51 51 55 70 65 86 42 0 11 8 2 9 9 23 13 13 5 0 0 0 0 0 1 0 0 0 0 0 0 0 14 11 2 1 0 0 0 0 0 0 0 0
70 82 92 74 54 29 37 43 66 67 72 20 25 3 43 13 11 27 1 4 3 9 1 0 0 0 0 0 0 0 0 0 0 0 0 0 30 22 0 0 1 0 0 0 0 0 0
84 95 90 74 61 55 70 59 17 23 65 37 10 20 83 70 4 16 19 2 6 0 0 0 1 0 0 0 1 0 0 0 0 0 0 2 9 26 2 2 8 0 0 0 0 0 0
91 77 71 84 108 108 75 77 61 21 28 26 8 10 22 28 22 8 25 12 4 13 14 2 0 0 2 2 5 0 0 0 0 0 0 0 0 34 27 9 0 0 8 50 0 0 0
81 84 93 85 79 70 77 68 66 78 36 16 7 6 34 24 21 22 25 23 8 10 21 3 7 3 6 15 16 14 7 1 0 1 0 0 0 31 42 33 3 4 0 0 0 13 0
67 72 76 56 62 55 67 73 69 68 75 12 19 3 9 3 5 27 23 36 2 1 2 0 7 6 7 36 13 8 8 0 0 0 6 9 34 8 10 25 40 43 0 17 54 103 0
57 72 72 65 62 54 62 72 79 75 72 29 11 6 5 4 3 20 2 3 2 3 0 0 2 7 17 30 41 38 8 7 0 0 6 39 42 27 17 42 33 24 109 120 76 1 6
32 40 49 61 69 57 52 62 79 83 93 62 37 10 9 14 16 14 2 0 0 0 0 0 0 0 0 4 2 2 0 0 0 0 0 0 9 8 25 43 2 0 86 125 93 76 137

GFSGBSN_con_sbcape_084.txt.gz
CAPE
28 20 25 28 26 25 19 21 32 36 24 21 14 5 1 0 0 4 20 11 0 0 0 0 0 2 0 0 0 0 0 0 0 0 0 0 0 0 0 0 0 0 0 0 0 0 0
29 21 36 32 27 26 14 20 37 31 30 21 20 21 9 0 0 0 1 0 0 1 0 0 0 0 0 0 0 0 0 0 0 0 0 0 0 0 0 0 0 0 0 0 0 0 0
37 27 56 57 55 30 27 30 33 33 39 39 33 30 26 9 0 0 0 0 1 1 0 1 6 2 0 0 0 0 0 0 0 0 0 0 0 0 0 0 0 0 0 0 0 0 0
29 53 43 56 58 53 46 44 33 29 25 22 21 38 38 36 24 17 17 0 0 0 0 0 4 2 0 0 0 0 0 0 0 0 0 0 0 0 0 0 0 0 0 0 0 0 0
20 53 49 52 64 54 66 54 50 26 24 31 25 44 38 36 30 24 14 0 0 0 0 0 4 1 0 0 0 0 0 0 0 0 0 0 0 0 0 0 0 0 0 0 0 0 0
44 42 18 38 60 55 49 45 64 60 45 36 39 42 48 45 28 13 2 0 0 0 1 1 0 1 0 0 0 0 0 0 0 0 0 0 0 0 0 0 0 0 0 0 0 0 0
26 35 43 50 48 58 29 34 71 63 56 44 26 45 60 46 24 14 0 0 0 0 0 0 0 0 0 0 0 0 0 0 0 0 0 0 0 0 0 0 0 0 0 0 0 0 0
39 54 62 39 36 44 40 34 59 52 44 25 26 41 55 62 26 4 1 0 3 6 3 0 0 0 0 0 0 0 0 0 0 0 0 0 0 0 0 0 0 0 0 0 0 0 0
36 44 21 28 26 55 38 28 63 61 33 34 38 40 58 61 29 4 0 0 7 9 9 0 0 0 0 0 0 0 0 0 0 0 0 0 0 0 0 0 0 0 0 0 0 0 0
48 34 56 55 54 50 57 57 57 63 58 55 53 39 51 47 6 4 4 0 1 3 10 0 0 0 0 0 0 0 0 0 0 0 0 0 0 0 0 0 0 0 0 0 0 0 0
62 46 40 31 40 52 46 59 34 46 43 43 47 31 54 47 61 12 23 1 0 25 0 0 0 0 0 0 0 0 0 0 0 0 0 0 0 0 0 0 0 0 0 0 0 0 0
69 37 30 17 37 44 43 54 58 49 37 34 33 21 47 48 60 12 41 44 18 18 0 0 0 0 0 0 0 0 0 0 0 0 0 0 0 0 0 0 0 0 0 0 0 0 0
51 40 50 30 27 45 46 36 36 36 36 28 41 31 52 82 36 54 80 67 45 6 0 0 0 0 0 0 0 0 0 0 0 0 0 0 0 0 0 0 0 0 0 0 0 0 0
44 44 31 24 52 55 48 59 51 42 56 41 48 52 46 70 82 39 96 76 20 0 0 0 0 0 0 0 0 0 0 0 0 0 0 0 0 0 0 0 0 0 0 0 0 10 3
47 41 43 29 33 50 50 44 33 40 50 44 69 32 34 50 94 156 31 71 0 1 0 0 0 0 0 0 0 0 0 0 0 0 0 0 0 0 0 0 0 0 0 0 0 0 0
59 51 69 51 70 61 63 52 36 28 40 79 50 50 18 63 208 105 47 7 25 9 0 0 0 0 0 0 0 0 0 0 0 0 0 0 0 0 0 0 0 0 0 0 0 0 0
38 46 59 59 50 63 40 37 16 14 36 63 68 49 16 127 281 76 26 38 23 7 0 2 0 0 0 0 0 0 0 0 0 0 6 0 0 0 0 0 0 0 0 0 0 1 1
57 56 40 38 34 45 23 23 37 47 79 69 59 64 50 335 39 10 52 11 1 12 0 0 0 1 0 0 0 0 0 0 0 0 2 18 42 0 0 0 0 0 0 0 1 0 8
54 51 43 46 56 70 84 58 62 74 87 111 59 23 112 264 109 26 46 65 31 21 11 3 0 0 2 3 2 0 0 0 0 0 0 0 29 50 4 0 0 0 0 0 1 15 8
70 73 68 59 64 80 96 95 89 100 135 207 67 92 95 147 77 127 55 21 101 13 5 2 30 17 17 20 12 4 0 0 1 0 0 0 0 2 39 26 17 4 0 1 8 17 0
79 81 77 74 71 66 76 87 99 106 136 164 41 45 37 65 28 18 99 47 47 47 3 14 11 18 24 21 19 26 11 1 1 5 10 12 5 0 0 0 0 0 0 0 0 0 33
83 70 68 64 50 44 45 56 79 69 116 58 1 52 71 40 41 46 51 40 67 37 47 25 16 3 17 37 23 11 9 19 11 5 3 4 36 23 10 0 0 5 0 0 1 0 8
58 62 63 50 55 54 47 54 64 56 68 23 13 24 131 29 94 116 73 94 76 70 29 29 20 18 17 16 8 20 18 17 19 16 18 9 14 6 8 37 29 3 42 59 20 2 0
71 68 79 79 86 53 68 38 17 41 53 38 26 37 65 54 96 57 40 63 45 26 39 27 15 18 9 0 12 18 20 11 17 11 19 11 18 41 26 29 10 0 0 43 31 25 3
81 95 80 80 78 75 68 63 62 49 26 32 28 55 61 86 67 92 65 57 81 102 43 13 21 5 7 15 57 20 23 11 0 0 2 12 18 41 20 66 24 0 0 18 98 71 68
78 89 90 91 74 67 75 70 74 66 38 25 31 40 99 171 120 56 103 51 84 67 91 24 3 7 12 43 91 30 24 11 7 8 0 5 23 81 39 55 17 3 0 6 8 238 174
51 71 76 66 63 62 58 65 67 75 85 42 10 24 43 43 22 48 62 92 82 62 55 31 34 17 21 49 70 45 20 0 2 7 2 20 33 41 21 40 47 49 51 22 146 105 135
40 55 60 65 70 53 50 48 57 76 84 57 23 11 7 19 26 33 38 41 62 90 58 63 45 10 7 101 72 41 14 5 0 0 88 19 29 30 20 65 23 1 18 49 33 196 160
25 32 40 45 55 60 56 69 41 71 83 86 51 51 16 12 16 9 2 28 68 75 74 77 10 14 40 51 61 49 57 48 2 17 0 1 83 58 77 42 6 0 14 22 23 23 5

GFSGBSN_con_sbcape_087.txt.gz
CAPE
10 20 17 19 15 21 23 12 33 38 32 26 23 15 2 0 1 1 4 5 0 0 0 0 1 0 0 0 0 0 0 0 0 0 0 0 0 0 0 0 0 0 0 0 0 0 0
27 25 15 14 21 16 17 25 21 34 31 34 29 24 16 0 1 1 2 8 4 0 0 0 2 1 0 0 0 0 0 0 0 0 0 0 0 0 0 0 0 0 0 0 0 0 0
5 23 39 56 54 21 14 17 19 35 34 38 38 33 26 9 8 11 12 9 0 0 0 0 0 1 0 0 0 0 0 0 0 0 0 0 0 0 0 0 0 0 0 0 0 0 0
37 18 14 59 62 57 43 23 20 19 25 23 21 29 33 26 24 19 17 0 0 0 0 0 0 0 0 0 0 0 0 0 0 0 0 0 0 0 0 0 0 0 0 0 0 0 0
31 30 36 38 55 53 66 61 37 28 22 35 26 28 32 29 26 12 1 0 0 0 0 0 0 0 0 0 0 0 0 0 0 0 0 0 0 0 0 0 0 0 0 0 0 0 0
16 25 22 38 42 41 60 53 57 42 28 34 27 32 37 35 28 7 0 0 0 0 0 0 0 0 0 0 0 0 0 0 0 0 0 0 0 0 0 0 0 0 0 0 0 0 5
28 31 12 26 41 42 34 55 56 60 25 22 28 24 25 42 33 9 0 0 0 0 3 0 0 0 0 0 0 0 0 0 0 0 0 0 0 0 0 0 0 0 0 0 1 1 0
30 32 45 29 37 39 42 50 53 68 22 34 28 28 29 38 23 0 0 6 3 2 0 0 0 0 0 0 0 0 0 0 0 0 0 0 0 0 0 0 0 0 0 0 0 0 0
47 50 19 23 37 29 30 39 59 48 21 30 26 30 38 36 10 1 18 4 5 16 1 0 0 0 0 0 0 0 0 0 0 0 0 0 0 0 0 0 0 0 0 0 0 0 3
28 22 17 6 35 46 44 46 43 41 67 38 31 23 56 23 0 31 25 17 24 9 0 0 0 0 0 0 0 0 0 0 0 0 0 0 0 0 0 0 0 0 0 0 0 0 3
30 26 34 24 44 43 39 41 39 48 32 50 32 22 32 32 25 42 26 24 9 17 0 0 0 0 0 0 0 0 0 0 0 0 0 0 0 0 0 0 0 0 0 0 0 0 0
48 38 46 42 55 62 45 67 64 39 51 40 29 21 30 25 57 37 43 58 49 9 0 0 0 0 0 0 0 0 0 0 0 0 0 0 2 0 0 0 0 1 0 0 0 0 0
70 53 49 43 43 57 49 61 53 42 34 25 28 33 20 29 59 80 117 126 43 0 0 0 0 0 0 0 0 0 0 0 0 0 0 0 0 0 0 0 0 0 4 22 14 15 4
65 49 49 39 25 23 54 66 69 67 40 26 44 38 21 30 35 109 172 106 26 0 0 0 0 0 0 0 2 2 22 9 0 0 0 0 0 0 0 0 0 0 3 25 41 88 85
33 53 58 55 36 20 30 73 55 71 37 27 28 16 27 67 129 187 122 90 27 2 1 1 0 0 0 0 8 23 59 118 29 3 0 2 0 0 0 0 0 0 0 0 15 10 22
60 46 44 76 52 43 53 63 48 69 33 40 57 55 26 63 173 209 62 37 64 63 31 21 6 6 45 15 6 20 107 25 33 48 21 3 1 0 0 0 0 0 0 0 0 11 37
37 45 43 46 51 54 55 55 62 51 18 33 55 34 0 96 270 125 168 94 43 39 42 8 52 27 35 17 0 2 16 27 13 22 140 67 4 7 0 0 0 0 0 0 0 16 8
42 46 65 52 55 40 51 51 54 53 71 44 61 41 44 280 144 115 30 96 28 133 58 12 0 22 46 19 3 0 4 12 1 0 30 68 110 23 10 9 0 1 0 0 0 3 37
66 71 73 65 52 63 81 75 73 88 97 86 49 50 97 273 106 105 68 19 145 80 61 34 33 3 1 2 5 1 8 12 0 0 0 0 55 37 27 1 0 0 0 4 9 28 13
55 67 67 55 57 70 72 90 105 72 79 153 101 99 69 162 121 152 123 91 79 128 117 42 60 48 17 22 30 30 24 11 5 0 0 0 0 2 13 17 36 41 23 18 22 69 20
89 94 88 86 85 79 77 80 107 133 102 228 80 67 45 78 102 98 108 98 142 82 98 69 59 75 59 47 52 52 39 19 20 12 0 0 1 0 0 0 0 22 32 40 16 11 30
81 76 63 66 69 52 64 69 70 96 113 159 48 38 24 41 45 114 95 55 35 58 152 76 81 71 56 56 51 41 40 46 43 24 14 27 25 24 25 1 0 0 6 6 17 25 24
44 55 50 41 37 35 39 50 60 62 88 56 76 58 91 37 68 107 103 132 34 100 72 73 73 79 50 57 53 63 26 19 23 25 23 34 23 25 24 3 44 31 5 22 41 56 48
64 47 85 73 59 49 59 65 61 57 60 31 16 59 73 49 74 120 79 84 93 88 112 109 119 79 71 57 34 24 17 17 23 16 10 21 20 22 47 7 0 0 50 0 14 3 72
96 90 85 110 105 105 113 93 69 63 67 30 39 63 76 89 53 51 99 101 90 118 106 166 141 69 79 57 23 19 15 18 10 19 28 11 35 53 51 35 0 3 37 0 0 0 72
69 77 103 108 93 87 82 75 73 72 57 52 26 42 125 106 58 42 68 64 120 101 146 104 117 52 72 43 168 34 67 38 34 25 5 33 32 74 68 29 31 66 16 6 10 52 0
31 36 55 79 67 71 66 71 79 79 86 99 27 29 64 127 47 77 112 101 162 151 128 192 70 14 39 109 107 55 94 20 19 24 56 44 61 44 51 42 17 28 79 50 20 40 2
39 15 26 45 63 65 56 62 67 73 81 182 35 26 13 20 58 89 105 83 97 141 174 184 82 19 10 105 78 62 52 42 16 12 67 30 38 57 66 40 30 20 84 76 19 35 35
46 44 23 14 40 42 55 60 57 63 75 98 78 60 20 13 9 42 137 158 178 42 147 53 19 15 62 103 83 73 69 43 23 35 53 45 14 52 45 41 59 3 96 0 0 1 23

GFSGBSN_con_sbcape_093.txt.gz
CAPE
24 21 24 27 28 31 12 15 38 31 17 17 18 9 2 3 3 0 4 12 8 1 1 1 5 11 0 0 0 0 0 0 0 0 0 0 0 0 0 0 0 0 0 0 0 0 0
21 28 39 35 30 20 37 37 38 35 31 28 26 29 19 5 1 0 11 5 0 0 0 0 3 16 0 0 0 0 0 0 0 0 0 0 0 0 0 0 0 0 0 0 0 0 0
27 28 28 30 28 30 21 62 64 39 33 36 37 30 23 7 3 5 11 20 1 0 0 0 2 17 0 0 0 0 0 0 0 0 0 0 0 0 0 0 0 0 0 0 0 0 0
32 36 38 45 49 38 50 55 53 40 47 44 44 24 12 13 19 15 16 0 0 0 0 0 2 8 0 0 0 0 0 0 0 0 0 0 0 0 0 0 0 0 0 0 0 0 0
31 29 36 39 65 68 63 52 63 52 45 61 57 36 26 25 20 21 10 0 0 0 0 0 3 1 0 0 0 0 0 0 0 0 0 0 0 0 0 0 0 0 0 0 0 0 0
49 49 40 32 57 60 62 87 80 55 57 80 55 51 40 28 25 17 0 0 0 0 0 0 0 1 0 0 0 0 0 0 0 0 0 0 0 0 0 0 0 0 0 0 0 0 0
37 46 40 40 38 50 57 63 72 78 68 77 48 43 47 35 25 7 0 0 0 0 0 0 0 0 0 0 0 0 0 0 0 0 0 0 0 0 0 0 0 0 0 0 0 0 0
58 62 49 45 58 65 70 62 70 81 77 61 70 65 48 25 26 0 0 0 3 1 0 0 0 0 0 0 0 0 0 0 0 0 0 0 0 0 0 0 0 0 0 0 0 0 0
31 26 48 84 79 75 80 63 66 64 70 71 61 50 48 46 15 0 0 0 2 0 0 0 0 0 0 0 0 0 0 0 0 0 0 0 0 0 0 0 0 0 0 0 0 0 0
18 48 56 41 103 48 26 41 79 79 95 75 64 60 52 36 1 0 2 0 5 0 0 0 0 0 0 0 0 0 0 0 0 0 0 0 0 0 0 0 0 0 0 0 0 0 0
20 28 38 34 64 104 119 81 114 72 82 96 71 54 24 11 0 0 0 0 6 0 0 0 0 0 0 0 0 0 0 0 0 0 0 0 0 0 0 0 0 0 0 0 0 0 0
8 31 58 60 99 149 109 92 88 83 101 117 68 61 35 0 0 0 0 0 0 0 0 0 0 0 0 0 0 0 0 0 0 0 0 0 0 0 0 0 0 0 0 6 2 0 0
20 27 47 10 68 125 48 72 117 73 61 97 87 75 16 0 0 0 0 23 3 4 0 0 0 0 0 0 0 0 0 0 0 0 0 0 0 0 0 0 0 0 0 7 4 2 0
26 21 51 52 56 89 95 74 110 82 81 78 76 74 8 0 0 0 21 20 7 0 0 0 0 0 0 0 0 0 0 0 0 0 0 0 0 0 0 0 0 0 0 10 11 11 39
28 37 35 61 47 44 48 50 62 66 66 62 74 2 1 0 0 0 18 5 0 0 0 0 0 0 0 9 4 11 0 0 0 0 0 0 0 0 0 0 0 0 0 7 40 29 36
39 35 34 42 30 23 36 38 53 45 9 12 1 3 0 0 1 11 31 5 0 0 0 0 0 13 2 0 7 8 27 2 42 3 0 0 0 7 0 0 0 0 4 21 23 2 0
26 23 32 27 40 31 32 47 53 44 66 58 7 4 0 0 37 26 14 1 0 0 11 0 6 15 15 2 2 14 32 47 6 25 23 6 32 46 12 0 0 0 0 2 0 1 1
14 30 39 34 48 63 51 44 43 53 60 13 6 5 0 15 17 23 3 0 0 0 2 0 12 3 54 0 0 0 0 4 0 0 0 0 18 36 51 21 0 0 0 0 0 0 0
27 33 54 55 55 59 59 66 26 41 49 5 28 0 0 38 0 0 0 0 0 0 0 5 31 13 7 0 1 0 0 12 0 0 0 0 0 2 23 45 9 20 1 3 0 0 0
37 43 47 56 56 59 56 60 68 76 42 28 17 5 0 14 5 13 9 5 0 0 0 0 1 8 5 13 0 1 0 4 3 0 0 0 0 0 0 0 0 0 0 0 0 12 0
46 58 51 43 52 59 66 66 93 95 106 27 20 1 6 14 0 4 0 1 3 6 31 0 10 19 22 28 28 0 24 55 27 0 0 0 0 0 0 0 0 0 0 0 0 5 1
54 71 65 54 62 68 68 75 122 117 111 28 8 5 1 0 3 39 15 0 4 4 19 7 11 2 11 0 18 18 3 7 0 0 0 16 0 0 0 0 0 0 0 0 0 0 0
46 67 67 48 46 46 51 48 94 111 82 9 5 0 11 0 1 21 3 16 11 7 1 5 8 0 0 4 8 5 9 3 0 0 0 0 0 0 0 0 0 0 0 0 0 0 0
45 43 51 48 44 42 65 61 44 98 96 6 10 4 16 0 0 0 0 0 0 4 13 35 4 0 1 90 2 10 3 0 0 0 0 0 0 0 0 0 0 0 0 0 49 2 0
48 43 49 49 60 71 70 72 54 41 90 3 15 17 11 0 0 0 0 0 1 6 16 22 28 12 0 77 22 0 0 0 0 0 0 0 0 0 5 2 0 0 40 23 4 10 0
50 48 57 62 55 54 55 70 71 50 54 19 4 8 33 16 0 0 2 0 10 0 0 13 29 0 64 1 0 0 0 10 0 0 0 0 0 0 1 5 0 25 0 14 1 3 3
57 68 53 50 46 41 35 48 73 83 50 13 7 14 12 4 0 0 0 0 2 2 2 13 57 53 22 1 0 0 0 0 0 38 0 0 5 0 0 4 0 31 1 2 41 5 0
59 53 42 39 53 50 27 32 60 79 81 19 8 1 1 1 0 13 3 2 0 2 10 2 1 3 1 0 2 0 0 4 9 3 0 0 5 1 4 24 1 0 2 30 4 0 0
51 45 33 43 52 43 37 27 54 69 79 38 28 1 3 6 7 0 0 0 0 31 23 15 19 3 0 0 0 0 15 2 0 0 6 0 0 0 0 0 2 0 0 0 0 0 0

GFSGBSN_con_sbcape_096.txt.gz
CAPE
16 20 20 39 37 40 30 36 46 46 36 37 39 22 8 5 3 3 12 11 0 0 0 0 1 13 0 0 0 0 0 0 0 0 0 0 0 0 0 0 0 0 0 0 0 0 0
27 26 29 33 31 38 50 40 65 71 54 48 44 58 42 19 5 0 8 8 0 0 0 0 1 15 0 0 0 0 0 0 0 0 0 0 0 0 0 0 0 0 0 0 0 0 0
24 32 33 40 43 39 34 52 52 67 81 65 53 58 58 22 11 5 7 3 0 0 0 1 1 15 1 0 0 0 0 0 0 0 0 0 0 0 0 0 0 0 0 0 0 0 0
26 24 30 32 37 67 68 71 47 46 70 88 83 69 55 43 25 18 14 0 0 0 0 0 1 17 0 0 0 0 0 0 0 0 0 0 0 0 0 0 0 0 0 0 0 0 0
25 35 49 53 47 71 76 81 68 73 64 92 90 80 64 57 37 15 1 0 0 0 0 0 3 4 0 0 0 0 0 0 0 0 0 0 0 0 0 0 0 0 0 0 0 0 0
32 36 34 43 40 35 43 62 79 84 82 80 75 93 68 70 36 0 0 0 0 0 0 1 3 1 0 0 0 0 0 0 0 0 0 0 0 0 0 0 0 0 0 0 0 0 0
34 29 36 41 51 48 47 62 57 70 65 66 95 81 73 68 31 4 2 0 0 0 0 0 0 0 0 0 0 0 0 0 0 0 0 0 0 0 0 0 0 0 0 0 0 0 0
24 17 21 25 23 37 46 68 62 76 76 79 105 91 60 47 34 0 0 0 0 0 0 0 0 0 0 0 0 0 0 0 0 0 0 0 0 0 0 0 0 0 0 0 0 0 0
16 22 16 16 38 16 47 53 56 21 79 79 104 81 61 80 38 0 0 0 0 0 0 0 0 0 0 0 0 0 0 0 0 0 0 0 0 0 0 0 0 0 0 0 0 0 0
12 17 16 12 16 26 44 75 107 149 144 141 116 85 63 80 0 0 0 0 0 0 0 0 0 0 0 0 0 0 0 0 0 0 0 0 0 0 0 0 0 0 0 0 0 0 0
21 10 8 21 19 14 38 58 84 130 161 192 153 119 91 18 0 0 0 0 0 0 0 0 0 0 0 0 0 0 0 0 0 0 0 0 0 0 0 0 0 0 0 0 0 0 0
23 15 17 22 26 3 27 52 92 157 169 165 131 120 71 0 0 0 0 0 0 0 0 0 0 0 0 0 0 0 0 0 0 0 0 0 0 0 0 0 0 0 0 1 0 0 0
20 17 26 23 27 37 31 75 77 107 130 130 112 82 40 0 0 0 0 0 0 1 0 0 0 0 0 0 0 0 0 0 0 0 0 0 0 0 0 0 0 0 0 0 0 0 0
22 30 25 32 32 44 33 53 71 64 46 91 75 70 9 0 0 0 4 2 3 0 0 0 0 0 0 0 0 0 0 0 0 0 0 0 0 0 0 0 0 0 0 0 0 0 0
34 33 34 36 37 31 24 43 52 69 68 70 41 0 0 0 0 0 12 19 0 0 0 0 0 0 0 0 0 0 0 0 0 0 0 0 0 0 0 0 0 0 0 0 3 0 0
25 44 30 27 34 34 34 23 56 53 54 13 6 0 0 0 0 1 16 0 0 0 0 0 0 0 4 2 0 0 0 0 0 0 0 0 0 0 0 0 0 0 0 5 1 0 1
40 36 17 31 32 43 58 45 49 59 45 47 10 0 0 0 3 20 3 0 0 0 0 0 6 0 0 8 0 1 1 13 0 13 0 8 19 0 5 0 0 0 0 12 1 8 2
15 22 23 33 49 57 64 60 59 33 30 15 0 0 0 1 9 42 8 3 0 0 0 0 6 0 0 44 4 4 1 2 0 0 0 0 3 17 20 25 10 0 0 0 7 0 0
40 35 32 38 52 64 63 61 39 35 33 6 2 0 0 23 1 0 0 4 0 0 0 0 14 24 17 21 38 12 9 0 0 1 0 0 0 1 0 10 0 0 0 0 23 0 0
12 34 45 50 60 65 70 59 46 50 26 1 9 0 0 0 13 23 2 0 0 0 0 0 0 9 43 6 15 3 0 0 0 1 56 0 0 0 0 0 0 0 0 0 0 3 0
31 39 45 38 37 38 48 59 59 62 73 29 1 0 0 2 1 8 3 11 0 0 0 3 1 1 11 19 2 11 0 1 0 0 31 0 0 0 0 0 0 0 0 0 0 0 0
30 41 57 44 62 69 76 65 73 74 85 32 0 0 0 0 3 21 5 7 0 0 2 0 11 35 6 3 6 1 0 1 28 26 9 4 1 0 0 0 0 0 0 0 0 0 0
33 43 56 43 54 66 64 65 41 88 36 16 1 0 1 0 1 0 9 10 0 1 0 1 1 1 27 4 15 14 0 0 9 7 0 1 0 0 0 0 0 0 0 0 0 23 12
45 45 43 43 53 55 69 66 64 47 44 0 0 0 0 0 0 0 0 0 0 0 14 11 1 3 7 5 2 0 5 0 0 0 0 0 0 0 0 0 0 0 9 41 11 2 0
45 41 49 43 52 65 70 71 68 80 48 0 0 0 0 0 0 0 0 0 0 0 0 0 1 1 13 10 13 1 0 0 0 0 0 0 0 0 0 0 0 0 3 33 13 6 12
42 37 46 54 73 58 48 59 76 77 55 6 3 0 8 4 0 0 0 0 0 0 0 0 28 4 13 0 0 0 0 31 25 0 0 0 0 0 0 0 0 12 21 3 20 67 0
36 40 46 57 70 63 61 52 56 80 85 29 1 1 14 20 0 0 0 0 0 2 0 0 0 18 0 0 0 0 0 0 0 18 0 0 0 0 0 0 0 3 7 0 13 5 0
32 48 62 71 67 57 48 51 36 73 83 9 9 1 0 1 1 0 0 0 0 1 7 0 0 0 0 5 0 0 0 0 15 2 1 0 0 1 0 4 0 0 0 0 0 3 0
36 53 57 65 57 50 51 51 40 71 79 10 8 1 12 9 20 0 0 0 0 1 24 38 8 2 0 0 0 0 13 0 23 6 6 2 0 0 0 0 4 0 0 0 0 0 0

GFSGBSN_con_sbcape_099.txt.gz
CAPE
14 19 20 20 22 25 28 23 33 54 66 58 43 22 11 14 9 12 25 17 8 0 0 0 4 11 5 0 0 0 0 0 0 0 0 0 0 0 0 0 0 0 0 0 0 0 0
19 19 33 33 33 42 36 25 23 62 61 69 72 62 52 28 25 19 25 18 0 0 0 1 3 16 7 0 0 0 0 0 0 0 0 0 0 0 0 0 0 0 0 0 0 0 0
30 34 30 29 31 32 31 26 24 32 62 82 78 86 68 36 26 12 14 10 0 4 0 2 8 15 8 0 0 0 0 0 0 0 0 0 0 0 0 0 0 0 0 0 0 0 0
19 19 19 25 46 47 43 30 31 32 46 86 101 90 89 82 43 37 31 10 0 2 0 1 4 17 1 0 0 0 0 0 0 0 0 0 0 0 0 0 0 0 0 0 0 0 0
20 22 26 24 33 35 34 40 30 37 46 58 62 86 82 94 68 45 21 0 0 0 0 3 3 16 0 0 0 0 0 0 0 0 0 0 0 0 0 0 0 0 0 0 0 0 0
15 21 18 11 14 24 23 19 41 42 39 30 40 68 92 119 77 58 24 0 0 0 0 2 7 3 0 0 0 0 0 0 0 0 0 0 0 0 0 0 0 0 0 0 0 0 0
2 21 14 10 13 19 18 36 36 31 28 36 51 37 104 98 101 76 6 0 0 0 0 0 0 0 0 0 0 0 0 0 0 0 0 0 0 0 0 0 0 0 0 0 0 0 0
10 11 11 11 12 17 31 36 42 71 36 13 15 62 142 85 88 83 0 0 0 0 2 0 0 0 0 0 0 0 0 0 0 0 0 0 0 0 0 0 0 0 0 0 0 0 0
15 8 4 9 15 13 18 16 18 13 30 65 98 116 136 106 87 5 0 0 0 0 10 0 0 0 0 0 0 0 0 0 0 0 0 0 0 0 0 0 0 0 0 0 0 0 0
7 8 5 6 10 13 9 10 18 7 7 25 72 124 190 83 5 0 0 0 0 0 1 0 0 0 0 0 0 0 0 0 0 0 0 0 0 0 0 0 0 0 0 0 0 0 0
11 11 6 9 11 21 18 16 15 20 33 64 73 89 218 81 0 0 0 0 0 0 0 0 0 0 0 0 0 0 0 0 0 0 0 0 0 0 0 0 0 0 0 0 0 0 0
9 9 10 13 21 23 25 14 33 43 40 56 84 128 170 33 0 0 0 0 0 0 0 0 0 0 0 0 0 0 0 0 0 0 0 0 0 0 0 0 0 0 0 0 0 0 0
9 6 12 14 25 22 22 21 29 25 24 40 80 95 65 2 0 0 0 5 5 2 0 0 0 0 0 0 0 0 0 0 0 0 0 0 0 0 0 0 0 0 0 0 0 0 0
13 14 16 20 23 28 29 25 24 33 20 43 82 92 0 0 0 0 0 0 1 0 0 0 0 0 0 0 0 0 0 0 0 0 0 0 0 0 0 0 0 0 0 0 0 0 0
4 3 19 35 20 27 29 24 22 33 35 36 14 0 0 0 0 0 20 4 7 0 0 0 0 0 0 0 0 0 0 0 0 0 0 0 0 0 0 0 0 0 0 0 0 0 1
29 27 31 21 13 29 29 38 41 39 45 10 0 0 0 0 0 0 2 34 0 0 0 0 0 0 0 0 0 0 0 0 0 0 0 0 0 0 0 0 0 0 0 0 0 0 0
2 8 18 15 20 38 41 53 55 40 47 34 0 0 0 0 0 3 0 0 0 0 0 0 0 0 0 12 7 0 9 0 1 0 0 0 0 0 0 0 0 0 0 0 0 0 13
1 26 41 29 24 34 40 63 54 46 40 1 0 0 0 0 0 0 0 0 0 0 0 0 0 0 46 2 0 5 59 25 0 5 1 0 0 0 0 0 0 0 0 0 3 0 0
28 23 12 25 38 46 49 62 58 43 26 0 4 0 0 0 16 0 0 0 0 0 0 0 0 3 28 1 0 22 0 0 0 0 6 0 0 0 0 31 0 0 0 0 0 0 0
30 21 23 35 45 57 51 69 71 67 55 0 0 0 0 0 2 9 6 0 0 0 1 0 0 0 0 17 0 0 1 0 0 1 2 5 1 2 0 0 0 0 0 0 0 0 0
32 17 19 30 34 41 44 49 58 71 54 0 4 0 0 1 4 8 6 0 0 0 0 4 0 0 0 1 10 0 10 19 4 0 17 17 0 16 4 0 0 0 0 0 0 0 0
31 18 18 37 46 50 60 73 57 64 48 5 0 0 0 0 0 7 2 5 0 5 0 0 0 0 6 10 12 0 9 12 0 31 9 46 3 27 13 0 0 0 0 0 0 0 0
28 13 21 46 40 49 54 77 89 71 14 14 0 0 0 0 0 0 0 2 2 0 0 0 0 4 1 4 0 0 0 3 8 0 0 9 34 2 0 0 0 0 0 0 7 0 7
28 13 26 41 43 46 55 74 79 82 18 0 4 0 0 0 0 0 0 0 0 0 0 0 0 1 11 57 0 0 0 0 0 0 0 0 3 0 0 0 0 0 112 12 36 20 4
27 11 32 42 40 48 66 67 72 68 61 0 0 0 0 0 0 0 0 0 0 0 0 0 0 0 8 39 25 0 0 0 0 0 0 0 0 21 3 0 0 18 7 11 21 12 2
24 14 37 39 62 58 61 53 63 74 76 1 0 0 2 8 0 0 0 0 0 0 0 0 0 0 3 0 0 12 0 0 4 1 0 0 0 0 0 0 0 0 17 0 4 34 0
25 30 39 35 58 63 61 49 55 58 65 36 4 1 8 8 0 0 0 0 0 0 0 0 0 0 0 0 2 0 0 0 0 1 0 0 1 2 4 4 0 0 0 0 6 0 0
22 36 40 29 45 64 71 56 31 53 59 26 1 0 0 2 0 0 0 0 0 1 0 0 0 0 0 2 0 0 0 0 0 7 11 3 1 4 9 10 0 0 0 0 0 0 0
20 24 30 34 56 62 73 53 49 55 59 26 8 0 3 11 10 0 0 0 0 3 6 4 0 3 17 1 0 0 0 0 1 2 3 12 0 0 0 0 1 0 0 0 0 0 0

GFSGBSN_con_sbcape_102.txt.gz
CAPE
12 10 13 18 14 13 12 16 15 18 12 14 33 19 22 19 28 24 37 15 0 0 0 3 12 12 5 0 0 0 0 0 0 0 0 0 0 0 0 0 0 0 0 0 0 0 0
12 23 21 21 20 18 16 17 11 9 31 37 51 56 36 30 20 31 38 15 10 2 0 1 5 23 8 0 0 0 0 0 0 0 0 0 0 0 0 0 0 0 0 0 0 0 0
12 12 14 19 19 29 28 18 14 22 27 26 46 59 57 33 22 26 23 30 10 0 0 0 5 15 2 0 0 0 0 0 0 0 0 0 0 0 0 0 0 0 0 0 0 0 0
17 17 16 14 18 16 17 18 20 24 30 26 27 26 55 54 54 59 41 39 21 0 0 0 6 13 1 0 0 0 0 0 0 0 0 0 0 0 0 0 0 0 0 0 0 0 0
8 11 12 12 10 6 12 13 14 26 28 33 26 23 46 46 39 45 63 62 21 0 0 1 4 11 0 0 0 0 0 0 0 0 0 0 0 0 0 0 0 0 0 0 0 0 0
2 8 7 3 6 7 9 13 17 21 27 19 13 14 55 70 61 47 75 38 0 0 0 1 7 0 0 0 0 0 0 0 0 0 0 0 0 0 0 0 0 0 0 0 0 0 0
3 2 5 7 5 10 13 12 13 10 13 17 21 18 17 80 97 114 19 0 0 0 6 0 0 0 0 0 0 0 0 0 0 0 0 0 0 0 0 0 0 0 0 0 0 0 0
4 6 10 10 7 12 8 11 16 16 12 6 4 8 20 27 52 69 0 0 0 0 3 0 0 0 0 0 0 0 0 0 0 0 0 0 0 0 0 0 0 0 0 0 0 0 0
1 9 5 11 9 10 15 10 6 9 9 8 7 7 1 16 21 0 0 0 0 6 17 0 0 0 0 0 0 0 0 0 0 0 0 0 0 0 0 0 0 0 0 0 0 0 0
5 2 9 9 17 15 11 7 8 10 12 7 3 1 39 31 6 0 0 0 1 9 0 0 0 0 0 0 0 0 0 0 0 0 0 0 0 0 0 0 0 0 0 0 0 0 0
8 6 5 12 20 17 10 7 8 13 11 2 1 1 40 13 8 2 0 0 42 34 1 0 0 0 0 0 0 0 0 0 0 0 0 0 0 0 0 0 0 0 0 0 0 0 0
7 7 8 19 16 19 9 9 12 10 6 4 3 14 43 0 0 0 0 0 13 8 0 0 0 0 0 0 0 0 0 0 0 0 0 0 0 0 0 0 0 0 0 0 0 0 0
3 5 10 18 16 13 11 12 7 3 3 8 3 24 16 6 0 0 0 5 35 0 0 0 0 0 0 0 0 0 0 0 0 0 0 0 0 0 0 0 0 0 0 0 0 0 0
2 3 3 12 25 10 5 13 3 3 3 8 19 39 0 0 0 0 0 69 1 7 0 0 0 0 0 0 0 0 0 0 0 0 0 0 0 0 0 0 0 0 0 0 0 0 0
14 26 17 18 12 3 8 12 18 24 2 19 0 0 0 0 0 0 0 6 2 16 0 0 0 0 0 0 0 0 0 0 0 0 0 0 0 0 0 0 0 0 0 0 0 0 0
19 5 3 2 4 4 4 16 25 28 13 25 0 0 0 0 0 0 0 0 3 0 0 0 0 0 0 0 0 0 2 1 2 0 0 0 0 0 0 0 0 0 0 0 0 0 0
13 0 1 16 15 1 2 18 36 37 19 23 0 0 0 0 0 0 0 0 0 0 0 0 0 0 1 1 1 0 30 6 0 0 0 0 0 0 0 0 0 0 0 0 0 0 0
3 0 30 6 10 11 12 23 35 42 21 0 0 0 0 0 0 0 0 0 0 0 0 0 0 0 13 0 0 3 2 0 0 0 4 0 0 0 0 0 0 0 0 0 0 0 0
17 6 21 5 15 14 26 32 43 43 13 1 0 0 0 0 0 0 0 0 8 0 0 0 0 2 17 0 0 0 0 0 0 0 1 0 0 1 0 0 0 0 0 0 0 0 0
24 4 19 10 18 15 24 28 51 43 23 0 0 0 0 0 9 11 5 3 0 0 0 0 0 0 0 7 0 0 0 0 0 1 23 3 0 0 3 0 0 0 0 0 0 0 0
21 13 19 6 4 15 31 40 50 44 21 0 3 0 0 0 20 9 11 0 0 0 0 0 0 0 0 0 0 0 0 0 0 0 7 19 0 0 0 0 0 0 0 0 0 0 0
21 13 15 4 7 22 28 39 56 48 23 0 0 0 0 0 0 0 1 0 6 0 0 5 0 0 0 0 0 0 0 0 3 1 5 4 19 2 0 0 0 0 0 0 0 0 0
31 10 13 7 10 25 29 40 57 47 12 5 0 0 0 0 0 0 0 0 4 0 0 0 0 0 0 5 0 0 0 0 0 1 4 1 24 6 0 0 0 1 0 0 0 0 0
9 21 15 5 10 27 35 30 47 48 1 0 0 0 3 0 0 0 0 0 0 0 0 0 0 0 0 2 8 1 0 0 0 0 0 1 1 0 0 0 0 12 5 0 1 4 4
19 39 18 7 23 31 28 27 33 51 47 0 0 0 0 0 0 0 0 0 0 0 0 0 0 0 0 10 1 12 0 0 0 0 0 0 0 0 0 0 0 8 8 8 11 7 0
32 41 14 10 36 27 35 25 27 60 65 4 1 1 7 0 0 0 0 0 0 0 0 0 0 0 1 0 0 30 13 1 3 5 0 0 0 0 0 0 0 0 3 0 5 8 0
34 43 22 15 37 29 21 21 40 51 66 12 1 1 8 2 0 0 0 0 0 0 0 0 0 0 0 0 20 13 1 0 0 13 0 0 0 1 0 0 0 0 0 0 8 0 0
42 44 21 10 29 32 13 22 34 40 51 32 7 0 0 2 0 0 0 0 0 0 0 0 0 0 0 3 0 2 0 0 3 4 0 0 0 1 4 3 0 0 0 0 0 0 0
39 45 20 18 33 29 18 27 44 31 37 10 2 1 1 7 8 0 0 0 0 0 0 0 0 3 0 19 5 1 0 0 0 1 0 10 5 0 0 0 0 0 0 0 0 0 0

GFSGBSN_con_sbcape_105.txt.gz
CAPE
8 13 13 11 13 11 9 6 0 0 1 1 3 10 21 20 19 10 31 28 10 4 0 0 1 6 2 0 0 0 0 0 0 0 0 0 0 0 0 0 0 0 0 0 0 0 0
11 2 5 12 11 22 24 19 10 12 7 5 4 10 14 19 17 11 11 29 40 10 0 0 0 9 10 0 0 0 0 0 0 0 0 0 0 0 0 0 0 0 0 0 0 0 0
6 10 19 14 14 11 17 17 16 14 20 18 17 16 8 3 2 1 0 26 31 13 0 0 0 10 7 0 0 0 0 0 0 0 0 0 0 0 0 0 0 0 0 0 0 0 0
3 10 9 9 9 7 7 13 15 17 15 14 9 6 7 5 4 1 8 13 19 0 1 0 0 10 0 0 0 0 0 0 0 0 0 0 0 0 0 0 0 0 0 0 0 0 0
2 2 2 3 4 6 5 8 10 12 12 14 11 8 9 14 16 12 42 17 0 0 0 0 3 5 0 0 0 0 0 0 0 0 0 0 0 0 0 0 0 0 0 0 0 0 0
1 2 1 1 2 4 4 3 4 10 14 10 8 5 5 16 26 18 29 0 0 16 9 3 1 0 0 0 0 0 0 0 0 0 0 0 0 0 0 0 0 0 0 0 0 0 0
2 1 1 2 2 6 5 7 10 13 11 11 9 8 3 2 4 11 2 0 0 0 0 0 2 0 0 0 0 0 0 0 0 0 0 0 0 0 0 0 0 0 0 0 0 0 0
0 3 2 1 1 5 13 7 12 13 12 12 11 7 5 8 1 0 0 0 5 51 4 0 0 0 0 0 0 0 0 0 0 0 0 0 0 0 0 0 0 0 0 0 0 0 0
0 1 3 3 6 6 6 10 17 13 15 10 5 6 6 8 0 0 0 0 4 0 39 0 0 0 0 0 0 0 0 0 0 0 0 0 0 0 0 0 0 0 0 0 0 0 0
0 2 3 3 4 11 18 15 16 13 14 9 5 7 2 29 0 0 0 0 0 0 8 0 0 0 0 0 0 0 0 0 0 0 0 0 0 0 0 0 0 0 0 0 0 0 0
1 2 1 2 9 12 17 15 13 15 12 7 5 5 2 0 0 0 0 0 0 1 10 0 0 0 0 0 0 0 0 0 0 0 0 0 0 0 0 0 0 0 0 0 0 0 0
1 2 3 3 22 14 11 15 8 8 6 4 7 1 5 0 0 0 0 0 8 0 2 0 0 0 0 0 0 0 0 0 0 0 0 0 0 0 0 0 0 0 0 0 0 0 0
0 0 3 14 18 20 12 8 9 8 7 4 2 0 0 1 0 0 0 0 0 3 0 0 4 17 2 0 0 0 0 0 0 0 0 0 0 0 0 0 0 0 0 0 0 0 0
0 4 0 0 19 14 6 9 10 10 3 1 1 0 0 0 0 0 0 0 0 36 1 0 1 36 9 0 0 0 0 0 0 0 0 0 0 0 0 0 0 0 0 0 0 0 0
1 14 15 13 10 5 7 12 16 4 0 0 0 0 0 0 0 0 0 0 0 26 0 0 0 16 16 2 0 26 3 6 4 2 0 0 0 0 0 0 0 0 0 0 0 0 0
5 10 2 0 8 2 3 9 14 5 0 0 0 0 0 0 0 0 0 0 1 5 0 0 0 3 17 0 1 10 34 21 10 0 0 0 0 0 0 0 0 0 0 0 0 0 0
6 2 0 16 26 15 5 6 17 1 0 0 0 0 0 0 0 0 0 0 0 0 0 0 0 0 14 1 0 14 4 2 0 0 0 0 0 0 0 0 0 0 0 0 0 0 0
0 5 7 14 3 4 12 19 27 12 0 0 0 0 0 0 0 0 0 0 0 0 0 0 0 7 4 0 0 0 0 0 0 0 4 0 0 5 0 0 0 0 0 0 0 0 0
6 18 0 23 5 14 16 33 27 22 0 0 0 0 0 0 0 0 0 0 1 0 0 0 0 0 0 0 0 0 0 0 0 2 9 0 1 42 19 25 0 0 0 0 0 0 0
10 27 7 22 2 10 14 24 29 34 2 0 0 0 0 5 5 6 3 0 0 0 0 5 0 0 0 0 0 0 0 1 0 6 17 5 0 0 1 0 0 0 0 0 0 0 0
7 28 8 20 5 2 12 34 46 38 10 0 1 0 0 0 18 0 0 0 3 5 0 0 0 0 5 3 0 2 11 0 0 3 9 11 4 0 0 0 0 0 0 0 0 0 0
18 26 11 10 9 4 18 25 43 32 1 0 0 0 0 0 0 0 0 0 7 0 0 1 0 0 0 1 4 10 0 0 0 2 20 5 7 0 11 0 0 0 0 0 0 0 0
26 17 13 10 9 10 16 24 52 40 0 3 0 0 0 0 0 0 0 0 1 0 0 0 0 0 0 0 0 3 4 0 0 0 9 15 14 6 3 7 0 0 0 0 0 0 0
34 18 22 19 11 7 16 35 42 48 0 0 0 0 3 0 0 0 0 0 0 0 0 0 0 0 0 0 0 0 4 0 0 0 0 4 2 0 1 0 0 33 0 0 0 1 3
35 29 19 28 7 9 24 28 38 46 56 0 0 0 0 0 0 0 0 0 0 0 0 0 0 0 0 2 3 10 12 8 3 0 0 1 3 6 0 0 0 15 13 8 43 0 2
37 37 30 36 3 2 32 28 41 35 64 0 0 2 14 2 0 0 0 0 0 0 0 0 0 0 0 0 10 61 51 15 28 36 0 2 6 12 0 0 0 1 6 0 3 1 0
30 40 37 38 18 7 29 37 31 30 60 5 1 0 7 10 0 0 0 0 0 0 0 0 0 0 0 1 38 58 42 1 13 33 20 1 10 13 5 0 0 0 0 0 14 2 6
17 33 41 40 21 4 22 35 20 23 49 20 1 0 0 4 0 0 0 0 0 0 2 0 0 0 2 11 5 50 10 7 27 41 2 21 5 7 10 5 0 0 0 0 5 3 1
19 30 41 47 26 6 26 34 20 25 45 58 2 1 5 8 7 0 0 0 0 0 0 0 0 17 4 1 10 41 7 0 0 35 0 29 22 56 4 6 4 2 3 0 0 0 1

GFSGBSN_con_sbcape_108.txt.gz
CAPE
7 11 11 9 12 14 13 10 1 2 2 5 5 5 5 7 6 3 2 17 0 0 0 0 1 2 1 0 0 0 0 0 0 0 0 0 0 0 0 0 0 0 0 0 0 0 0
1 0 0 0 0 1 2 1 8 7 10 6 7 6 4 4 2 2 0 0 0 0 0 0 0 4 6 0 0 0 0 0 0 0 0 0 0 0 0 0 0 0 0 0 0 0 0
0 2 6 3 8 5 6 6 8 9 10 7 5 5 5 3 2 1 0 0 0 0 0 0 3 16 2 0 0 0 0 0 0 0 0 0 0 0 0 0 0 0 0 0 0 0 0
0 2 7 2 1 2 2 2 6 6 4 3 4 4 5 3 2 3 1 1 0 0 0 0 2 18 5 0 0 0 0 0 0 0 0 0 0 0 0 0 0 0 0 0 0 0 0
1 3 1 0 0 0 0 0 0 3 2 2 1 2 1 6 3 2 0 0 0 0 0 0 12 19 0 0 0 0 0 0 0 0 0 0 0 0 0 0 0 0 0 0 0 0 0
1 2 1 0 0 0 0 0 0 0 1 2 4 4 3 3 4 0 0 0 0 0 13 20 17 26 0 0 0 0 0 0 0 0 0 0 0 0 0 0 0 0 0 0 0 0 0
5 0 0 0 0 0 1 3 1 2 3 6 6 6 6 2 0 3 1 0 0 0 0 0 0 3 0 0 1 0 0 0 0 0 0 0 0 0 0 0 0 0 0 0 0 0 0
2 0 0 0 0 1 2 3 4 5 7 13 9 8 5 0 0 0 5 0 8 14 18 0 0 0 0 0 0 0 1 1 0 0 0 0 0 0 0 0 0 0 0 0 0 0 0
0 0 0 0 0 1 5 3 7 9 11 12 7 6 4 0 0 4 3 0 7 22 10 0 0 0 0 0 0 0 0 18 0 0 0 0 0 0 0 0 0 0 0 0 0 0 0
0 0 0 0 2 3 3 5 6 9 12 9 7 2 2 0 5 2 3 1 11 30 18 0 6 28 3 6 10 0 0 7 34 0 0 0 0 0 0 0 0 0 0 0 0 0 0
1 0 0 0 4 3 2 6 10 6 6 6 1 5 2 0 9 3 0 7 16 22 4 9 0 35 14 14 14 16 0 0 6 7 0 0 0 0 0 0 0 0 0 0 0 0 0
0 0 0 0 3 1 0 4 5 4 13 2 0 2 1 5 6 0 2 9 27 28 23 12 4 14 35 55 11 2 0 0 0 11 1 8 0 0 0 0 0 0 0 0 0 0 0
0 0 0 0 2 6 6 3 6 5 4 0 0 0 0 1 3 1 3 16 24 18 3 7 1 1 12 165 32 5 0 0 0 0 0 0 0 0 1 0 0 0 0 27 22 2 0
0 0 0 0 3 0 0 4 1 3 0 0 0 0 0 0 0 2 4 16 3 3 12 0 0 0 61 31 131 2 2 9 0 0 0 0 0 0 0 14 0 0 1 8 11 23 3
0 2 7 2 0 0 1 3 3 4 0 0 0 0 0 0 0 4 8 0 0 13 2 0 0 0 20 6 45 118 75 50 22 44 8 0 0 0 0 0 0 2 7 9 25 6 1
2 13 1 0 0 2 0 0 4 2 0 0 0 0 3 2 3 1 0 0 0 2 0 0 1 9 25 6 16 15 64 19 21 4 45 4 6 0 0 0 0 0 0 3 14 1 0
2 8 0 0 13 7 0 1 5 0 0 0 1 1 0 0 13 6 1 0 0 0 8 0 4 18 23 8 3 42 36 33 15 5 97 80 60 13 0 0 0 0 0 0 1 0 0
2 6 0 12 3 0 0 1 14 0 0 0 0 2 0 3 22 16 13 0 0 0 3 37 17 12 19 8 0 4 8 19 5 5 67 31 101 61 37 49 0 0 0 0 0 0 0
2 7 6 2 9 1 0 10 14 6 0 4 3 0 0 17 8 3 7 9 2 2 3 16 29 30 32 18 14 2 4 31 8 37 54 4 100 44 51 91 69 71 11 1 1 5 21
20 5 18 15 12 0 0 5 24 18 0 2 8 6 1 26 10 6 6 9 8 4 5 9 15 14 13 21 25 11 13 0 0 35 7 48 52 47 42 43 61 57 84 54 48 55 24
21 5 20 16 7 0 0 8 26 17 1 0 8 2 0 7 11 2 1 1 8 3 1 9 11 7 7 6 38 29 20 5 4 13 25 29 72 51 32 21 31 53 40 32 24 24 21
20 8 34 9 3 0 0 11 20 26 2 2 79 7 0 1 0 1 0 1 1 2 0 0 28 7 2 12 32 33 37 43 21 16 10 31 38 4 5 4 19 9 0 2 0 0 0
29 26 18 8 6 3 2 10 26 40 3 10 1 0 4 1 0 0 1 2 4 0 0 0 0 0 0 14 1 0 48 89 67 36 13 24 45 20 19 7 15 7 0 0 9 12 4
22 21 20 17 9 9 2 9 32 37 3 3 0 11 13 18 0 3 0 0 0 0 0 0 0 2 0 0 9 102 153 135 99 74 35 35 29 33 29 11 10 100 125 38 16 32 7
4 14 28 23 22 16 6 5 29 34 22 0 0 21 19 27 8 1 0 0 0 0 0 0 1 1 0 49 141 77 109 146 111 110 65 27 27 45 33 34 5 0 45 58 61 20 12
15 18 22 21 24 21 0 10 24 42 43 0 0 3 14 18 15 0 0 0 6 7 8 1 1 0 24 66 116 69 85 26 52 126 84 29 25 60 34 19 11 125 10 30 147 21 14
34 18 25 26 27 21 2 9 22 40 40 33 3 2 7 25 1 9 16 16 0 5 17 12 3 1 34 8 103 62 94 92 88 71 71 124 173 126 45 32 1 4 0 6 140 19 6
38 29 13 17 28 25 5 4 24 30 25 51 6 2 11 13 3 2 0 4 4 8 24 20 15 32 44 43 78 107 145 135 141 95 169 116 106 82 47 21 3 1 49 68 12 6 4
46 40 1 14 30 29 10 0 12 30 20 56 23 2 7 8 25 7 5 2 2 6 15 13 19 16 28 35 38 25 148 209 141 112 158 162 91 69 112 125 8 6 6 0 2 8 7

GFSGBSN_con_sbcape_111.txt.gz
CAPE
5 6 11 13 14 14 10 0 0 0 2 2 4 4 2 1 1 0 0 0 0 0 0 0 0 6 2 0 0 0 0 0 0 0 0 0 0 0 0 0 0 0 0 0 0 0 0
5 1 1 0 0 0 0 0 0 5 6 3 2 1 1 1 1 0 0 1 0 0 0 0 0 6 2 0 0 0 0 0 0 0 0 0 0 0 0 0 0 0 0 0 0 0 0
2 4 1 0 0 0 0 0 0 3 2 1 1 0 0 0 0 0 0 0 0 0 0 0 0 1 0 0 0 0 0 0 0 0 0 0 0 0 0 0 0 0 0 0 0 0 0
3 3 1 0 0 0 0 2 2 1 1 0 0 0 0 0 0 0 0 0 0 0 0 0 0 0 0 0 0 0 0 0 0 0 0 0 0 0 0 0 0 0 0 0 0 0 0
0 6 2 0 0 0 0 0 0 0 0 0 0 0 0 0 0 1 0 0 0 0 0 0 3 14 0 0 0 0 0 0 0 0 0 0 0 0 0 0 0 0 0 0 0 0 0
4 5 2 1 0 0 0 0 0 0 0 0 0 0 0 0 0 0 0 0 0 0 0 0 6 15 0 0 0 0 0 6 0 0 0 0 0 0 0 0 0 0 0 0 0 0 0
9 8 3 0 0 0 0 0 0 0 0 2 2 1 0 0 0 0 0 0 0 0 0 0 0 0 0 0 0 0 0 0 20 0 0 0 0 0 0 0 0 0 0 0 0 0 2
5 3 3 0 0 0 0 0 0 0 0 1 0 0 0 0 0 0 0 0 5 6 8 0 0 0 10 41 30 0 0 0 9 80 6 0 0 0 0 0 0 2 1 0 0 0 0
8 3 4 1 0 1 0 0 0 0 1 0 0 0 0 0 0 1 5 3 11 10 7 0 0 0 0 2 14 0 3 0 3 105 64 2 0 0 0 0 0 1 0 0 0 0 0
5 2 0 0 0 0 0 0 0 0 0 0 0 0 0 0 0 0 2 5 18 23 6 4 1 0 0 9 15 23 0 0 5 69 89 5 0 0 0 0 0 0 0 0 0 1 0
8 0 0 0 2 0 0 0 0 0 0 1 0 0 1 0 3 1 0 9 17 2 19 0 0 0 0 35 36 0 11 24 1 14 9 51 8 2 0 0 0 0 0 0 5 4 0
3 3 0 0 3 0 0 0 0 0 0 0 0 0 1 3 26 6 2 9 4 21 37 0 0 0 0 36 180 73 45 8 44 5 0 56 19 9 1 0 0 0 0 0 1 5 8
6 0 1 8 0 0 0 0 0 0 0 0 0 0 2 2 4 1 4 8 55 74 2 0 0 0 0 1 29 121 29 1 19 46 3 45 50 11 14 17 8 3 10 4 3 5 0
2 0 1 0 0 0 0 0 0 0 0 0 0 0 5 6 10 11 6 9 32 18 28 0 0 0 5 3 0 57 103 0 0 0 9 58 44 53 35 12 1 2 7 10 7 4 0
2 3 20 12 0 0 0 0 0 0 0 0 0 15 27 6 15 7 2 36 25 12 2 0 0 0 7 0 7 24 182 291 171 218 147 57 60 28 79 7 15 11 6 0 0 3 11
1 15 3 0 0 0 0 0 0 0 0 0 8 6 4 1 9 9 0 0 0 0 0 0 3 6 7 2 2 21 128 13 26 100 267 179 25 9 14 38 10 11 5 11 13 1 2
10 17 0 0 1 5 0 0 0 0 0 0 20 9 1 0 3 13 8 0 0 1 0 2 12 37 15 15 9 41 38 43 12 112 258 271 214 1 0 0 0 0 19 15 7 4 4
9 14 0 0 0 0 0 0 0 0 0 0 4 9 0 0 21 15 19 1 0 8 5 19 34 29 37 37 14 43 36 2 2 42 72 131 181 29 11 17 5 0 0 17 16 8 8
4 2 5 2 4 0 0 0 0 0 0 24 2 0 0 1 19 1 5 5 3 16 13 10 24 22 25 29 31 20 31 2 0 27 41 30 111 45 38 88 5 0 0 5 15 11 4
7 4 14 0 8 0 0 0 6 2 0 4 11 17 4 8 1 5 3 7 19 10 17 14 15 28 38 20 32 26 40 25 9 32 9 29 46 48 137 46 30 54 12 1 19 51 42
16 16 8 5 9 0 0 0 10 3 0 2 28 15 0 14 13 3 3 6 14 11 0 12 31 28 23 27 25 41 49 35 29 37 35 68 97 39 25 8 51 0 37 75 60 68 30
22 11 9 20 10 0 0 0 0 6 0 17 0 28 12 9 0 0 2 8 5 14 1 0 8 7 7 18 32 30 30 39 36 35 25 11 73 44 45 37 48 69 35 46 63 43 47
25 15 17 23 0 0 0 0 2 14 2 6 22 9 21 6 15 9 4 2 5 3 0 0 1 1 2 11 3 2 3 10 26 37 31 20 25 74 34 22 25 22 39 36 54 56 69
11 25 30 13 7 4 0 0 0 13 4 45 15 16 13 21 13 12 11 6 2 2 0 0 1 5 1 0 0 31 109 136 113 65 19 47 25 19 80 14 22 115 129 91 54 147 127
36 23 17 18 9 13 1 0 0 8 16 64 39 23 25 31 17 16 18 12 8 11 3 7 11 17 7 11 44 65 116 118 112 99 70 43 56 80 84 83 57 22 191 137 154 85 36
42 13 8 23 24 15 7 0 1 11 28 4 0 41 50 48 30 15 23 24 31 20 34 33 25 13 11 38 64 97 104 83 102 100 78 84 100 75 147 46 52 29 0 0 4 174 8
56 31 10 21 19 23 15 1 2 7 17 72 12 1 16 39 19 35 44 38 35 26 33 48 34 16 42 17 48 125 131 124 98 55 80 129 161 157 117 72 101 14 19 0 103 27 11
59 56 34 29 23 33 21 5 2 12 17 55 37 2 12 26 16 19 31 32 36 30 50 39 26 40 41 41 59 81 128 171 135 105 102 122 111 179 176 132 90 2 8 22 4 10 8
56 56 52 44 36 35 28 8 1 4 15 31 37 4 19 14 9 9 12 23 41 27 45 21 22 15 27 57 78 30 45 154 100 162 160 156 76 26 262 51 14 6 7 1 1 4 6

GFSGBSN_con_sbcape_117.txt.gz
CAPE
29 15 10 8 1 0 3 0 0 0 0 0 0 0 0 0 0 0 0 0 0 0 0 0 0 3 0 0 0 0 0 0 0 0 0 0 0 0 0 0 0 0 0 0 0 0 0
27 9 8 11 6 6 18 1 0 0 0 0 0 0 0 0 0 0 0 0 0 0 0 0 0 3 0 0 0 0 0 0 0 0 0 0 0 0 0 0 0 0 0 0 0 0 0
17 0 1 10 10 9 11 2 0 0 0 0 0 0 0 0 0 0 0 0 0 0 0 0 0 0 0 0 0 0 0 0 0 0 0 0 0 0 0 0 0 0 0 0 0 0 0
32 26 17 5 3 5 3 0 0 0 0 0 0 0 0 0 0 0 0 0 0 0 0 0 0 0 0 0 0 0 0 0 0 0 0 0 0 0 0 0 0 0 0 0 0 0 0
32 18 13 4 1 1 0 0 0 0 0 0 0 0 0 0 0 0 0 0 0 0 0 0 0 0 0 0 0 0 0 0 0 0 0 0 0 0 0 0 0 0 0 0 0 0 0
42 27 19 8 2 5 0 0 0 0 0 0 0 0 0 0 0 0 0 0 0 0 0 0 0 0 0 0 0 0 0 0 0 0 0 0 0 0 0 0 0 0 0 0 0 0 0
45 42 20 14 6 2 6 7 0 0 0 0 0 0 0 0 0 0 0 0 0 0 0 0 0 0 0 0 0 0 0 0 0 0 0 0 0 0 0 0 0 0 0 0 0 0 0
36 33 19 5 2 17 11 6 0 0 0 0 0 0 0 0 0 0 0 0 0 0 0 0 0 0 0 0 0 0 0 0 0 0 0 4 0 0 0 0 0 0 0 0 0 0 4
5 18 20 18 22 15 8 3 0 0 0 0 0 0 0 0 0 0 0 0 0 0 0 0 0 0 0 0 0 0 0 0 0 0 0 22 0 1 14 13 44 0 0 0 0 0 5
34 43 20 21 15 11 7 0 0 0 0 0 0 0 0 0 0 0 0 0 0 0 0 0 0 0 0 0 0 0 0 0 0 0 0 0 0 0 0 1 11 1 0 0 0 0 40
43 25 18 16 14 8 4 0 0 0 0 0 0 0 0 0 0 0 0 0 0 0 0 0 0 0 0 0 0 0 0 0 0 0 0 0 0 11 5 0 34 0 0 0 0 1 4
27 29 18 14 16 11 4 0 0 0 0 0 0 0 0 0 0 0 0 0 0 0 0 0 0 0 0 0 0 0 0 0 0 0 0 0 0 0 0 54 36 0 0 5 39 31 2
23 24 17 15 21 9 7 1 0 0 0 0 0 0 0 0 0 0 0 0 0 0 0 0 0 0 0 0 0 0 0 0 0 3 0 0 0 0 29 187 144 0 0 89 34 46 0
26 23 12 10 20 6 1 0 0 0 0 0 0 0 0 0 0 0 0 0 0 0 0 0 0 0 0 0 0 0 0 0 0 2 0 1 0 0 14 37 46 0 127 4 7 0 0
22 16 12 13 11 14 0 1 0 0 0 0 0 0 0 0 0 0 0 0 0 0 0 0 0 0 0 0 0 0 0 0 0 1 53 17 2 0 29 1 13 16 68 55 51 45 2
24 7 8 9 14 3 0 0 0 0 0 0 0 0 0 0 0 0 0 0 0 0 0 0 0 0 0 0 0 0 0 0 0 0 15 15 15 0 1 64 18 26 16 9 39 33 46
16 19 38 26 6 0 0 0 0 0 0 0 0 0 0 0 0 0 0 0 0 0 0 0 0 1 0 0 0 0 0 0 0 10 0 3 35 7 0 27 57 37 12 12 0 1 0
12 19 24 2 0 7 0 0 0 0 0 0 0 0 0 0 0 0 0 0 0 0 4 0 2 0 0 0 0 0 0 9 0 2 1 18 0 3 0 0 0 22 2 0 0 0 0
9 39 2 5 19 0 0 0 0 0 0 0 0 0 0 0 0 0 1 0 0 0 0 1 1 12 2 0 0 0 4 0 0 0 14 11 1 0 1 0 13 0 0 0 0 1 0
26 25 12 10 15 0 0 0 0 0 0 0 0 0 0 0 0 0 0 1 0 3 0 0 6 15 0 0 0 0 0 0 0 0 54 30 34 2 0 0 8 3 33 68 11 0 0
28 12 16 15 6 5 0 0 0 0 0 0 0 0 0 4 0 0 0 0 0 2 1 0 0 0 0 0 0 0 0 0 0 0 0 0 0 15 4 13 3 11 31 17 17 16 0
19 18 36 39 13 7 0 0 0 0 0 0 0 0 0 0 0 0 0 0 0 0 0 0 0 0 0 0 6 0 0 0 0 0 0 0 0 0 8 0 0 6 6 13 35 41 21
39 23 42 22 19 3 0 0 0 0 0 0 0 0 0 0 0 0 0 0 2 1 0 1 0 0 0 2 0 0 0 0 0 0 0 0 3 0 2 11 4 13 9 8 3 33 50
43 28 27 21 16 4 0 0 0 0 0 0 0 0 0 0 0 0 2 0 3 3 1 0 1 2 0 0 0 0 0 0 0 0 6 4 2 0 0 0 9 5 1 4 4 11 6
47 44 27 14 26 6 0 0 0 0 0 0 1 0 0 0 0 0 9 6 0 2 11 14 13 2 0 0 0 0 0 4 27 13 2 15 17 2 3 0 20 0 0 1 4 17 15
51 45 30 42 45 27 16 7 0 0 0 0 0 0 0 0 0 0 0 7 0 0 0 15 0 0 0 0 0 0 0 10 24 44 0 13 15 11 9 1 1 4 1 0 0 5 15
51 49 45 46 37 31 38 21 0 0 0 0 0 0 0 0 0 0 1 0 1 0 0 0 0 0 0 0 0 2 0 12 2 0 2 0 0 0 0 6 9 8 1 0 0 20 9
58 49 47 44 48 46 37 22 8 0 1 0 3 2 0 1 0 0 0 1 0 0 0 0 0 0 0 0 3 0 1 0 1 39 26 5 0 3 0 0 1 18 0 6 11 19 18
47 48 42 34 38 41 47 31 13 11 3 0 7 25 4 0 0 0 0 0 0 0 0 0 0 0 0 0 0 0 0 2 0 35 0 2 6 1 0 3 17 12 20 13 10 1 1

GFSGBSN_con_sbcape_123.txt.gz
CAPE
21 21 8 21 15 19 7 3 0 0 0 0 0 0 0 0 0 0 0 0 0 0 0 0 0 0 0 0 0 0 0 0 0 0 0 0 0 0 0 0 0 0 0 0 0 0 0
14 12 16 17 12 7 6 3 0 0 0 0 0 0 0 0 0 0 0 0 0 0 0 0 0 0 0 0 0 0 0 0 0 0 0 0 0 0 0 0 0 0 0 0 0 0 0
14 12 24 15 5 2 10 8 1 0 0 0 0 0 0 0 0 0 0 0 0 0 0 0 0 0 0 0 0 0 0 0 0 0 0 0 0 0 0 0 0 0 0 0 0 0 0
12 16 18 7 0 0 0 10 5 1 0 0 0 0 0 0 0 0 0 0 0 0 0 0 0 0 0 0 0 0 0 0 0 0 0 0 0 0 0 0 0 0 0 0 0 0 0
11 13 18 10 3 0 5 14 7 0 0 0 0 0 0 0 0 0 0 0 0 0 0 0 0 0 0 0 0 0 0 0 0 0 0 0 0 0 0 0 0 0 0 0 0 0 0
10 12 15 13 14 19 22 11 2 1 0 0 0 0 0 0 0 0 0 0 0 0 0 0 0 0 0 0 0 0 0 0 0 0 0 0 0 0 0 0 0 0 0 0 0 0 0
1 12 16 20 24 15 19 2 3 0 0 0 0 0 0 0 0 0 0 0 0 0 0 0 0 0 0 0 0 0 0 0 0 0 0 0 0 0 0 0 0 0 0 0 0 0 0
5 11 23 26 16 16 22 11 2 0 0 0 0 0 0 0 0 0 0 0 0 0 0 0 0 0 0 0 0 0 0 0 0 0 0 0 0 0 0 0 0 0 0 0 0 0 0
3 9 23 30 29 18 15 27 1 0 0 0 0 0 0 0 0 0 0 0 0 0 0 0 0 0 0 0 0 0 0 0 0 0 0 0 0 0 0 0 0 0 0 0 0 0 0
4 14 23 34 14 15 30 32 11 2 0 0 0 0 0 0 0 0 0 0 0 0 0 0 0 0 0 0 0 0 0 0 0 0 0 0 0 0 0 0 0 0 0 0 4 0 0
10 15 20 26 34 29 31 26 6 9 2 0 0 0 0 0 0 0 0 0 0 0 0 0 0 0 0 0 0 0 0 0 0 0 0 0 0 0 0 0 0 0 0 4 0 0 0
12 22 30 32 42 38 29 14 7 6 0 0 0 0 0 0 0 0 0 0 0 0 0 0 0 0 0 0 0 0 0 0 0 0 0 0 0 0 0 0 0 0 1 0 0 0 1
35 44 48 42 40 37 35 17 12 4 1 0 0 0 0 0 0 0 0 0 0 0 0 0 0 0 0 0 0 0 0 0 0 0 0 0 0 0 0 0 0 0 0 0 0 0 0
47 49 59 63 57 37 22 6 2 2 0 0 0 0 0 0 0 0 0 0 0 0 0 0 0 0 0 0 0 0 0 0 0 0 0 0 0 0 0 0 1 1 0 0 0 0 0
54 63 61 56 36 9 14 18 9 3 0 0 0 0 0 0 0 0 0 0 0 0 0 0 0 0 0 0 0 0 0 0 0 0 3 14 0 0 0 0 1 0 0 0 0 2 3
50 50 45 68 31 34 22 13 7 1 0 0 0 0 0 0 0 0 0 0 0 0 0 0 0 0 0 0 0 0 0 0 0 0 0 12 11 0 0 0 0 0 0 3 21 8 31
35 30 26 45 32 22 25 7 2 0 0 0 0 0 0 0 0 0 0 0 0 0 0 0 0 0 0 0 0 0 0 0 0 0 0 0 12 0 0 2 1 0 16 10 4 11 56
13 31 45 35 22 6 7 3 4 0 0 0 0 0 0 0 0 0 0 0 0 0 0 0 0 0 0 0 0 0 0 0 0 0 0 0 2 2 0 0 0 1 3 9 3 11 31
14 29 11 26 9 5 7 10 5 0 0 0 0 0 0 0 0 0 0 0 0 0 0 0 0 0 0 0 0 0 0 0 0 0 0 0 0 0 0 0 0 0 0 3 18 17 17
65 34 17 15 32 22 7 8 1 0 0 0 0 0 0 0 0 0 0 0 0 0 0 0 0 0 0 0 0 0 0 0 0 0 0 0 0 0 0 0 6 10 0 1 6 6 5
46 2 33 29 24 15 8 0 0 0 0 0 0 0 0 0 0 0 0 0 0 0 0 0 0 0 0 0 0 0 0 0 0 0 0 0 0 0 0 0 5 16 19 3 4 2 1
19 7 55 55 14 0 0 0 0 0 0 0 0 0 0 0 0 0 0 0 0 0 0 0 0 0 0 0 0 0 0 0 0 0 0 0 0 0 0 3 0 0 1 0 0 2 19
50 29 21 27 18 4 0 0 0 0 0 0 0 0 0 0 0 0 0 0 0 0 0 0 0 0 0 0 0 0 0 0 0 0 0 0 0 0 0 0 30 0 4 10 7 7 16
55 16 27 20 23 6 0 0 0 0 0 0 0 0 0 0 0 0 0 0 0 0 0 0 0 0 0 0 0 0 0 0 0 0 0 0 0 0 0 0 0 5 2 17 7 12 6
55 38 18 26 29 5 0 0 0 0 0 0 0 0 0 0 0 0 0 0 0 0 0 0 0 0 0 0 0 0 0 0 0 0 0 0 0 0 0 0 0 1 0 11 17 15 11
66 54 36 56 34 2 0 0 0 0 0 0 0 0 0 0 0 0 0 0 0 0 0 0 0 0 0 0 0 0 0 0 0 0 0 0 0 0 0 0 0 0 2 1 2 4 15
68 63 54 49 31 6 0 0 0 0 0 0 0 0 0 0 0 0 0 0 0 0 0 0 0 0 0 0 0 0 0 0 0 0 0 0 0 0 0 2 1 6 2 0 0 4 6
81 74 51 51 40 23 4 2 0 0 0 0 0 0 0 0 0 0 0 0 0 0 0 0 0 0 0 0 0 0 0 0 0 0 0 2 1 0 0 0 0 2 0 4 14 6 3
47 63 53 49 46 42 24 14 5 0 0 0 0 0 0 0 0 0 0 0 0 0 0 0 0 0 0 0 0 0 0 0 0 0 0 0 4 0 4 1 4 6 23 29 14 10 12

GFSGBSN_con_sbcape_126.txt.gz
CAPE
3 7 13 13 10 7 21 7 7 0 0 0 0 0 0 0 0 0 0 0 0 0 0 0 0 0 0 0 0 0 0 0 0 0 0 0 0 0 0 0 0 0 0 0 0 0 0
3 1 5 13 8 15 17 18 11 0 0 0 0 0 0 0 0 0 0 0 0 0 0 0 0 0 0 0 0 0 0 0 0 0 0 0 0 0 0 0 0 0 0 0 0 0 0
4 3 2 6 7 12 19 7 9 0 0 0 0 0 0 0 0 0 0 0 0 0 0 0 0 0 0 0 0 0 0 0 0 0 0 0 0 0 0 0 0 0 0 0 0 0 0
4 3 4 2 4 6 7 5 2 0 0 0 0 0 0 0 0 0 0 0 0 0 0 0 0 0 0 0 0 0 0 0 0 0 0 0 0 0 0 0 0 0 0 0 0 0 0
24 18 3 3 5 5 4 7 4 4 2 1 0 0 0 0 0 0 0 0 0 0 0 0 0 0 0 0 0 0 0 0 0 0 0 0 0 0 0 0 0 0 0 0 0 0 0
6 39 9 2 5 4 6 8 8 12 10 0 0 0 0 0 0 0 0 0 0 0 0 0 0 0 0 0 0 0 0 0 0 0 0 0 0 0 0 0 0 0 0 0 0 0 0
13 5 32 2 6 8 13 12 14 6 3 0 0 0 0 0 0 0 0 0 0 0 0 0 0 0 0 0 0 0 0 0 0 0 0 0 0 0 0 0 0 0 0 0 0 0 0
4 18 32 6 7 12 18 22 18 15 4 0 0 0 0 0 0 0 0 0 0 0 0 0 0 0 0 0 0 0 0 0 0 0 0 0 0 0 0 0 0 0 0 0 0 0 0
4 17 31 6 9 18 26 24 17 2 1 0 0 0 0 0 0 0 0 0 0 0 0 0 0 0 0 0 0 0 0 0 0 0 0 0 0 0 0 0 0 0 0 0 0 0 0
1 29 25 7 14 23 24 25 8 4 1 0 0 0 0 0 0 0 0 0 0 0 0 0 0 0 0 0 0 0 0 0 0 0 0 0 0 0 0 0 0 0 0 0 0 1 4
0 45 14 4 13 17 17 21 7 9 10 3 0 0 0 0 0 0 0 0 0 0 0 0 0 0 0 0 0 0 0 0 0 0 0 0 0 0 0 0 0 0 0 0 1 4 0
63 14 3 8 14 13 20 25 17 12 13 7 0 0 0 0 0 0 0 0 0 0 0 0 0 0 0 0 0 0 0 0 0 0 0 0 0 0 0 0 0 0 0 0 0 0 0
42 0 5 13 17 32 37 32 19 20 4 2 0 0 0 0 0 0 0 0 0 0 0 0 0 0 0 0 0 0 0 0 0 0 0 0 0 0 0 0 0 0 0 0 0 0 0
5 9 19 28 34 45 42 30 24 22 4 7 7 0 0 0 0 0 0 0 0 0 0 0 0 0 0 0 0 0 0 0 0 0 0 0 0 0 0 0 0 0 0 0 0 0 0
39 72 58 65 58 37 29 25 25 7 6 5 2 0 0 0 0 0 0 0 0 0 0 0 0 0 0 0 0 0 0 0 0 0 0 0 0 0 0 0 0 0 0 0 0 0 0
8 9 34 47 46 47 39 25 5 24 25 16 0 0 0 0 0 0 0 0 0 0 0 0 0 0 0 0 0 0 0 0 0 0 0 0 0 0 0 0 0 0 0 0 0 0 16
33 41 37 32 34 29 35 32 20 17 12 0 0 0 0 0 0 0 0 0 0 0 0 0 0 0 0 0 0 0 0 0 0 0 0 0 0 0 0 0 1 0 6 1 105 4 54
27 66 60 57 51 39 33 28 26 15 9 0 0 2 0 0 0 0 0 0 0 0 0 0 0 0 0 0 0 0 0 0 0 0 0 0 1 3 0 0 0 16 15 16 28 1 2
35 67 42 20 18 29 23 21 20 11 0 0 0 0 0 0 0 0 0 0 0 0 0 0 0 0 0 0 0 0 0 0 0 0 0 0 0 0 0 0 0 0 0 4 13 23 10
55 45 58 23 8 19 20 19 14 3 0 0 0 0 0 0 0 0 0 0 0 0 0 0 0 0 0 0 0 0 0 0 0 0 0 0 0 0 0 0 13 7 21 18 7 3 7
55 58 35 20 38 23 22 15 9 0 0 0 0 0 0 0 0 0 0 0 0 0 0 0 0 0 0 0 0 0 0 0 0 0 0 0 0 0 0 0 18 1 9 5 5 9 15
45 24 65 48 31 14 5 4 0 0 0 0 0 0 0 0 0 0 0 0 0 0 0 0 0 0 0 0 0 0 0 0 0 0 0 0 0 0 0 0 40 1 1 0 0 4 34
44 42 36 26 15 9 0 0 0 0 0 0 0 0 0 0 0 0 0 0 0 0 0 0 0 0 0 0 0 0 0 0 0 0 0 0 0 0 0 0 10 0 4 12 4 6 25
23 22 30 30 17 4 0 0 0 0 0 0 0 0 0 0 0 0 0 0 0 0 0 0 0 0 0 0 0 0 0 0 0 0 0 0 0 0 0 0 0 9 0 17 9 7 5
59 40 39 34 11 0 0 0 0 0 0 0 0 0 0 0 0 0 0 0 0 0 0 0 0 0 0 0 0 0 0 0 0 0 0 0 0 0 0 0 0 0 0 5 5 7 11
25 29 21 24 3 0 0 0 0 0 0 0 0 0 0 0 0 0 0 0 0 0 0 0 0 0 0 0 0 0 0 0 0 0 0 0 0 3 0 1 0 0 0 2 14 3 4
19 48 61 40 5 2 5 0 0 0 0 0 0 0 0 0 0 0 0 0 0 0 0 0 0 0 0 0 0 0 0 0 0 0 0 0 0 0 0 0 0 3 0 0 1 3 4
68 78 71 49 15 0 0 0 2 0 0 0 0 0 0 0 0 0 0 0 0 0 0 0 0 0 0 0 0 0 0 0 0 0 8 0 3 0 0 0 0 1 0 1 17 12 4
69 85 77 58 17 0 0 2 7 0 0 0 0 0 0 0 0 0 0 0 0 0 0 0 0 0 0 0 0 0 0 0 0 0 0 0 0 0 2 1 2 4 10 15 18 10 7

GFSGBSN_con_sbcape_129.txt.gz
CAPE
4 7 3 4 7 3 0 0 4 2 0 0 0 0 0 0 0 0 0 0 0 0 0 0 0 0 0 0 0 0 0 0 0 0 0 0 0 0 0 0 0 0 0 0 0 0 0
2 2 1 1 4 5 5 1 1 0 0 0 0 0 0 0 0 0 0 0 0 0 0 0 0 0 0 0 0 0 0 0 0 0 0 0 0 0 0 0 0 0 0 0 0 0 0
11 8 1 0 1 4 7 1 1 2 0 0 0 0 0 0 0 0 0 0 0 0 0 0 0 0 0 0 0 0 0 0 0 0 0 0 0 0 0 0 0 0 0 0 0 0 0
9 9 15 4 0 0 0 2 1 3 0 0 0 0 0 0 0 0 0 0 0 0 0 0 0 0 0 0 0 0 0 0 0 0 0 0 0 0 0 0 0 0 0 0 0 0 0
7 14 9 9 3 1 0 1 2 5 1 1 1 0 0 0 0 0 0 0 0 0 0 0 0 0 0 0 0 0 0 0 0 0 0 0 0 0 0 0 0 0 0 0 0 0 0
21 10 13 11 23 1 1 2 1 1 2 4 3 0 0 0 0 0 0 0 0 0 0 0 0 0 0 0 0 0 0 0 0 0 0 0 0 0 0 0 0 0 0 0 0 0 0
17 24 12 14 10 45 9 2 2 3 6 7 1 0 0 0 0 0 0 0 0 0 0 0 0 0 0 0 0 0 0 0 0 0 0 0 0 0 0 0 0 0 0 0 0 0 0
19 14 10 13 8 29 50 11 3 5 12 5 3 0 0 0 0 0 0 0 0 0 0 0 0 0 0 0 0 0 0 0 0 0 0 0 0 0 0 0 0 0 0 0 0 0 0
17 9 5 2 14 21 39 13 5 8 14 7 7 0 0 0 0 0 0 0 0 0 0 0 0 0 0 0 0 0 0 0 0 0 0 0 0 0 0 0 0 0 0 0 0 0 0
14 2 0 4 10 30 43 17 10 16 14 7 4 0 0 0 0 0 0 0 0 0 0 0 0 0 0 0 0 0 0 0 0 0 0 0 0 0 0 0 0 0 0 0 0 0 2
2 0 2 4 0 11 31 3 15 16 10 16 2 0 0 0 0 0 0 0 0 0 0 0 0 0 0 0 0 0 0 0 0 0 0 0 0 0 0 0 0 0 0 0 0 5 6
3 4 13 22 2 22 0 7 12 11 11 8 0 0 0 0 0 0 0 0 0 0 0 0 0 0 0 0 0 0 0 0 0 0 0 0 0 0 0 0 0 0 0 0 2 5 1
2 76 73 4 14 1 3 12 14 15 16 8 0 0 0 0 0 0 0 0 0 0 0 0 0 0 0 0 0 0 0 0 0 0 0 0 0 0 0 0 0 0 3 1 0 2 0
18 53 21 0 3 10 16 18 23 26 16 7 17 11 0 0 0 0 0 0 0 0 0 0 0 0 0 0 0 0 0 0 0 0 0 0 0 0 0 0 0 0 3 8 2 0 0
0 32 1 6 15 23 28 37 36 32 20 38 4 0 0 0 0 0 0 0 0 0 0 0 0 0 0 0 0 0 0 0 0 0 0 0 0 0 0 0 0 16 11 1 4 0 6
4 0 27 26 42 41 36 35 37 45 53 20 0 0 0 0 0 0 0 0 0 0 0 0 0 0 0 0 0 0 0 0 0 0 0 0 0 0 0 0 5 6 13 37 9 1 1
18 20 5 2 33 32 32 47 45 27 38 5 0 7 0 0 0 0 0 0 0 0 0 0 0 0 0 0 0 0 0 0 0 0 0 0 0 0 0 0 0 3 7 20 17 14 30
11 12 25 32 22 13 29 38 31 20 12 2 0 7 0 0 5 0 0 0 0 0 0 0 0 0 0 0 0 0 0 0 0 0 0 0 0 0 0 0 0 0 3 16 22 12 9
43 42 39 32 32 27 52 55 41 20 2 0 4 4 0 0 0 0 0 0 0 0 0 0 0 0 0 0 0 0 0 0 0 0 0 0 0 0 0 0 0 1 5 13 27 19 19
36 29 27 54 62 72 57 33 39 37 4 0 0 7 0 0 0 0 0 0 0 0 0 0 0 0 0 0 0 0 0 0 0 0 0 0 0 0 0 0 8 7 5 4 3 33 10
38 44 16 33 34 50 49 30 32 25 2 0 0 0 0 0 0 0 0 0 0 0 0 0 0 0 0 0 0 0 0 0 0 0 0 0 0 0 0 0 12 12 4 6 4 7 1
39 18 46 77 40 75 69 49 13 0 0 0 0 0 0 0 0 0 0 0 0 0 0 0 0 0 0 0 0 0 0 0 0 0 0 0 0 0 0 0 7 7 2 2 2 3 15
34 42 50 53 26 32 28 14 0 0 0 0 0 0 0 0 0 0 0 0 0 0 0 0 0 0 0 0 0 0 0 0 0 0 0 0 0 0 0 0 35 2 3 16 9 7 13
34 50 54 40 20 11 1 0 0 0 0 0 0 0 0 0 0 0 0 0 0 0 0 0 0 0 0 0 0 0 0 0 0 0 0 0 0 1 1 0 2 6 0 22 12 14 15
53 61 37 23 11 0 0 0 0 0 0 0 0 0 0 0 0 0 0 0 0 0 0 0 0 0 0 0 0 0 0 0 0 0 0 0 0 8 7 2 8 7 1 4 4 8 6
50 59 45 34 0 0 0 0 0 0 0 0 0 0 0 0 0 0 0 0 0 0 0 0 0 0 0 0 0 0 0 0 0 0 0 0 0 0 0 3 0 1 0 1 21 8 11
42 55 57 8 0 0 0 0 0 0 0 0 0 0 0 0 0 0 0 0 0 0 0 0 0 0 0 0 0 0 0 0 0 0 0 0 0 1 2 1 4 3 0 0 15 9 9
31 39 62 20 0 0 0 3 0 0 0 0 0 0 0 0 0 0 0 0 0 0 0 0 0 0 0 0 0 0 0 0 1 1 0 0 0 1 1 0 0 0 0 0 11 23 8
33 28 47 20 14 0 8 9 0 0 0 0 0 0 0 0 0 0 0 0 0 0 0 0 0 0 0 0 0 0 0 0 0 5 0 4 2 1 0 2 5 4 3 6 5 5 3

GFSGBSN_con_sbcape_132.txt.gz
CAPE
3 1 4 1 0 2 1 0 0 0 2 0 0 0 0 0 0 0 0 0 0 0 0 0 0 0 0 0 0 0 0 0 0 0 0 0 0 0 0 0 0 0 0 0 0 0 0
6 2 3 5 2 1 5 7 5 0 0 0 0 0 0 0 0 0 0 0 0 0 0 0 0 0 0 0 0 0 0 0 0 0 0 0 0 0 0 0 0 0 0 0 0 0 0
14 12 8 0 2 1 2 1 1 1 0 0 0 0 0 0 0 0 0 0 0 0 0 0 0 0 0 0 0 0 0 0 0 0 0 0 0 0 0 0 0 0 0 0 0 0 0
8 9 5 3 0 5 0 0 0 1 0 0 0 0 0 0 0 0 0 0 0 0 0 0 0 0 0 0 0 0 0 0 0 0 0 0 0 0 0 0 0 0 0 0 0 0 0
8 5 7 11 8 2 3 0 0 2 2 0 0 0 0 0 0 0 0 0 0 0 0 0 0 0 0 0 0 0 0 0 0 0 0 0 0 0 0 0 0 0 0 0 0 0 0
18 11 18 14 14 10 6 10 2 0 1 1 0 0 0 0 0 0 0 0 0 0 0 0 0 0 0 0 0 0 0 0 0 0 0 0 0 0 0 0 0 0 0 0 0 0 0
30 31 45 28 8 6 15 13 33 0 1 5 3 4 0 0 0 0 0 0 0 0 0 0 0 0 0 0 0 0 0 0 0 0 0 0 0 0 0 0 0 0 0 0 0 0 0
29 30 13 21 11 12 13 20 17 7 1 5 4 2 0 0 0 0 0 0 0 0 0 0 0 0 0 0 0 0 0 0 0 0 0 0 0 0 0 0 0 0 0 0 0 0 0
46 27 12 13 13 13 17 21 19 27 2 5 7 4 0 2 0 0 0 0 0 0 0 0 0 0 0 0 0 0 0 0 0 0 0 0 0 0 0 0 0 0 0 0 0 0 0
58 33 16 18 15 12 11 19 22 27 2 7 8 3 13 7 3 0 0 0 0 0 0 0 0 0 0 0 0 0 0 0 0 0 0 0 0 0 0 0 0 0 0 0 0 0 5
42 30 14 4 2 0 4 11 13 24 0 12 8 10 8 1 0 0 0 0 0 0 0 0 0 0 0 0 0 0 0 0 0 0 0 0 0 0 0 0 0 0 0 0 0 3 3
35 24 3 0 2 0 2 5 8 2 5 6 6 5 0 2 0 0 0 0 0 0 0 0 0 0 0 0 0 0 0 0 0 0 0 0 0 0 0 0 0 0 0 4 1 1 1
36 21 1 2 2 0 2 10 15 1 5 9 5 0 0 0 4 0 0 0 0 0 0 0 0 0 0 0 0 0 0 0 0 0 0 0 0 0 0 0 0 6 18 13 11 12 2
24 5 0 3 1 0 5 8 0 5 12 4 2 15 4 4 0 0 4 0 0 0 0 0 0 0 0 0 0 0 0 0 0 0 0 0 0 0 0 0 4 12 6 18 21 30 21
21 0 0 2 4 0 0 1 9 10 8 15 15 12 0 0 13 21 8 9 0 0 0 0 0 0 0 0 0 0 0 0 0 0 0 0 0 0 0 0 9 6 61 20 32 38 25
21 5 0 7 0 0 5 14 18 22 25 6 1 14 35 7 5 40 32 0 0 0 0 0 0 0 0 0 0 35 0 0 0 0 0 0 0 0 0 1 3 4 18 45 61 50 18
23 13 1 0 15 15 22 28 31 27 11 4 5 15 50 17 59 31 7 0 0 0 0 0 0 0 0 0 0 0 0 0 0 0 0 0 0 0 0 1 6 19 34 22 22 34 85
12 14 15 9 0 20 43 40 28 27 20 12 29 18 59 53 65 47 15 0 0 0 0 0 0 0 0 0 0 0 0 0 0 0 0 0 0 0 0 0 3 14 13 27 42 81 50
12 16 17 16 23 33 19 39 26 22 21 40 21 14 11 53 49 22 3 0 0 0 0 0 0 0 0 0 0 0 0 0 0 0 0 0 6 0 12 30 37 14 13 5 12 24 44
36 18 24 33 21 20 31 30 28 34 23 10 20 21 23 14 20 1 0 0 0 0 0 0 0 0 0 0 0 0 0 0 0 0 0 0 1 2 6 7 4 26 6 8 7 33 17
27 32 20 34 27 56 38 15 5 14 20 0 16 15 3 57 21 5 0 0 0 0 0 0 0 0 0 0 0 0 0 0 0 0 0 0 0 0 18 25 17 25 3 5 11 17 19
23 14 9 3 48 63 61 44 39 60 3 0 31 36 9 15 14 3 0 0 0 0 0 0 0 0 0 0 0 0 0 0 0 0 0 0 3 0 43 42 28 17 4 1 3 8 13
14 29 49 54 55 58 58 42 40 23 0 3 0 0 0 10 8 2 0 0 0 0 0 0 0 0 0 0 0 0 0 0 0 0 0 2 6 39 38 10 59 24 9 15 15 12 15
30 35 47 31 52 45 50 41 24 8 0 0 0 0 11 0 0 0 0 0 0 0 0 0 0 0 0 0 0 0 0 0 0 0 0 3 6 12 17 42 93 9 2 33 14 11 15
29 27 57 35 19 20 18 12 7 0 0 0 0 0 0 1 0 0 0 0 0 0 0 0 0 0 0 0 0 3 13 7 3 3 1 0 13 18 24 11 13 11 4 3 10 8 7
57 46 42 42 11 4 10 8 2 0 0 0 0 0 1 0 0 0 0 0 0 0 0 0 0 0 0 0 0 2 0 0 13 9 0 0 7 29 13 6 22 9 1 0 7 21 2
61 69 65 9 0 0 0 0 0 0 0 0 0 0 0 1 0 0 0 0 0 0 0 0 0 0 0 4 12 3 1 0 4 5 8 9 9 16 7 14 2 2 0 1 27 15 8
57 61 66 22 0 0 0 0 0 0 0 0 0 0 0 2 0 0 0 0 0 0 0 0 0 0 0 5 3 1 3 3 3 7 7 5 10 11 4 7 9 0 1 4 6 11 6
42 52 43 19 0 0 17 1 0 0 0 0 0 0 0 0 2 0 0 0 0 0 0 0 0 0 0 0 0 0 4 5 7 11 11 8 12 13 9 13 5 3 9 12 6 1 4

GFSGBSN_con_sbcape_135.txt.gz
CAPE
0 0 0 0 1 0 0 0 0 0 0 0 2 0 0 0 0 0 0 0 0 0 0 0 0 0 0 0 0 0 0 0 0 0 0 0 0 0 0 0 0 0 0 0 0 0 0
11 6 1 1 0 1 3 0 0 0 0 0 0 0 0 0 0 0 0 0 0 0 0 0 0 0 0 0 0 0 0 0 0 0 0 0 0 0 0 0 0 0 0 0 0 0 0
9 17 12 3 0 0 0 1 0 0 1 1 0 0 0 0 0 0 0 0 0 0 0 0 0 0 0 0 0 0 0 0 0 0 0 0 0 0 0 0 0 0 0 0 0 0 0
25 17 5 13 6 7 1 0 1 0 1 2 0 0 0 0 0 0 0 0 0 0 0 0 0 0 0 0 0 0 0 0 0 0 0 0 0 0 0 0 0 0 0 0 0 0 0
35 16 13 12 11 6 7 4 2 4 1 1 1 0 0 0 0 0 0 0 0 0 0 0 0 0 0 0 0 0 0 0 0 0 0 0 0 0 0 0 0 0 0 0 0 0 0
17 37 35 27 18 12 6 3 6 6 5 0 1 0 0 0 0 0 0 0 0 0 0 0 0 0 0 0 0 0 0 0 0 0 0 0 0 0 0 0 0 0 0 0 0 0 0
10 8 29 34 28 16 2 0 0 3 9 1 1 3 2 0 0 0 0 0 0 0 0 0 0 0 0 0 0 0 0 0 0 0 0 0 0 0 0 0 0 0 0 0 0 0 0
15 15 14 30 18 3 1 4 2 1 8 27 1 4 4 0 0 0 0 0 0 0 0 0 0 0 0 0 0 0 0 0 0 0 0 0 0 0 0 0 0 0 0 0 0 0 0
26 24 22 33 27 18 2 2 1 3 5 32 1 6 5 0 0 0 0 0 0 0 0 0 0 0 0 0 0 0 0 0 0 0 0 0 0 0 0 0 0 0 0 0 0 0 0
23 18 13 21 32 33 8 10 9 5 3 21 2 3 5 4 0 0 0 0 0 0 0 0 0 0 0 0 0 0 0 0 0 0 0 0 0 0 0 0 0 0 0 0 0 0 0
28 25 27 33 29 19 13 4 5 7 11 7 2 5 3 0 0 0 0 0 0 15 2 0 0 0 0 0 0 0 0 0 0 0 0 0 0 0 0 0 0 0 0 0 0 1 11
29 20 29 35 28 15 8 1 0 2 9 21 2 5 0 0 0 0 0 0 4 15 4 0 0 0 0 0 0 0 0 0 0 0 0 0 0 0 0 0 0 0 0 0 7 0 5
2 14 26 27 18 12 1 0 0 0 5 14 2 8 0 0 0 0 0 12 3 17 0 0 0 0 0 0 0 0 0 0 0 0 0 0 0 0 0 0 0 1 15 15 17 56 39
1 24 14 22 19 5 0 0 1 0 5 2 7 4 0 0 0 0 3 14 3 0 0 0 0 0 0 0 0 0 0 0 0 0 0 0 0 0 0 0 1 4 9 30 21 32 31
1 20 5 10 6 4 1 0 0 0 14 7 11 0 6 6 0 0 0 13 0 0 0 0 0 0 0 0 0 0 0 0 0 0 0 0 0 0 0 0 1 23 45 11 7 29 87
1 22 8 5 1 2 7 0 0 8 8 9 0 3 17 5 0 0 10 0 0 0 0 0 0 0 0 0 0 3 0 0 0 0 0 0 0 0 0 0 5 1 10 53 81 42 59
1 21 12 4 0 1 0 0 1 14 15 0 0 3 23 28 13 25 28 2 0 0 0 0 0 0 0 0 0 0 0 0 0 0 0 0 0 0 0 0 6 25 50 10 10 54 117
0 10 12 4 0 15 3 8 18 17 0 0 5 3 32 13 20 20 28 2 0 0 0 0 0 0 0 0 0 0 0 0 0 0 0 0 0 0 0 0 0 13 9 5 27 78 131
1 5 3 11 2 3 27 38 36 18 0 0 3 16 37 54 40 48 9 0 0 0 0 0 0 0 0 0 0 0 0 0 0 0 0 0 2 7 12 10 14 20 2 2 13 21 55
0 3 1 1 8 1 25 18 21 32 23 25 11 10 31 23 28 9 7 5 0 0 0 0 0 0 0 0 0 0 0 0 0 0 0 0 7 0 2 1 1 3 17 6 10 42 144
5 12 9 4 2 13 12 6 9 25 45 30 25 18 14 25 83 14 10 0 3 3 0 0 0 0 0 0 0 0 0 0 0 0 0 7 9 0 0 0 2 0 3 1 14 16 10
14 5 10 33 5 17 23 24 23 11 20 35 28 29 20 37 25 13 22 7 5 0 0 0 0 0 0 0 0 0 0 0 0 0 9 2 19 0 0 4 0 1 7 6 4 6 9
0 14 4 23 25 18 25 10 10 28 8 85 9 4 11 36 13 25 14 2 6 2 0 0 0 0 0 0 0 0 0 0 0 0 8 15 11 1 24 31 16 24 5 3 3 7 5
2 24 29 10 10 21 31 30 7 21 1 44 17 17 26 27 24 8 0 9 1 0 0 0 0 0 0 0 0 0 0 0 0 0 10 19 2 0 19 67 54 3 11 7 9 6 14
18 22 37 33 21 18 43 1 2 11 1 52 0 16 14 92 10 10 15 21 7 3 0 0 0 0 0 0 0 0 0 0 0 11 11 9 3 5 5 47 7 2 4 8 17 9 2
40 30 33 39 26 31 42 48 26 1 0 19 7 0 93 41 32 4 21 14 6 14 5 0 0 0 0 0 7 2 2 1 17 15 25 18 9 11 31 39 43 11 2 1 5 29 4
43 39 47 27 10 13 15 13 0 0 0 0 7 32 157 177 46 28 33 53 32 2 0 3 0 0 0 15 25 26 14 17 25 20 18 21 10 15 37 24 15 3 3 5 6 10 2
34 26 57 37 7 12 21 2 0 0 0 0 25 10 93 223 38 48 35 3 6 11 8 3 0 0 0 30 32 23 18 3 24 26 18 13 27 18 32 24 23 0 3 7 5 8 4
38 50 52 33 15 18 16 3 0 0 0 0 16 0 66 80 17 1 0 0 2 8 23 0 0 0 2 30 17 17 0 8 22 25 8 25 16 32 11 13 4 5 4 5 5 3 2